[[{"header":{"parameterUnit":"m.s-1","parameterCategory":1,"la1":31.0,"la2":29.5877,"lo1":-88.7671,"lo2":-86.6584,"dy":0.0162,"dx":0.0185,"nx":115,"ny":88,"refTime":"2023-04-02T06:00:00:Z","depth":0,"parameterNumber":2,"parameterNumberName":"U-component_of_WINDS"},"data":[0.0,0.0,0.0,0.0,0.0,0.0,0.0,0.0,0.0,0.0,0.0,0.0,0.0,0.0,0.0,0.0,0.0,0.0,0.0,0.0,0.0,0.0,0.0,0.0,0.0,0.0,0.0,0.0,0.0,0.0,0.0,0.0,0.0,0.0,0.0,0.0,0.0,0.0,0.0,0.0,0.0,0.0,0.0,0.0,0.0,0.0,0.0,0.0,0.0,0.0,0.0,0.0,0.0,0.0,0.0,0.0,0.0,0.0,0.0,0.0,0.0,0.0,0.0,0.0,0.0,0.0,0.0,0.0,0.0,0.0,0.0,0.0,0.0,0.0,0.0,0.0,0.0,0.0,0.0,0.0,0.0,0.0,0.0,0.0,0.0,0.0,0.0,0.0,0.0,0.0,0.0,0.0,0.0,0.0,0.0,0.0,0.0,0.0,0.0,0.0,0.0,0.0,0.0,0.0,0.0,0.0,0.0,0.0,0.0,0.0,0.0,0.0,0.0,0.0,0.0,0.0,0.0,0.0,0.0,0.0,0.0,0.0,0.0,0.0,0.0,0.0,0.0,0.0,0.0,0.0,0.0,0.0,0.0,0.0,0.0,0.0,0.0,0.0,0.0,0.0,0.0,0.0,0.0,0.0,0.0,0.0,0.0,0.0,0.0,0.0,0.0,0.0,0.0,0.0,0.0,0.0,0.0,0.0,0.0,0.0,0.0,0.0,0.0,0.0,0.0,0.0,0.0,0.0,0.0,0.0,0.0,0.0,0.0,0.0,0.0,0.0,0.0,0.0,0.0,0.0,0.0,0.0,0.0,0.0,0.0,0.0,0.0,0.0,0.0,0.0,0.0,0.0,0.0,0.0,0.0,0.0,0.0,0.0,0.0,0.0,0.0,0.0,0.0,0.0,0.0,0.0,0.0,0.0,0.0,0.0,0.0,0.0,0.0,0.0,0.0,0.0,0.0,0.0,0.0,0.0,0.0,0.0,0.0,0.0,0.0,0.0,0.0,0.0,0.0,0.0,0.0,0.0,0.0,0.0,0.0,0.0,0.0,0.0,0.0,0.0,0.0,0.0,0.0,0.0,0.0,0.0,0.0,0.0,0.0,0.0,0.0,0.0,0.0,0.0,0.0,0.0,0.0,0.0,0.0,0.0,0.0,0.0,0.0,0.0,0.0,0.0,0.0,0.0,0.0,0.0,0.0,0.0,0.0,0.0,0.0,0.0,0.0,0.0,0.0,0.0,0.0,0.0,0.0,0.0,0.0,0.0,0.0,0.0,0.0,0.0,0.0,0.0,0.0,0.0,0.0,0.0,0.0,0.0,0.0,0.0,0.0,0.0,0.0,0.0,0.0,0.0,0.0,0.0,0.0,0.0,0.0,0.0,0.0,0.0,0.0,0.0,0.0,0.0,0.0,0.0,0.0,0.0,0.0,0.0,0.0,0.0,0.0,0.0,0.0,0.0,0.0,0.0,0.0,0.0,0.0,0.0,0.0,0.0,0.0,0.0,0.0,0.0,0.0,0.0,0.0,0.0,0.0,0.0,0.0,0.0,0.0,0.0,0.0,0.0,0.0,0.0,0.0,0.0,0.0,0.0,0.0,0.0,0.0,0.0,0.0,0.0,0.0,0.0,0.0,0.0,0.0,0.0,0.0,0.0,0.0,0.0,0.0,0.0,0.0,0.0,0.0,0.0,0.0,0.0,0.0,0.0,0.0,0.0,0.0,0.0,0.0,0.0,0.0,0.0,0.0,0.0,0.0,0.0,0.0,0.0,0.0,0.0,0.0,0.0,0.0,0.0,0.0,0.0,0.0,0.0,0.0,0.0,0.0,0.0,0.0,0.0,0.0,0.0,0.0,0.0,0.0,0.0,0.0,0.0,0.0,0.0,0.0,0.0,0.0,0.0,0.0,0.0,0.0,0.0,0.0,0.0,0.0,0.0,0.0,0.0,0.0,0.0,0.0,0.0,0.0,0.0,0.0,0.0,0.0,0.0,0.0,0.0,0.0,0.0,0.0,0.0,0.0,0.0,0.0,0.0,0.0,0.0,0.0,0.0,0.0,0.0,0.0,0.0,0.0,0.0,0.0,0.0,0.0,0.0,0.0,0.0,0.0,0.0,0.0,0.0,0.0,0.0,0.0,0.0,0.0,0.0,0.0,0.0,0.0,0.0,0.0,0.0,0.0,0.0,0.0,0.0,0.0,0.0,0.0,0.0,0.0,0.0,0.0,0.0,0.0,0.0,0.0,0.0,0.0,0.0,0.0,0.0,0.0,0.0,0.0,0.0,0.0,0.0,0.0,0.0,0.0,0.0,0.0,0.0,0.0,0.0,0.0,0.0,0.0,0.0,0.0,0.0,0.0,0.0,0.0,0.0,0.0,0.0,0.0,0.0,0.0,0.0,0.0,0.0,0.0,0.0,0.0,0.0,0.0,0.0,0.0,0.0,0.0,0.0,0.0,0.0,0.0,0.0,0.0,0.0,0.0,0.0,0.0,0.0,0.0,0.0,0.0,0.0,0.0,0.0,0.0,0.0,0.0,0.0,0.0,0.0,0.0,0.0,0.0,0.0,0.0,0.0,0.0,0.0,0.0,0.0,0.0,0.0,0.0,0.0,0.0,0.0,0.0,0.0,0.0,0.0,0.0,0.0,0.0,0.0,0.0,0.0,0.0,0.0,0.0,0.0,0.0,0.0,0.0,0.0,0.0,0.0,0.0,0.0,0.0,0.0,0.0,0.0,0.0,0.0,0.0,0.0,0.0,0.0,0.0,0.0,0.0,0.0,0.0,0.0,0.0,0.0,0.0,0.0,0.0,0.0,0.0,0.0,0.0,0.0,0.0,0.0,0.0,0.0,0.0,0.0,0.0,0.0,0.0,0.0,0.0,0.0,0.0,0.0,0.0,0.0,0.0,0.0,0.0,0.0,0.0,0.0,0.0,0.0,0.0,0.0,0.0,0.0,0.0,0.0,0.0,0.0,0.0,0.0,0.0,0.0,0.0,0.0,0.0,0.0,0.0,0.0,0.0,0.0,0.0,0.0,0.0,0.0,0.0,0.0,0.0,0.0,0.0,0.0,0.0,0.0,0.0,0.0,0.0,0.0,0.0,0.0,0.0,0.0,0.0,0.0,0.0,0.0,0.0,0.0,0.0,0.0,0.0,0.0,0.0,0.0,0.0,0.0,0.0,0.0,0.0,0.0,0.0,0.0,0.0,0.0,0.0,0.0,0.0,0.0,0.0,0.0,0.0,0.0,0.0,0.0,0.0,0.0,0.0,0.0,0.0,0.0,0.0,0.0,0.0,0.0,0.0,0.0,0.0,0.0,0.0,0.0,0.0,0.0,0.0,0.0,0.0,0.0,0.0,0.0,0.0,0.0,0.0,0.0,0.0,0.0,0.0,0.0,0.0,0.0,0.0,0.0,0.0,0.0,0.0,0.0,0.0,0.0,0.0,0.0,0.0,0.0,0.0,0.0,0.0,0.0,0.0,0.0,0.0,0.0,0.0,0.0,0.0,0.0,0.0,0.0,0.0,0.0,0.0,0.0,0.0,0.0,0.0,0.0,0.0,0.0,0.0,0.0,0.0,0.0,0.0,0.0,0.0,0.0,0.0,0.0,0.0,0.0,0.0,0.0,0.0,0.0,0.0,0.0,0.0,0.0,0.0,0.0,0.0,0.0,0.0,0.0,0.0,0.0,0.0,0.0,0.0,0.0,0.0,0.0,0.0,0.0,0.0,0.0,0.0,0.0,0.0,0.0,0.0,0.0,0.0,0.0,0.0,0.0,0.0,0.0,0.0,0.0,0.0,0.0,0.0,0.0,0.0,0.0,0.0,0.0,0.0,0.0,0.0,0.0,0.0,0.0,0.0,0.0,0.0,0.0,0.0,0.0,0.0,0.0,0.0,0.0,0.0,0.0,0.0,0.0,0.0,0.0,0.0,0.0,0.0,0.0,0.0,0.0,0.0,0.0,0.0,0.0,0.0,0.0,0.0,0.0,0.0,0.0,0.0,0.0,0.0,0.0,0.0,0.0,0.0,0.0,0.0,0.0,0.0,0.0,0.0,0.0,0.0,0.0,0.0,0.0,0.0,0.0,0.0,0.0,0.0,0.0,0.0,0.0,0.0,0.0,0.0,0.0,0.0,0.0,0.0,0.0,0.0,0.0,0.0,0.0,0.0,0.0,0.0,0.0,0.0,0.0,0.0,0.0,0.0,0.0,0.0,0.0,0.0,0.0,0.0,0.0,0.0,0.0,0.0,0.0,0.0,0.0,0.0,0.0,-4.123,0.0,0.0,0.0,0.0,0.0,0.0,0.0,0.0,0.0,0.0,0.0,0.0,0.0,0.0,0.0,0.0,0.0,0.0,0.0,0.0,0.0,0.0,0.0,0.0,0.0,0.0,0.0,0.0,0.0,0.0,0.0,0.0,0.0,0.0,0.0,0.0,0.0,0.0,0.0,0.0,0.0,0.0,0.0,0.0,0.0,0.0,0.0,0.0,0.0,0.0,0.0,0.0,0.0,0.0,0.0,0.0,0.0,0.0,0.0,0.0,0.0,0.0,0.0,0.0,0.0,0.0,0.0,0.0,0.0,0.0,0.0,0.0,0.0,0.0,0.0,0.0,0.0,0.0,0.0,0.0,0.0,0.0,0.0,0.0,0.0,0.0,0.0,0.0,0.0,0.0,0.0,0.0,0.0,0.0,0.0,0.0,0.0,0.0,0.0,0.0,0.0,0.0,0.0,0.0,0.0,0.0,0.0,0.0,0.0,0.0,-4.3515,-4.3132,-4.3096,-4.271,-4.1874,0.0,0.0,0.0,0.0,0.0,0.0,0.0,0.0,0.0,0.0,0.0,0.0,0.0,0.0,0.0,0.0,0.0,0.0,0.0,0.0,0.0,0.0,0.0,0.0,0.0,0.0,0.0,0.0,0.0,0.0,0.0,0.0,0.0,0.0,0.0,0.0,0.0,0.0,0.0,0.0,0.0,0.0,0.0,0.0,0.0,0.0,0.0,0.0,0.0,0.0,0.0,0.0,0.0,0.0,0.0,0.0,0.0,0.0,0.0,0.0,0.0,0.0,0.0,0.0,0.0,0.0,0.0,0.0,0.0,0.0,0.0,0.0,0.0,0.0,0.0,0.0,0.0,0.0,0.0,0.0,0.0,0.0,0.0,0.0,0.0,0.0,0.0,0.0,0.0,0.0,0.0,0.0,0.0,0.0,0.0,0.0,0.0,0.0,0.0,0.0,0.0,0.0,0.0,0.0,0.0,0.0,0.0,0.0,0.0,0.0,0.0,0.0,-4.3993,-4.3491,-4.244,0.0,0.0,0.0,0.0,0.0,0.0,0.0,0.0,0.0,0.0,0.0,0.0,0.0,0.0,0.0,0.0,0.0,0.0,0.0,0.0,0.0,0.0,0.0,0.0,0.0,0.0,0.0,0.0,0.0,0.0,0.0,0.0,0.0,0.0,0.0,0.0,0.0,0.0,0.0,0.0,0.0,0.0,0.0,0.0,0.0,0.0,0.0,0.0,0.0,0.0,0.0,0.0,0.0,0.0,0.0,0.0,0.0,0.0,0.0,0.0,0.0,0.0,0.0,0.0,0.0,0.0,0.0,0.0,0.0,0.0,0.0,0.0,0.0,0.0,0.0,0.0,0.0,0.0,0.0,0.0,0.0,0.0,0.0,0.0,0.0,0.0,0.0,0.0,0.0,0.0,0.0,0.0,0.0,0.0,0.0,0.0,0.0,0.0,0.0,0.0,0.0,0.0,0.0,0.0,0.0,0.0,0.0,0.0,0.0,0.0,-4.57,-4.4905,-4.4873,0.0,-4.25,0.0,0.0,0.0,0.0,0.0,0.0,0.0,0.0,0.0,0.0,0.0,0.0,0.0,0.0,0.0,0.0,0.0,0.0,0.0,0.0,0.0,0.0,0.0,0.0,0.0,0.0,0.0,0.0,0.0,0.0,0.0,0.0,0.0,0.0,0.0,0.0,0.0,0.0,0.0,0.0,0.0,0.0,0.0,0.0,0.0,0.0,0.0,0.0,0.0,0.0,0.0,0.0,0.0,0.0,0.0,0.0,0.0,0.0,0.0,0.0,0.0,0.0,0.0,0.0,0.0,0.0,0.0,0.0,0.0,0.0,0.0,0.0,0.0,0.0,0.0,0.0,0.0,0.0,0.0,0.0,0.0,0.0,0.0,0.0,0.0,0.0,0.0,0.0,0.0,0.0,0.0,0.0,0.0,0.0,0.0,0.0,0.0,0.0,0.0,0.0,0.0,0.0,0.0,0.0,0.0,0.0,0.0,0.0,0.0,0.0,-4.6145,-4.5778,-4.5281,-4.443,0.0,0.0,0.0,0.0,0.0,0.0,0.0,0.0,0.0,0.0,0.0,0.0,0.0,0.0,0.0,0.0,0.0,0.0,0.0,0.0,0.0,0.0,0.0,0.0,0.0,0.0,0.0,0.0,0.0,0.0,0.0,0.0,0.0,0.0,0.0,0.0,0.0,0.0,0.0,0.0,0.0,0.0,0.0,0.0,0.0,0.0,0.0,0.0,0.0,0.0,0.0,0.0,0.0,0.0,0.0,0.0,0.0,0.0,0.0,0.0,0.0,0.0,0.0,0.0,0.0,0.0,0.0,0.0,0.0,0.0,0.0,0.0,0.0,0.0,0.0,0.0,0.0,0.0,0.0,0.0,0.0,0.0,0.0,0.0,0.0,0.0,0.0,0.0,0.0,0.0,0.0,0.0,0.0,0.0,0.0,0.0,0.0,0.0,0.0,0.0,0.0,0.0,0.0,0.0,0.0,0.0,0.0,0.0,0.0,0.0,-4.63,-4.6303,-4.6249,-4.5458,-4.4606,-4.373,0.0,0.0,0.0,0.0,0.0,0.0,0.0,0.0,0.0,0.0,0.0,0.0,0.0,0.0,0.0,0.0,0.0,0.0,0.0,0.0,0.0,0.0,0.0,0.0,0.0,0.0,0.0,0.0,0.0,0.0,0.0,0.0,0.0,0.0,0.0,0.0,0.0,0.0,0.0,0.0,0.0,0.0,0.0,0.0,0.0,0.0,0.0,0.0,0.0,0.0,0.0,0.0,0.0,0.0,0.0,0.0,0.0,0.0,0.0,0.0,0.0,0.0,0.0,0.0,0.0,0.0,0.0,0.0,0.0,0.0,0.0,0.0,0.0,0.0,0.0,0.0,0.0,0.0,0.0,0.0,0.0,0.0,0.0,0.0,0.0,0.0,0.0,0.0,0.0,0.0,0.0,0.0,0.0,0.0,0.0,0.0,0.0,0.0,0.0,0.0,0.0,0.0,0.0,0.0,0.0,0.0,0.0,0.0,-4.6306,-4.6296,-4.6288,-4.6281,-4.5461,-4.4606,0.0,0.0,0.0,0.0,0.0,0.0,0.0,0.0,0.0,0.0,0.0,0.0,0.0,0.0,0.0,0.0,0.0,0.0,0.0,0.0,0.0,0.0,0.0,0.0,0.0,0.0,0.0,0.0,0.0,0.0,0.0,0.0,0.0,0.0,0.0,0.0,0.0,0.0,0.0,0.0,0.0,0.0,0.0,0.0,0.0,0.0,0.0,0.0,0.0,0.0,0.0,0.0,0.0,0.0,0.0,0.0,0.0,0.0,0.0,0.0,0.0,0.0,0.0,0.0,0.0,0.0,0.0,0.0,0.0,0.0,0.0,0.0,0.0,0.0,0.0,0.0,0.0,0.0,0.0,0.0,0.0,0.0,0.0,0.0,0.0,0.0,0.0,0.0,0.0,0.0,0.0,0.0,0.0,0.0,0.0,0.0,0.0,0.0,0.0,0.0,0.0,0.0,0.0,0.0,0.0,0.0,0.0,0.0,0.0,-4.6303,-4.6296,-4.6288,-4.6301,-4.5989,-4.5172,0.0,0.0,0.0,0.0,0.0,0.0,0.0,0.0,0.0,0.0,0.0,0.0,0.0,0.0,0.0,0.0,0.0,0.0,0.0,0.0,0.0,0.0,0.0,0.0,0.0,0.0,0.0,0.0,0.0,0.0,0.0,0.0,0.0,0.0,0.0,0.0,0.0,0.0,0.0,0.0,0.0,0.0,0.0,0.0,0.0,0.0,0.0,0.0,0.0,0.0,0.0,0.0,0.0,0.0,0.0,0.0,0.0,0.0,0.0,0.0,0.0,0.0,0.0,0.0,0.0,0.0,0.0,0.0,0.0,0.0,0.0,0.0,0.0,0.0,0.0,0.0,0.0,0.0,0.0,0.0,0.0,0.0,0.0,0.0,0.0,0.0,0.0,0.0,0.0,0.0,0.0,0.0,0.0,0.0,0.0,0.0,0.0,0.0,0.0,0.0,0.0,0.0,0.0,0.0,0.0,0.0,0.0,0.0,0.0,-4.629,0.0,-4.6288,-4.6301,-4.6301,-4.5485,0.0,0.0,0.0,0.0,0.0,0.0,0.0,0.0,0.0,0.0,0.0,0.0,0.0,0.0,0.0,0.0,0.0,0.0,0.0,0.0,0.0,0.0,0.0,0.0,0.0,0.0,0.0,0.0,0.0,0.0,0.0,0.0,0.0,0.0,0.0,0.0,0.0,0.0,0.0,0.0,0.0,0.0,0.0,0.0,0.0,0.0,0.0,0.0,0.0,0.0,0.0,0.0,0.0,0.0,0.0,0.0,0.0,0.0,0.0,0.0,0.0,0.0,0.0,0.0,0.0,0.0,0.0,0.0,0.0,0.0,0.0,0.0,0.0,0.0,0.0,0.0,0.0,0.0,0.0,0.0,0.0,0.0,0.0,0.0,0.0,0.0,0.0,0.0,0.0,0.0,0.0,0.0,0.0,0.0,0.0,0.0,0.0,0.0,0.0,0.0,0.0,0.0,0.0,0.0,0.0,0.0,0.0,0.0,-4.629,-4.63,-4.63,-4.629,-4.6301,-4.6301,-4.5504,0.0,0.0,0.0,0.0,0.0,0.0,0.0,0.0,0.0,0.0,0.0,0.0,0.0,0.0,0.0,0.0,0.0,0.0,0.0,0.0,0.0,0.0,0.0,0.0,0.0,0.0,0.0,0.0,0.0,0.0,0.0,0.0,0.0,0.0,0.0,0.0,0.0,0.0,0.0,0.0,0.0,0.0,0.0,0.0,0.0,0.0,0.0,0.0,0.0,0.0,0.0,0.0,0.0,0.0,0.0,0.0,0.0,0.0,0.0,0.0,0.0,0.0,0.0,0.0,0.0,0.0,0.0,0.0,0.0,0.0,0.0,0.0,0.0,0.0,0.0,0.0,0.0,0.0,0.0,0.0,0.0,0.0,0.0,0.0,0.0,0.0,0.0,0.0,0.0,0.0,0.0,0.0,0.0,0.0,0.0,0.0,0.0,0.0,0.0,0.0,0.0,0.0,0.0,0.0,0.0,0.0,0.0,0.0,0.0,-4.63,-4.6302,-4.6288,-4.6301,-4.6301,-4.5778,0.0,0.0,0.0,0.0,0.0,0.0,0.0,0.0,0.0,0.0,0.0,0.0,0.0,0.0,0.0,0.0,0.0,0.0,0.0,0.0,0.0,0.0,0.0,0.0,0.0,0.0,0.0,0.0,0.0,0.0,0.0,0.0,0.0,0.0,0.0,0.0,0.0,0.0,0.0,0.0,0.0,0.0,0.0,0.0,0.0,0.0,0.0,0.0,0.0,0.0,0.0,0.0,0.0,0.0,0.0,0.0,0.0,0.0,0.0,0.0,0.0,0.0,0.0,0.0,0.0,0.0,0.0,0.0,0.0,0.0,0.0,0.0,0.0,0.0,0.0,0.0,0.0,0.0,0.0,0.0,0.0,0.0,0.0,0.0,0.0,0.0,0.0,0.0,0.0,0.0,0.0,0.0,0.0,0.0,0.0,0.0,0.0,0.0,0.0,0.0,0.0,0.0,0.0,0.0,0.0,0.0,0.0,0.0,0.0,-4.6302,-4.6302,-4.6288,-4.6299,-4.6301,-4.5894,-4.5039,0.0,0.0,0.0,0.0,0.0,0.0,0.0,0.0,0.0,0.0,0.0,0.0,0.0,0.0,0.0,0.0,0.0,0.0,0.0,0.0,0.0,0.0,0.0,0.0,0.0,0.0,0.0,0.0,0.0,0.0,0.0,0.0,0.0,0.0,0.0,0.0,0.0,0.0,0.0,0.0,0.0,0.0,0.0,0.0,0.0,0.0,0.0,0.0,0.0,0.0,0.0,0.0,0.0,0.0,0.0,0.0,0.0,0.0,0.0,0.0,0.0,0.0,0.0,0.0,0.0,0.0,0.0,0.0,0.0,0.0,0.0,0.0,0.0,0.0,0.0,0.0,0.0,0.0,0.0,0.0,0.0,0.0,0.0,0.0,0.0,0.0,0.0,0.0,0.0,0.0,0.0,0.0,0.0,0.0,0.0,0.0,0.0,0.0,0.0,0.0,0.0,0.0,0.0,0.0,0.0,0.0,0.0,0.0,-4.6302,-4.6302,-4.6305,-4.6293,-4.6299,-4.5913,0.0,0.0,0.0,0.0,0.0,0.0,0.0,0.0,0.0,0.0,0.0,0.0,0.0,0.0,0.0,0.0,0.0,0.0,0.0,0.0,0.0,0.0,0.0,0.0,0.0,0.0,0.0,0.0,0.0,0.0,0.0,0.0,0.0,0.0,0.0,0.0,0.0,0.0,0.0,0.0,0.0,0.0,0.0,0.0,0.0,0.0,0.0,0.0,0.0,0.0,0.0,0.0,0.0,0.0,0.0,0.0,0.0,0.0,0.0,0.0,0.0,0.0,0.0,0.0,0.0,0.0,0.0,0.0,0.0,0.0,0.0,0.0,0.0,0.0,0.0,0.0,0.0,0.0,0.0,0.0,0.0,0.0,0.0,0.0,0.0,0.0,0.0,0.0,0.0,0.0,0.0,0.0,0.0,0.0,0.0,0.0,0.0,0.0,0.0,0.0,0.0,0.0,0.0,0.0,0.0,0.0,0.0,0.0,0.0,-4.6302,-4.6302,-4.6305,-4.6293,-4.6299,-4.6186,0.0,0.0,0.0,0.0,0.0,0.0,0.0,0.0,0.0,0.0,0.0,0.0,0.0,0.0,0.0,0.0,0.0,0.0,0.0,0.0,0.0,0.0,0.0,0.0,0.0,0.0,0.0,0.0,0.0,0.0,0.0,0.0,0.0,0.0,0.0,0.0,0.0,0.0,0.0,0.0,0.0,0.0,0.0,0.0,0.0,0.0,0.0,0.0,0.0,0.0,0.0,0.0,0.0,0.0,0.0,0.0,0.0,0.0,0.0,0.0,0.0,0.0,0.0,0.0,0.0,0.0,0.0,0.0,0.0,0.0,0.0,0.0,0.0,0.0,0.0,0.0,0.0,0.0,0.0,0.0,0.0,0.0,0.0,0.0,0.0,0.0,0.0,0.0,0.0,0.0,0.0,0.0,0.0,0.0,0.0,0.0,0.0,0.0,0.0,0.0,0.0,0.0,0.0,0.0,0.0,0.0,0.0,0.0,-4.6302,-4.6302,-4.6302,-4.6303,-4.6288,-4.6295,-4.6301,0.0,0.0,0.0,0.0,0.0,0.0,0.0,0.0,0.0,0.0,0.0,0.0,0.0,0.0,0.0,0.0,0.0,0.0,0.0,0.0,0.0,0.0,0.0,0.0,0.0,0.0,0.0,0.0,0.0,0.0,0.0,0.0,0.0,0.0,0.0,0.0,0.0,0.0,0.0,0.0,0.0,0.0,0.0,0.0,0.0,0.0,0.0,0.0,0.0,0.0,0.0,0.0,0.0,0.0,0.0,0.0,0.0,0.0,0.0,0.0,0.0,0.0,0.0,0.0,0.0,0.0,0.0,0.0,0.0,0.0,0.0,0.0,0.0,0.0,0.0,0.0,0.0,0.0,0.0,0.0,0.0,0.0,0.0,0.0,0.0,0.0,0.0,0.0,0.0,0.0,0.0,0.0,0.0,0.0,0.0,0.0,0.0,0.0,0.0,0.0,0.0,0.0,0.0,0.0,0.0,0.0,0.0,0.0,-4.6302,-4.6302,-4.6302,-4.6302,-4.6302,-4.6288,-4.6295,0.0,0.0,0.0,0.0,0.0,0.0,0.0,0.0,0.0,0.0,0.0,0.0,0.0,0.0,0.0,0.0,0.0,0.0,0.0,0.0,0.0,0.0,0.0,0.0,0.0,0.0,0.0,0.0,0.0,0.0,0.0,0.0,0.0,0.0,0.0,0.0,0.0,0.0,0.0,0.0,0.0,0.0,0.0,0.0,0.0,0.0,0.0,0.0,0.0,0.0,0.0,0.0,0.0,0.0,0.0,0.0,0.0,0.0,0.0,0.0,0.0,0.0,0.0,0.0,0.0,0.0,0.0,0.0,0.0,0.0,0.0,0.0,0.0,0.0,0.0,0.0,0.0,0.0,0.0,0.0,0.0,0.0,0.0,0.0,0.0,0.0,0.0,0.0,0.0,0.0,0.0,0.0,0.0,0.0,0.0,0.0,0.0,0.0,0.0,0.0,0.0,0.0,0.0,0.0,0.0,0.0,0.0,0.0,-4.6302,-4.6302,-4.6302,-4.6302,-4.6302,-4.629,-4.6294,0.0,0.0,0.0,0.0,0.0,0.0,0.0,0.0,0.0,0.0,0.0,0.0,0.0,0.0,0.0,0.0,0.0,0.0,0.0,0.0,0.0,0.0,0.0,0.0,0.0,0.0,0.0,0.0,0.0,0.0,0.0,0.0,0.0,0.0,0.0,0.0,0.0,0.0,0.0,0.0,0.0,0.0,0.0,0.0,0.0,0.0,0.0,0.0,-3.832,0.0,0.0,0.0,0.0,0.0,0.0,0.0,0.0,0.0,0.0,0.0,0.0,0.0,0.0,0.0,0.0,0.0,0.0,0.0,0.0,0.0,0.0,0.0,0.0,0.0,0.0,0.0,0.0,0.0,0.0,0.0,0.0,0.0,0.0,0.0,0.0,0.0,0.0,0.0,0.0,0.0,0.0,0.0,0.0,0.0,0.0,0.0,0.0,0.0,0.0,0.0,0.0,0.0,0.0,0.0,0.0,0.0,0.0,0.0,-4.6495,-4.6905,-4.6905,-4.6905,-4.6924,-4.691,-4.6718,0.0,0.0,0.0,0.0,0.0,0.0,0.0,0.0,0.0,0.0,0.0,0.0,0.0,0.0,0.0,0.0,0.0,0.0,0.0,0.0,0.0,0.0,0.0,0.0,0.0,0.0,0.0,0.0,0.0,0.0,0.0,0.0,0.0,0.0,0.0,0.0,0.0,0.0,0.0,0.0,0.0,0.0,0.0,0.0,0.0,0.0,0.0,0.0,0.0,0.0,0.0,0.0,0.0,0.0,0.0,0.0,0.0,0.0,0.0,0.0,0.0,0.0,0.0,0.0,0.0,0.0,0.0,0.0,0.0,0.0,0.0,0.0,0.0,0.0,0.0,0.0,0.0,0.0,0.0,0.0,0.0,0.0,0.0,0.0,0.0,0.0,0.0,0.0,0.0,0.0,0.0,0.0,0.0,0.0,0.0,0.0,0.0,0.0,0.0,0.0,0.0,0.0,0.0,0.0,0.0,0.0,0.0,-4.6436,-4.6846,-4.7567,-4.7723,-4.7781,-4.7781,-4.7664,-4.724,-4.6526,0.0,0.0,0.0,0.0,0.0,0.0,0.0,0.0,0.0,0.0,0.0,0.0,0.0,0.0,0.0,0.0,0.0,0.0,0.0,0.0,0.0,0.0,0.0,0.0,0.0,0.0,0.0,0.0,0.0,0.0,0.0,0.0,0.0,0.0,0.0,0.0,0.0,0.0,-3.7704,-3.9071,0.0,0.0,0.0,0.0,0.0,0.0,0.0,0.0,-4.0098,0.0,0.0,0.0,0.0,0.0,0.0,0.0,0.0,0.0,0.0,0.0,0.0,0.0,0.0,0.0,0.0,0.0,0.0,0.0,0.0,0.0,0.0,0.0,0.0,0.0,0.0,0.0,0.0,0.0,0.0,0.0,0.0,0.0,0.0,0.0,0.0,0.0,0.0,0.0,0.0,0.0,0.0,0.0,0.0,0.0,0.0,0.0,0.0,0.0,0.0,0.0,0.0,0.0,0.0,0.0,0.0,-4.6302,-4.7022,-4.7471,-4.7586,-4.8271,-4.8584,-4.8584,-4.7938,-4.753,-4.7375,0.0,0.0,0.0,0.0,0.0,0.0,0.0,0.0,0.0,0.0,0.0,0.0,0.0,0.0,0.0,0.0,0.0,0.0,0.0,0.0,0.0,0.0,0.0,0.0,0.0,0.0,0.0,0.0,0.0,0.0,0.0,0.0,0.0,0.0,0.0,0.0,0.0,0.0,0.0,-4.0305,-4.095,0.0,0.0,0.0,0.0,0.0,0.0,0.0,0.0,-4.0937,0.0,0.0,0.0,0.0,0.0,0.0,0.0,0.0,0.0,0.0,0.0,0.0,0.0,0.0,0.0,0.0,0.0,0.0,0.0,0.0,0.0,0.0,0.0,0.0,0.0,0.0,0.0,0.0,0.0,0.0,0.0,0.0,0.0,0.0,0.0,0.0,0.0,0.0,0.0,0.0,0.0,0.0,0.0,0.0,0.0,0.0,0.0,0.0,0.0,0.0,0.0,0.0,0.0,0.0,0.0,-4.6339,-4.7139,-4.7801,-4.8232,-4.9031,-4.9462,-4.9481,-4.9089,-4.8484,0.0,0.0,0.0,0.0,0.0,0.0,0.0,0.0,0.0,0.0,0.0,0.0,0.0,0.0,0.0,0.0,0.0,0.0,0.0,0.0,0.0,0.0,0.0,0.0,0.0,0.0,0.0,0.0,0.0,0.0,0.0,0.0,0.0,0.0,0.0,0.0,0.0,0.0,0.0,0.0,-4.0854,-4.1107,-4.1107,0.0,0.0,0.0,0.0,0.0,0.0,-4.1172,-4.1191,0.0,0.0,0.0,0.0,0.0,0.0,0.0,0.0,0.0,0.0,0.0,0.0,0.0,0.0,0.0,0.0,0.0,0.0,0.0,0.0,0.0,0.0,0.0,0.0,0.0,0.0,0.0,0.0,0.0,0.0,0.0,0.0,0.0,0.0,0.0,0.0,0.0,0.0,0.0,0.0,0.0,0.0,0.0,0.0,0.0,0.0,0.0,0.0,0.0,0.0,0.0,0.0,0.0,0.0,0.0,-4.6593,-4.7412,-4.8232,-4.9052,-4.9911,-5.0358,-5.0358,-5.0182,-4.946,0.0,0.0,0.0,0.0,0.0,0.0,0.0,0.0,0.0,0.0,0.0,0.0,0.0,0.0,0.0,0.0,0.0,0.0,0.0,0.0,0.0,0.0,0.0,0.0,0.0,0.0,0.0,0.0,0.0,0.0,0.0,0.0,0.0,0.0,0.0,0.0,0.0,0.0,0.0,0.0,0.0,-4.1108,-4.1107,-4.1106,0.0,0.0,0.0,0.0,-4.1111,-4.1152,0.0,0.0,0.0,0.0,0.0,0.0,0.0,0.0,0.0,0.0,0.0,0.0,0.0,0.0,0.0,0.0,0.0,0.0,0.0,0.0,0.0,0.0,0.0,0.0,0.0,0.0,0.0,0.0,0.0,0.0,0.0,0.0,0.0,0.0,0.0,0.0,0.0,0.0,0.0,0.0,0.0,0.0,0.0,0.0,0.0,0.0,0.0,0.0,0.0,0.0,0.0,0.0,0.0,0.0,0.0,0.0,-4.7432,-4.8252,-4.9072,-4.9928,-5.0789,-5.1238,-5.1238,-5.0494,-5.0026,0.0,0.0,0.0,0.0,0.0,0.0,0.0,0.0,0.0,0.0,0.0,0.0,0.0,0.0,0.0,0.0,0.0,0.0,0.0,0.0,0.0,0.0,0.0,0.0,0.0,0.0,0.0,0.0,0.0,0.0,0.0,0.0,0.0,0.0,0.0,0.0,0.0,0.0,0.0,0.0,0.0,-4.111,-4.1108,-4.1103,-4.11,0.0,0.0,-4.1108,-4.1111,-4.1152,0.0,0.0,0.0,0.0,0.0,0.0,0.0,0.0,0.0,0.0,0.0,0.0,0.0,0.0,0.0,0.0,0.0,0.0,0.0,0.0,0.0,0.0,0.0,0.0,0.0,0.0,0.0,0.0,0.0,0.0,0.0,0.0,0.0,0.0,0.0,0.0,0.0,0.0,0.0,0.0,0.0,0.0,0.0,0.0,0.0,0.0,0.0,0.0,0.0,0.0,0.0,0.0,0.0,0.0,0.0,-4.7235,-4.7625,-4.8874,-4.9714,-5.0104,-5.0945,-5.1394,-5.1394,-5.1043,-5.0592,0.0,0.0,0.0,0.0,0.0,0.0,0.0,0.0,0.0,0.0,0.0,0.0,0.0,0.0,0.0,0.0,0.0,0.0,0.0,0.0,0.0,0.0,0.0,0.0,0.0,0.0,0.0,0.0,0.0,0.0,0.0,0.0,0.0,0.0,0.0,0.0,0.0,0.0,0.0,0.0,0.0,0.0,-4.1169,-4.1107,0.0,0.0,0.0,-4.183,-4.1831,0.0,0.0,0.0,0.0,0.0,0.0,0.0,0.0,0.0,0.0,0.0,0.0,0.0,0.0,0.0,0.0,0.0,0.0,0.0,0.0,0.0,0.0,0.0,0.0,0.0,0.0,0.0,0.0,0.0,0.0,0.0,0.0,0.0,0.0,0.0,0.0,0.0,0.0,0.0,0.0,0.0,0.0,0.0,0.0,0.0,0.0,0.0,0.0,0.0,0.0,0.0,0.0,0.0,0.0,0.0,0.0,0.0,-4.823,-4.946,-5.0202,-5.0436,-5.1043,-5.1394,-5.1394,-5.1394,0.0,0.0,0.0,0.0,0.0,0.0,0.0,0.0,0.0,0.0,0.0,0.0,0.0,0.0,0.0,0.0,0.0,0.0,0.0,0.0,0.0,0.0,0.0,0.0,0.0,0.0,0.0,-4.0566,0.0,0.0,0.0,0.0,0.0,0.0,0.0,0.0,0.0,0.0,0.0,0.0,0.0,0.0,-4.2168,-4.1502,-4.1422,-4.1732,0.0,0.0,-4.2729,-4.2709,-4.2733,-4.2539,0.0,0.0,0.0,0.0,0.0,0.0,0.0,0.0,0.0,0.0,0.0,0.0,0.0,0.0,0.0,0.0,0.0,0.0,0.0,0.0,0.0,0.0,0.0,0.0,0.0,0.0,0.0,0.0,0.0,0.0,0.0,0.0,0.0,0.0,0.0,0.0,0.0,0.0,0.0,0.0,0.0,0.0,0.0,0.0,0.0,0.0,0.0,0.0,0.0,0.0,0.0,0.0,0.0,0.0,-4.8386,-4.987,-5.0046,-5.0494,-5.1277,-5.1355,-5.1394,-5.1394,-5.1394,-5.1375,0.0,0.0,0.0,0.0,0.0,0.0,0.0,0.0,0.0,0.0,0.0,0.0,0.0,0.0,0.0,0.0,0.0,0.0,0.0,0.0,0.0,0.0,0.0,0.0,0.0,0.0,0.0,0.0,0.0,0.0,0.0,0.0,0.0,0.0,0.0,0.0,0.0,0.0,0.0,0.0,0.0,-4.2402,-4.2323,-4.2322,-4.2614,0.0,-4.3609,-4.3611,-4.3611,-4.3613,-4.3594,-4.3535,0.0,0.0,0.0,0.0,0.0,0.0,0.0,0.0,0.0,0.0,0.0,0.0,0.0,0.0,0.0,0.0,0.0,0.0,0.0,0.0,0.0,0.0,0.0,0.0,0.0,0.0,0.0,0.0,0.0,0.0,0.0,0.0,0.0,0.0,0.0,0.0,0.0,0.0,0.0,0.0,0.0,0.0,0.0,0.0,0.0,0.0,0.0,0.0,0.0,0.0,0.0,0.0,0.0,-4.946,-5.0085,-5.0631,-5.1063,-5.1375,-5.1394,-5.1394,-5.1394,-5.1394,-5.1394,0.0,0.0,0.0,0.0,0.0,0.0,0.0,0.0,0.0,0.0,0.0,0.0,0.0,0.0,0.0,0.0,0.0,0.0,0.0,0.0,0.0,0.0,0.0,0.0,0.0,0.0,0.0,0.0,-4.3203,-4.3555,-4.4413,0.0,0.0,0.0,0.0,0.0,0.0,0.0,0.0,0.0,0.0,-4.3808,-4.3281,-4.3202,0.0,0.0,-4.4509,-4.451,-4.451,-4.4492,-4.4316,-4.3789,-4.3418,0.0,0.0,0.0,0.0,0.0,0.0,0.0,0.0,0.0,0.0,0.0,0.0,0.0,0.0,0.0,0.0,0.0,0.0,0.0,0.0,0.0,0.0,0.0,0.0,0.0,0.0,0.0,0.0,0.0,0.0,0.0,0.0,0.0,0.0,0.0,0.0,0.0,0.0,0.0,0.0,0.0,0.0,0.0,0.0,0.0,0.0,0.0,0.0,0.0,0.0,0.0,0.0,-5.0221,-5.0494,-5.1082,-5.1394,-5.1394,-5.1394,-5.1394,-5.1394,-5.1394,-5.1394,0.0,0.0,0.0,0.0,0.0,0.0,0.0,0.0,0.0,0.0,0.0,0.0,0.0,0.0,0.0,0.0,0.0,0.0,0.0,0.0,0.0,0.0,0.0,0.0,0.0,0.0,0.0,0.0,-4.4316,-4.4706,-4.531,0.0,0.0,0.0,0.0,0.0,0.0,0.0,0.0,0.0,0.0,-4.4785,-4.418,-4.4082,-4.4393,-4.5272,-4.539,-4.539,-4.539,-4.539,-4.5176,-4.457,0.0,0.0,0.0,0.0,0.0,0.0,0.0,0.0,0.0,0.0,0.0,0.0,0.0,0.0,0.0,0.0,0.0,0.0,0.0,0.0,0.0,0.0,0.0,0.0,0.0,0.0,0.0,-4.6274,0.0,0.0,-4.6209,0.0,0.0,0.0,0.0,0.0,0.0,0.0,0.0,0.0,0.0,0.0,0.0,0.0,0.0,0.0,0.0,0.0,0.0,0.0,0.0,0.0,0.0,-5.0534,-5.1355,-5.1375,-5.1394,-5.1394,-5.1394,-5.1394,-5.1394,-5.1394,-5.1394,-5.1394,0.0,0.0,0.0,0.0,0.0,0.0,0.0,0.0,0.0,0.0,0.0,0.0,0.0,0.0,0.0,0.0,0.0,0.0,0.0,0.0,0.0,0.0,0.0,0.0,0.0,0.0,-4.4901,-4.5738,-4.6205,0.0,0.0,0.0,0.0,0.0,0.0,0.0,0.0,0.0,0.0,-4.5019,-4.5,-4.498,-4.4961,-4.5273,-4.6152,-4.6269,-4.6269,-4.6289,-4.6289,-4.6269,0.0,0.0,0.0,0.0,0.0,0.0,0.0,0.0,0.0,0.0,0.0,0.0,0.0,0.0,0.0,0.0,0.0,0.0,0.0,0.0,0.0,0.0,0.0,0.0,0.0,0.0,0.0,-4.803,-4.8038,0.0,0.0,0.0,0.0,0.0,0.0,0.0,0.0,0.0,0.0,0.0,-4.6302,-4.6302,0.0,0.0,0.0,0.0,0.0,0.0,0.0,0.0,0.0,0.0,0.0,0.0,-5.1102,-5.1375,-5.1394,-5.1394,-5.1394,-5.1394,-5.1394,-5.1394,-5.1394,-5.1394,-5.1394,0.0,0.0,0.0,0.0,0.0,0.0,0.0,0.0,0.0,0.0,0.0,0.0,0.0,0.0,0.0,0.0,0.0,0.0,0.0,0.0,0.0,0.0,0.0,0.0,0.0,-4.492,0.0,0.0,0.0,0.0,0.0,0.0,0.0,0.0,0.0,0.0,0.0,-4.6191,-4.5898,-4.5879,-4.5859,-4.5859,-4.5879,-4.6172,0.0,0.0,0.0,0.0,0.0,0.0,0.0,0.0,0.0,0.0,0.0,0.0,0.0,0.0,-4.5976,-4.625,-4.6289,-4.6289,-4.6289,0.0,0.0,0.0,0.0,0.0,0.0,0.0,0.0,0.0,0.0,0.0,0.0,0.0,0.0,-4.8897,0.0,-4.8884,0.0,0.0,0.0,0.0,0.0,0.0,0.0,0.0,-4.7042,-4.7178,-4.7178,-4.7178,-4.7471,0.0,-4.8328,-4.8465,0.0,0.0,0.0,0.0,0.0,0.0,0.0,0.0,-5.1394,-5.1394,-5.1394,-5.1394,-5.1394,-5.1394,-5.1394,-5.1394,-5.1394,-5.1394,-5.1394,-5.1394,-5.1394,0.0,0.0,0.0,0.0,0.0,0.0,0.0,0.0,0.0,0.0,0.0,0.0,0.0,0.0,0.0,0.0,0.0,0.0,0.0,0.0,0.0,0.0,0.0,-4.5681,0.0,0.0,0.0,0.0,0.0,0.0,0.0,0.0,0.0,-4.6289,-4.6289,-4.6289,-4.6289,-4.6289,-4.6289,-4.6289,0.0,0.0,0.0,0.0,0.0,0.0,0.0,-4.7851,-4.7285,-4.7207,-4.7109,-4.6797,-4.6504,-4.6289,-4.6289,0.0,0.0,-4.6289,-4.6289,-4.6289,-4.6289,-4.6289,-4.6289,-4.6289,-4.6307,-4.6301,0.0,0.0,0.0,0.0,0.0,0.0,0.0,0.0,-4.9017,-4.9019,0.0,-4.9041,0.0,0.0,0.0,0.0,0.0,-4.7625,0.0,0.0,-4.8408,-4.8798,-4.8779,-4.8759,-4.8798,-4.8876,-4.9675,-5.0085,-5.0124,-5.0143,0.0,0.0,0.0,0.0,0.0,0.0,-5.1394,-5.1394,-5.1394,-5.1394,-5.1394,-5.1394,-5.1394,-5.1394,-5.1394,-5.1394,-5.1394,-5.1394,-5.1394,-5.1394,-5.1375,0.0,0.0,0.0,0.0,0.0,0.0,0.0,0.0,0.0,0.0,0.0,0.0,0.0,0.0,0.0,0.0,0.0,0.0,0.0,0.0,-4.6288,0.0,0.0,0.0,0.0,0.0,0.0,0.0,0.0,0.0,0.0,-4.6289,-4.6289,-4.6289,-4.6289,0.0,0.0,0.0,0.0,-4.7617,-4.7715,-4.8398,-4.8945,-4.8945,-4.8945,-4.8926,-4.8887,0.0,0.0,-4.7734,-4.6914,-4.6348,-4.6308,-4.6289,-4.6289,-4.6289,-4.6289,-4.6289,-4.6289,-4.6289,-4.6289,-4.6289,-4.6307,-4.6301,-5.2539,0.0,0.0,0.0,0.0,-5.1029,-5.0892,-5.0681,-5.0681,-5.0682,-5.0683,-5.0683,0.0,0.0,0.0,0.0,0.0,0.0,-4.8447,-4.8466,-4.8681,-4.8798,-4.8798,-4.8798,-4.9111,-4.9733,-4.9987,-5.0416,-5.1004,-5.1023,-5.116,-5.1394,0.0,0.0,0.0,0.0,-5.1394,-5.1394,-5.1394,-5.1394,-5.1394,-5.1394,-5.1394,-5.1394,-5.1394,-5.1394,-5.1394,-5.1394,-5.1394,-5.1394,-5.1394,0.0,0.0,0.0,0.0,0.0,0.0,0.0,0.0,0.0,0.0,0.0,0.0,0.0,0.0,0.0,0.0,0.0,0.0,0.0,-4.6288,-4.6288,-4.6306,0.0,0.0,0.0,0.0,0.0,0.0,0.0,0.0,0.0,-4.6289,-4.6289,-4.6289,0.0,0.0,-4.6523,-4.7129,-4.7441,-4.8027,-4.9277,-4.9668,0.0,-4.9844,-4.9824,-4.9609,-4.9004,-4.8887,-4.8594,-4.7734,-4.7383,-4.7031,-4.6445,-4.6289,-4.6289,-4.6289,-4.6289,-4.6289,-4.6289,-4.6289,-4.6289,-4.6289,-4.6307,-4.6301,-5.3711,-5.2422,-5.2421,-5.2226,-5.1933,-5.1912,-5.1717,-5.1386,-5.1386,-5.1386,-5.1387,-5.1387,-5.1132,-5.066,-5.0263,0.0,0.0,0.0,-4.9306,-4.9325,-4.9657,-4.9833,-4.9833,-4.9833,-5.0087,-5.0612,-5.0612,-5.0887,-5.1394,-5.1394,-5.1394,-5.1394,0.0,0.0,-5.1394,-5.1394,-5.1394,-5.1394,-5.1394,-5.1394,-5.1394,-5.1394,-5.1394,-5.1394,-5.1394,-5.1394,-5.1394,-5.1394,-5.1394,-5.1394,-5.1394,-5.1394,0.0,0.0,0.0,0.0,0.0,0.0,0.0,0.0,0.0,0.0,0.0,-4.668,-4.6328,0.0,0.0,0.0,-4.6289,-4.6289,-4.6289,-4.6288,0.0,0.0,0.0,0.0,0.0,0.0,0.0,-4.6289,-4.6289,-4.6289,-4.6308,-4.6582,-4.6816,-4.6816,-4.6816,-4.7129,-4.8008,0.0,-4.9004,-5.0039,-5.0469,-5.0683,-5.0664,-5.0683,-5.0488,-4.998,-4.9609,-4.9277,-4.873,-4.8086,-4.7441,-4.6933,-4.6523,-4.6289,-4.6289,-4.6289,-4.6289,-4.6289,-4.6289,-4.6289,-4.6289,-4.6307,-4.6301,-5.4922,-5.4199,-5.4199,-5.3672,-5.2812,-5.2812,-5.2344,-5.1601,-5.1523,-5.1504,-5.1504,-5.1426,-5.1386,-5.134,-5.0564,0.0,-5.0204,-5.0221,-5.0202,-5.0241,-5.1023,-5.1394,-5.1394,-5.1375,-5.1394,-5.1394,-5.1394,-5.1394,-5.1394,-5.1394,-5.1394,-5.1396,-5.1396,-5.1396,-5.1394,-5.1394,-5.1394,-5.1394,-5.1394,-5.1414,-5.1511,-5.1511,-5.1492,-5.1511,-5.1433,-5.1394,-5.1394,-5.1394,-5.1394,-5.1394,-5.1394,-5.1394,-5.1394,0.0,0.0,0.0,0.0,0.0,0.0,0.0,0.0,0.0,0.0,0.0,0.0,0.0,0.0,0.0,-4.6328,0.0,-4.6289,-4.6289,0.0,0.0,0.0,-4.6289,-4.6289,-4.6289,-4.6289,-4.6289,0.0,0.0,-4.6406,-4.7168,-4.7734,-4.7812,-4.7734,-4.8008,-4.8887,-4.9648,-5.0215,-5.0332,-5.0918,-5.1367,-5.1328,-5.1328,-5.1308,-5.123,-5.0781,-5.0273,-5.0058,-4.8965,-4.793,-4.7715,-4.6992,-4.6426,-4.6406,-4.6406,-4.6289,-4.6289,-4.6289,-4.6289,-4.6289,-4.6287,-4.6302,-5.6172,-5.5996,-5.5976,-5.5078,-5.3691,-5.3691,-5.3574,-5.332,-5.2676,-5.2402,-5.2344,-5.1699,-5.1386,-5.1384,-5.1178,-5.1093,-5.1094,-5.1105,-5.1082,-5.1102,-5.1297,-5.1394,-5.1394,-5.1394,-5.1394,-5.1394,-5.1394,-5.1394,-5.1394,-5.1402,-5.1387,-5.1387,-5.1391,-5.1389,-5.1394,-5.1394,-5.1394,-5.1394,-5.1394,-5.1726,-5.2351,-5.2392,-5.2392,-5.2392,-5.1746,-5.1394,-5.1394,-5.1394,-5.1394,-5.1394,-5.1394,-5.1394,-5.1394,-5.1394,0.0,0.0,0.0,0.0,0.0,0.0,0.0,0.0,0.0,-4.8515,-4.8301,0.0,-4.8008,0.0,-4.668,-4.6289,-4.6289,-4.6289,0.0,0.0,-4.6289,-4.6289,-4.6289,-4.6289,-4.6289,-4.6289,-4.6875,-4.7305,-4.7285,-4.8047,-4.8828,-4.9473,-4.9004,-4.8887,-4.9746,-5.0058,-5.043,-5.0976,-5.1269,-5.1387,-5.1387,-5.1387,-5.1387,-5.1387,-5.1211,-5.0898,-5.0312,-4.9902,-4.9375,-4.8711,-4.7871,-4.7363,-4.7305,-4.6777,-4.6348,-4.6289,-4.6289,-4.6289,-4.6289,-4.6288,-4.6305,-5.6621,-5.6621,-5.6621,-5.6035,-5.5137,-5.4746,-5.4355,-5.3965,-5.3476,-5.3281,-5.3203,-5.2363,-5.1757,-5.1404,-5.1398,-5.1394,-5.1394,-5.139,-5.1385,-5.1402,-5.1402,-5.1398,-5.1394,-5.1394,-5.1394,-5.1394,-5.14,-5.1402,-5.1402,-5.139,-5.1394,-5.1394,-5.1397,-5.1395,-5.1407,-5.1797,-5.1971,-5.1986,-5.2353,-5.28,-5.3249,-5.3268,-5.3288,-5.3249,-5.2429,-5.198,-5.198,-5.159,-5.1394,-5.1394,-5.1394,-5.1394,-5.1394,-5.1394,-5.1394,0.0,0.0,0.0,0.0,0.0,0.0,0.0,0.0,0.0,0.0,0.0,-4.8691,-4.8223,-4.7402,-4.6875,-4.6875,-4.6523,-4.6289,-4.6289,-4.6289,-4.6289,-4.6289,-4.6641,-4.6894,-4.6875,-4.7637,-4.8183,-4.8203,-4.8945,-4.9648,-5.0137,-5.0098,-5.0176,-5.0625,-5.0723,-5.0898,-5.1328,-5.1387,-5.1387,-5.1387,-5.1387,-5.1387,-5.1387,-5.1387,-5.123,-5.0801,-5.043,-5.0019,-4.9531,-4.8769,-4.8183,-4.8164,-4.748,-4.6894,-4.6836,-4.6562,-4.6328,-4.6289,-4.6289,-4.6306,-5.6699,-5.6621,-5.6621,-5.6621,-5.6562,-5.5781,-5.5039,-5.4336,-5.4219,-5.4101,-5.3965,-5.3202,-5.244,-5.1737,-5.1734,-5.1731,-5.1731,-5.173,-5.1728,-5.1743,-5.1723,-5.1719,-5.173,-5.173,-5.173,-5.173,-5.1719,-5.1665,-5.1567,-5.1573,-5.1516,-5.1399,-5.14,-5.1439,-5.1595,-5.2435,-5.2881,-5.2874,-5.3725,-5.4168,-5.4168,-5.4166,-5.4166,-5.4127,-5.321,-5.2704,-5.2685,-5.1863,-5.1394,-5.1394,-5.1394,-5.1394,-5.1394,-5.1394,-5.1394,0.0,-5.1394,0.0,0.0,0.0,0.0,0.0,0.0,0.0,0.0,-4.9121,-4.9062,-4.9062,-4.8281,-4.7773,-4.7773,-4.707,-4.6621,-4.6621,-4.6621,-4.6621,-4.668,-4.7305,-4.7773,-4.7773,-4.8516,-4.9082,-4.9101,-4.9824,-5.0351,-5.043,-5.0898,-5.125,-5.1367,-5.1348,-5.1348,-5.1387,-5.1387,-5.1387,-5.1387,-5.1387,-5.1387,-5.1387,-5.1387,-5.1387,-5.1367,-5.082,-5.0351,-5.0273,-4.9648,-4.9082,-4.9062,-4.8359,-4.7754,-4.7558,-4.6973,-4.6484,-4.6328,-4.6289,-4.6288,-5.7246,-5.6621,-5.6621,-5.6621,-5.6582,-5.6426,-5.625,-5.6055,-5.5351,-5.4648,-5.4004,-5.3828,-5.3672,-5.3515,-5.3514,-5.3513,-5.3513,-5.351,-5.3507,-5.3487,-5.3506,-5.3506,-5.3505,-5.3505,-5.3505,-5.3505,-5.3506,-5.3135,-5.2452,-5.2457,-5.2087,-5.1404,-5.1386,-5.1757,-5.2461,0.0,0.0,0.0,-5.4613,-5.5058,-5.5058,-5.505,-5.5066,-5.5005,-5.3524,0.0,-5.2685,-5.1882,-5.1394,-5.1394,-5.1394,0.0,0.0,0.0,0.0,0.0,0.0,0.0,0.0,0.0,0.0,0.0,-5.1266,-5.1112,-5.0937,-5.0332,-4.9961,-4.9941,-4.916,-4.8652,-4.8633,-4.8516,-4.8398,-4.8418,-4.8398,-4.8398,-4.8418,-4.8555,-4.8652,-4.8672,-4.9414,-4.9961,-5.0019,-5.0664,-5.1152,-5.1133,-5.1308,-5.1387,-5.1387,-5.1387,-5.1387,-5.1387,-5.1387,-5.1387,-5.1387,-5.1387,-5.1387,-5.1387,-5.1387,-5.1387,-5.1367,-5.1289,-5.1152,-5.1133,-5.0508,-4.9961,-4.9941,-4.9238,-4.8457,-4.7754,-4.75,-4.7148,-4.6465,-4.6308,-4.6289,-5.7402,-5.6621,-5.6621,-5.6621,0.0,-5.6621,-5.6621,-5.6582,-5.6133,-5.5449,-5.4648,-5.4629,-5.4414,-5.3984,-5.3984,-5.3984,-5.3984,-5.3983,-5.3982,-5.398,-5.398,-5.398,-5.3997,-5.3997,-5.3997,-5.3997,-5.3979,-5.3766,-5.3355,-5.3358,-5.3105,-5.2695,-5.2676,-5.291,-5.3359,-5.4199,-5.4863,-5.5288,-5.5713,-5.5942,-5.5938,-5.5952,-5.5929,-5.5923,-5.4674,0.0,0.0,0.0,0.0,0.0,0.0,0.0,0.0,-5.1394,0.0,-5.1394,-5.1394,-5.1394,-5.1394,-5.1385,-5.1393,-5.1398,-5.1385,-5.1386,-5.1387,-5.1035,-5.0781,-5.0781,-5.0019,-4.9531,-4.9531,-4.916,-4.8887,-4.8887,-4.8887,-4.8887,-4.8926,-4.9297,-4.9531,-4.9609,-5.0293,-5.0801,-5.0781,-5.1113,-5.1387,-5.1387,-5.1387,-5.1387,-5.1387,-5.1387,-5.1387,-5.1387,-5.1387,-5.1387,-5.1387,-5.1387,-5.1387,-5.1387,-5.1387,-5.1387,-5.1387,-5.1387,-5.1387,-5.1367,-5.1055,-5.0801,-5.0742,-5.0117,-4.9394,-4.8965,-4.8535,-4.7969,-4.7129,-4.6601,-4.6289,-5.7637,-5.6816,-5.668,-5.6621,-5.6621,-5.6621,-5.6621,-5.6621,0.0,0.0,0.0,-5.5527,-5.5137,-5.4473,-5.4453,-5.4453,-5.4453,-5.4453,-5.4472,-5.4472,-5.4452,-5.4451,-5.4467,-5.4468,-5.4448,-5.4468,-5.4451,-5.4374,-5.4237,-5.4238,-5.4141,-5.4004,-5.3984,-5.4082,-5.4258,-5.5098,-5.5879,-5.6561,-5.6616,-5.6611,-5.6606,-5.6603,-5.6618,-5.6608,-5.5749,-5.4888,-5.4029,-5.3171,-5.2292,-5.1453,-5.1394,-5.1394,-5.1394,-5.1394,-5.1394,-5.1394,-5.1394,-5.1394,-5.1394,-5.1385,-5.1395,-5.1401,-5.1386,-5.1387,-5.1387,-5.1387,-5.1387,-5.1387,-5.0801,-5.041,-5.041,-4.9766,-4.9336,-4.9336,-4.9336,-4.9355,-4.9394,-4.9941,-5.041,-5.0488,-5.0976,-5.1387,-5.1367,-5.1367,-5.1387,-5.1387,-5.1387,-5.1387,-5.1387,-5.1387,-5.1387,-5.1387,-5.1387,-5.1387,-5.1387,-5.1387,-5.1387,-5.1387,-5.1387,-5.1387,-5.1387,-5.1387,-5.1387,-5.1387,-5.1387,-5.1367,-5.1328,-5.084,-5.0371,-5.0215,-4.9629,-4.8867,-4.8008,-4.7285,-4.6758,-5.8515,-5.7656,-5.6914,-5.6621,-5.6621,-5.6621,-5.6621,-5.6621,-5.6621,-5.6543,-5.6406,-5.6406,-5.6367,-5.625,-5.625,-5.623,-5.623,-5.623,-5.623,-5.623,-5.625,-5.623,-5.623,-5.623,-5.623,-5.623,-5.6211,-5.5859,-5.5195,-5.5117,-5.4746,-5.4101,-5.3984,-5.4375,-5.5137,-5.5996,-5.6484,-5.6601,-5.662,-5.6618,-5.6617,-5.6609,-5.6621,-5.6561,-5.5753,-5.4888,-5.401,-5.3171,-5.2292,-5.1472,-5.1394,-5.1394,-5.1394,-5.1394,-5.1394,-5.1394,-5.1394,-5.1394,-5.1394,-5.139,-5.1401,-5.1386,-5.1387,-5.1387,-5.1387,-5.1387,-5.1387,-5.1387,-5.125,-5.123,-5.123,-5.1055,-5.0937,-5.0976,-5.1035,-5.1035,-5.0957,-5.1074,-5.1172,-5.1172,-5.1308,-5.1387,-5.1387,-5.1387,-5.1387,-5.1387,-5.1484,-5.1445,-5.1484,-5.1387,-5.1387,-5.1387,-5.1387,-5.1387,-5.1484,-5.1406,-5.1445,-5.1387,-5.1387,-5.1387,-5.1387,-5.1387,-5.1387,-5.1387,-5.1387,-5.1387,-5.1387,-5.1328,-5.0918,-5.0449,-5.0098,-4.9707,-4.8906,-4.8535,-4.8008,-5.8691,-5.7832,-5.6973,-5.6621,-5.6621,-5.6621,-5.6621,-5.6621,-5.6621,-5.6621,-5.6621,-5.6621,-5.6621,-5.6621,-5.6621,-5.6621,-5.6621,-5.6621,-5.6621,-5.6621,-5.6621,-5.6621,-5.6621,-5.6621,-5.6621,-5.6621,-5.6621,-5.6406,-5.6035,-5.5996,-5.582,-5.543,-5.541,-5.5625,-5.6015,-5.6406,-5.6621,-5.6621,-5.6621,-5.662,-5.6619,-5.6615,-5.6611,-5.6588,-5.619,-5.5345,-5.4037,-5.3604,-5.278,-5.1453,-5.1394,-5.1394,-5.1394,-5.1394,-5.1394,-5.1394,-5.1394,-5.1396,-5.1384,-5.1397,-5.1385,-5.1387,-5.1387,-5.1387,-5.1387,-5.1387,-5.1387,-5.1387,-5.1387,-5.1387,-5.1387,-5.1387,-5.1387,-5.1387,-5.1387,-5.1387,-5.1387,-5.1387,-5.1387,-5.1387,-5.1387,-5.1387,-5.1387,-5.1387,-5.1387,-5.1426,-5.1758,-5.207,-5.2129,-5.25,-5.2617,-5.2266,-5.25,-5.2558,-5.2207,-5.2109,-5.1914,-5.1523,-5.1406,-5.1387,-5.1387,-5.1406,-5.1406,-5.1387,-5.1387,-5.1387,-5.1387,-5.1387,-5.1211,-5.1035,-5.084,-5.0508,-4.9824,-4.9258,-4.8613,-5.8808,-5.8105,-5.7051,-5.6621,-5.6621,-5.6621,-5.6621,-5.6621,-5.6621,-5.6621,-5.6621,-5.6621,-5.6621,-5.6621,-5.6621,-5.6621,-5.6621,-5.6621,-5.6621,-5.662,-5.6621,-5.6621,-5.6621,-5.6621,-5.6621,-5.6621,-5.6621,-5.6621,-5.6621,-5.6621,-5.6621,-5.6601,-5.6621,-5.6621,-5.6621,-5.6621,-5.6621,-5.6621,-5.6621,-5.6621,-5.662,-5.6619,-5.6618,-5.6595,-5.6391,-5.5586,-5.4122,-5.3821,-5.2995,-5.1531,-5.1394,-5.1394,-5.1394,-5.1394,-5.1394,-5.1394,-5.1394,-5.14,-5.1391,-5.1401,-5.1386,-5.1387,-5.1387,-5.1387,-5.1387,-5.1387,-5.1387,-5.1387,-5.1387,-5.1387,-5.1387,-5.1387,-5.1387,-5.1387,-5.1387,-5.1387,-5.1387,-5.1387,-5.1387,-5.1387,-5.1387,-5.1387,-5.1387,-5.1387,-5.1484,-5.1777,-5.2305,-5.2715,-5.3027,-5.373,-5.3926,-5.3613,-5.3711,-5.3672,-5.3086,-5.2988,-5.2734,-5.2051,-5.2051,-5.2031,-5.1894,-5.1719,-5.1562,-5.1504,-5.1387,-5.1387,-5.1387,-5.1387,-5.1367,-5.1308,-5.1289,-5.1152,-5.0586,-5.0039,-4.9414,-5.914,-5.8828,-5.7305,-5.6621,-5.6621,-5.6621,-5.6621,-5.6621,-5.6621,-5.6621,-5.6621,-5.6621,-5.6621,-5.6621,-5.662,-5.6619,-5.6619,-5.6616,-5.6614,-5.6614,-5.6618,-5.6619,-5.662,-5.6621,-5.6621,-5.6621,-5.6621,-5.6621,-5.6621,-5.6621,-5.6621,-5.6621,-5.6621,-5.6621,-5.6621,-5.6621,-5.6621,-5.6621,-5.6621,-5.6621,-5.6621,-5.662,-5.6619,-5.6579,-5.5848,-5.4983,-5.4045,-5.3235,-5.239,-5.1511,-5.1394,-5.1394,-5.1394,-5.1394,-5.1394,-5.1394,-5.1394,-5.1402,-5.1396,-5.1383,-5.1386,-5.1387,-5.1387,-5.1387,-5.1387,-5.1387,-5.1387,-5.1387,-5.1387,-5.1387,-5.1387,-5.1387,-5.1387,-5.1387,-5.1387,-5.1387,-5.1387,-5.1387,-5.1387,-5.1387,-5.1387,-5.1387,-5.1387,-5.1465,-5.1777,-5.25,-5.2851,-5.3223,-5.3828,-5.4609,-5.5156,-5.4902,-5.4551,-5.4101,-5.3906,-5.3887,-5.375,-5.3672,-5.3691,-5.332,-5.2793,-5.2539,-5.2383,-5.1777,-5.1504,-5.1543,-5.1406,-5.1387,-5.1387,-5.1387,-5.1387,-5.1348,-5.1269,-5.1094,-5.0742,-5.9629,-5.9101,-5.789,-5.707,-5.664,-5.6621,-5.6621,-5.6621,-5.6621,-5.6621,-5.6621,-5.662,-5.662,-5.662,-5.6619,-5.6618,-5.6615,-5.6613,-5.6612,-5.6612,-5.6617,-5.6619,-5.6619,-5.6621,-5.6621,-5.6621,-5.6621,-5.6621,-5.6621,-5.6621,-5.6621,-5.6621,-5.6621,-5.6621,-5.6621,-5.6621,-5.6621,-5.6621,-5.6621,-5.6621,-5.6621,-5.6621,-5.6621,-5.6562,-5.6247,-5.5402,-5.4129,-5.3653,-5.2845,-5.1531,-5.1394,-5.1394,-5.1394,-5.1394,-5.1394,-5.1394,-5.1385,-5.1393,-5.1398,-5.1385,-5.1386,-5.1387,-5.1387,-5.1387,-5.1387,-5.1387,-5.1387,-5.1387,-5.1387,-5.1387,-5.1387,-5.1387,-5.1387,-5.1387,-5.1387,-5.1387,-5.1387,-5.1387,-5.1387,-5.1387,-5.1387,-5.1406,-5.1484,-5.1855,-5.25,-5.334,-5.3848,-5.4336,-5.4765,-5.5508,-5.5996,-5.6035,-5.5742,-5.5332,-5.4922,-5.4765,-5.457,-5.416,-5.3984,-5.375,-5.3633,-5.3457,-5.3183,-5.2324,-5.2148,-5.1875,-5.1445,-5.1406,-5.1387,-5.1387,-5.1387,-5.1387,-5.1387,-5.1387,-5.1211,-5.9941,-5.9121,-5.8262,-5.7539,-5.6992,-5.7226,-5.7305,-5.7305,-5.7324,-5.7305,-5.7324,-5.7323,-5.7164,-5.6909,-5.6713,-5.6613,-5.661,-5.6607,-5.6606,-5.6607,-5.6613,-5.6616,-5.6618,-5.662,-5.6621,-5.6621,-5.6621,-5.6621,-5.6621,-5.6621,-5.6621,-5.6621,-5.6621,-5.6621,-5.6621,-5.6621,-5.6621,-5.6621,-5.6621,-5.6621,-5.6621,-5.6621,-5.6621,-5.6582,-5.6366,-5.562,-5.4426,-5.4125,-5.3315,-5.1843,-5.1765,-5.1648,-5.1414,-5.1394,-5.1394,-5.1396,-5.139,-5.1396,-5.1396,-5.1384,-5.1386,-5.1386,-5.1386,-5.1386,-5.1386,-5.1387,-5.1387,-5.1387,-5.1387,-5.1387,-5.1387,-5.1387,-5.1387,-5.1387,-5.1387,-5.1387,-5.1387,-5.1387,-5.1387,-5.1406,-5.166,-5.1875,-5.2148,-5.2695,-5.3379,-5.4238,-5.4863,-5.5449,-5.5644,-5.6191,-5.6582,-5.6621,-5.6582,-5.6328,-5.5781,-5.5664,-5.5293,-5.5019,-5.4824,-5.4785,-5.4453,-5.4355,-5.4062,-5.3281,-5.2988,-5.2558,-5.2031,-5.1777,-5.1387,-5.1387,-5.1387,-5.1387,-5.1387,-5.1387,-5.1387,-5.9922,-5.914,-5.8262,-5.793,-5.789,-5.8652,-5.9043,-5.8906,-5.9004,-5.9043,-5.8963,-5.8982,-5.8549,-5.7718,-5.7013,-5.6621,-5.6619,-5.6612,-5.6608,-5.661,-5.6619,-5.6606,-5.6612,-5.6618,-5.662,-5.6621,-5.6621,-5.6621,-5.6621,-5.6621,-5.6621,-5.6621,-5.6621,-5.6621,-5.6621,-5.6621,-5.6621,-5.6621,-5.6621,-5.6621,-5.6621,-5.6621,-5.6621,-5.6543,-5.5837,-5.5404,-5.5128,-5.4431,-5.358,-5.2685,-5.2646,-5.2292,-5.157,-5.1492,-5.1511,-5.1494,-5.1483,-5.1468,-5.1508,-5.1552,-5.1536,-5.1478,-5.1618,-5.1483,-5.1639,-5.166,-5.166,-5.1465,-5.1621,-5.1582,-5.1562,-5.1504,-5.1406,-5.1387,-5.1387,-5.1387,-5.1445,-5.1543,-5.1406,-5.1621,-5.2226,-5.291,-5.3691,-5.3906,-5.4355,-5.498,-5.5312,-5.5605,-5.625,-5.6543,-5.6601,-5.6621,-5.6621,-5.6582,-5.6523,-5.6328,-5.6367,-5.6133,-5.5859,-5.6074,-5.5625,-5.5156,-5.4687,-5.4141,-5.3555,-5.3047,-5.2617,-5.2129,-5.1582,-5.1387,-5.1387,-5.1387,-5.1387,-5.1387,-5.1387,-6.0723,-5.9902,-5.9082,-5.873,-5.8769,-5.9062,-5.9199,-5.9199,-5.9199,-5.9199,-5.9197,-5.9156,-5.8935,-5.8574,-5.7746,-5.7081,-5.663,-5.6608,-5.6604,-5.6606,-5.6616,-5.6606,-5.6612,-5.6617,-5.662,-5.6621,-5.6621,-5.6621,-5.6621,-5.6621,-5.6621,-5.6621,-5.6621,-5.6621,-5.6621,-5.6621,-5.6621,-5.6621,-5.6621,-5.6621,-5.6621,-5.6621,-5.662,-5.6601,-5.6306,-5.5854,-5.5319,-5.5001,-5.4428,-5.3561,-5.3522,-5.3385,-5.3112,-5.3053,-5.3073,-5.3073,-5.3063,-5.3068,-5.3069,-5.3055,-5.3057,-5.3057,-5.3059,-5.3002,-5.308,-5.3062,-5.3063,-5.3045,-5.3065,-5.3066,-5.2832,-5.2109,-5.1406,-5.1406,-5.1406,-5.168,-5.207,-5.2246,-5.2441,-5.2949,-5.3398,-5.3867,-5.4551,-5.4824,-5.5176,-5.5937,-5.6113,-5.6269,-5.6484,-5.6621,-5.6621,-5.6621,-5.6621,-5.6621,-5.6601,-5.6601,-5.6582,-5.6582,-5.6504,-5.6445,-5.6133,-5.6035,-5.5664,-5.5058,-5.4355,-5.3652,-5.3242,-5.2207,-5.168,-5.1523,-5.1504,-5.1387,-5.1387,-5.1387,-5.1387,-6.0957,-6.0371,-5.9824,-5.959,-5.9629,-5.9883,-6.0,-6.0,-6.0019,-5.9999,-5.9996,-5.9952,-5.9787,-5.9466,-5.8894,-5.8187,-5.7365,-5.6899,-5.6604,-5.6606,-5.6616,-5.6606,-5.6612,-5.6617,-5.662,-5.6621,-5.6621,-5.6621,-5.6621,-5.6621,-5.6621,-5.6621,-5.6621,-5.6621,-5.6621,-5.6621,-5.6621,-5.6621,-5.662,-5.6621,-5.662,-5.6618,-5.6616,-5.6615,-5.6615,-5.6339,-5.5744,-5.5721,-5.5306,-5.4559,-5.442,-5.4283,-5.4029,-5.399,-5.399,-5.399,-5.3977,-5.3982,-5.3982,-5.3987,-5.3969,-5.3988,-5.3971,-5.3992,-5.3992,-5.3993,-5.3978,-5.3981,-5.3982,-5.3983,-5.3789,-5.293,-5.2246,-5.2246,-5.2226,-5.2461,-5.3008,-5.3125,-5.3535,-5.416,-5.4375,-5.4824,-5.5508,-5.5683,-5.5996,-5.6562,-5.6621,-5.6621,-5.6621,-5.6621,-5.6621,-5.6621,-5.6621,-5.6621,-5.6621,-5.6621,-5.6621,-5.6621,-5.6621,-5.6621,-5.6621,-5.6621,-5.6445,-5.5879,-5.5215,-5.4492,-5.3574,-5.248,-5.2012,-5.1836,-5.1543,-5.1387,-5.1387,-5.1387,-5.1484,-6.0469,-6.0469,-6.041,-6.041,-6.0527,-6.1152,-6.1601,-6.1504,-6.1542,-6.1442,-6.1377,-6.1546,-6.103,-6.0512,-6.0178,-5.9807,-5.8868,-5.7543,-5.6821,-5.6743,-5.6635,-5.6663,-5.673,-5.6754,-5.6835,-5.6875,-5.6738,-5.6719,-5.6855,-5.6797,-5.6738,-5.668,-5.664,-5.6621,-5.6621,-5.662,-5.6619,-5.6618,-5.6616,-5.6613,-5.6612,-5.6612,-5.661,-5.6605,-5.6603,-5.6563,-5.6541,-5.6534,-5.6118,-5.5435,-5.5298,-5.4908,-5.4342,-5.4244,-5.4127,-5.4225,-5.4127,-5.4088,-5.4127,-5.4207,-5.4287,-5.4307,-5.4137,-5.4298,-5.4356,-5.4282,-5.4269,-5.4312,-5.4275,-5.4178,-5.4238,-5.4101,-5.3906,-5.3945,-5.3691,-5.375,-5.3965,-5.4043,-5.4355,-5.5098,-5.5312,-5.5683,-5.6308,-5.6465,-5.6504,-5.6562,-5.6621,-5.6621,-5.6621,-5.6621,-5.6621,-5.6621,-5.6621,-5.6621,-5.6621,-5.6621,-5.6621,-5.6621,-5.6621,-5.6621,-5.6621,-5.6621,-5.6621,-5.6152,-5.5547,-5.4844,-5.4355,-5.3359,-5.2891,-5.2598,-5.207,-5.1816,-5.2012,-5.2129,-5.1797,-6.1289,-6.1289,-6.1289,-6.1289,-6.1308,-6.1601,-6.1699,-6.1699,-6.1718,-6.1714,-6.1709,-6.1701,-6.1536,-6.1195,-6.0686,-6.0256,-5.9905,-5.8812,-5.8011,-5.7447,-5.6889,-5.6977,-5.7413,-5.7496,-5.7812,-5.8301,-5.8379,-5.8398,-5.8242,-5.7793,-5.748,-5.7402,-5.6894,-5.662,-5.6678,-5.6617,-5.6614,-5.6614,-5.6613,-5.6612,-5.6611,-5.6607,-5.6603,-5.6621,-5.6614,-5.661,-5.661,-5.6608,-5.6489,-5.6177,-5.6196,-5.6059,-5.5825,-5.5786,-5.5784,-5.5784,-5.5786,-5.5806,-5.5786,-5.5747,-5.5728,-5.5767,-5.5769,-5.579,-5.579,-5.5736,-5.5725,-5.5753,-5.5775,-5.5778,-5.5781,-5.5781,-5.5273,-5.4141,-5.3984,-5.4336,-5.4863,-5.5371,-5.5879,-5.6113,-5.6191,-5.6348,-5.6523,-5.6621,-5.6621,-5.6621,-5.6621,-5.6621,-5.6621,-5.6621,-5.6621,-5.6621,-5.6621,-5.6621,-5.6621,-5.6621,-5.6621,-5.6621,-5.6621,-5.6621,-5.6621,-5.6621,-5.6621,-5.6426,-5.582,-5.5371,-5.4883,-5.4336,-5.3808,-5.3574,-5.3281,-5.3183,-5.3183,-5.2969,-5.2617,-6.1699,-6.1699,-6.1699,-6.1699,-6.1699,-6.1699,-6.1699,-6.1699,-6.1716,-6.1712,-6.1708,-6.1717,-6.1707,-6.1583,-6.1115,-6.0881,-6.0783,-5.9966,-5.9287,-5.8703,-5.7911,-5.7879,-5.8334,-5.8397,-5.8632,-5.9082,-5.9199,-5.9199,-5.918,-5.8691,-5.8398,-5.8262,-5.7811,-5.7575,-5.7475,-5.7198,-5.7038,-5.7019,-5.6782,-5.6605,-5.6603,-5.6619,-5.6616,-5.6614,-5.6608,-5.6606,-5.6604,-5.6604,-5.6604,-5.6604,-5.6604,-5.6604,-5.6604,-5.6584,-5.6604,-5.6604,-5.6604,-5.6584,-5.6604,-5.6506,-5.6604,-5.6604,-5.6604,-5.6584,-5.6586,-5.6608,-5.6619,-5.661,-5.6556,-5.6618,-5.6582,-5.6601,-5.6055,-5.5117,-5.5019,-5.5215,-5.5781,-5.625,-5.6543,-5.6562,-5.6562,-5.6621,-5.6621,-5.6621,-5.6621,-5.6621,-5.6621,-5.6621,-5.6621,-5.6621,-5.6621,-5.6621,-5.6621,-5.6621,-5.6621,-5.6621,-5.6621,-5.6621,-5.6621,-5.6621,-5.6621,-5.6621,-5.6601,-5.6562,-5.6152,-5.6094,-5.5664,-5.5019,-5.4473,-5.4414,-5.4316,-5.3887,-5.3633,-5.3711,-5.3476,-6.1699,-6.1699,-6.1699,-6.1699,-6.1699,-6.1699,-6.1699,-6.1699,-6.1714,-6.1709,-6.1705,-6.1711,-6.1701,-6.1698,-6.1583,-6.1566,-6.1547,-6.0874,-6.045,-6.0179,-5.9619,-5.9311,-5.9256,-5.9394,-5.9551,-5.9551,-5.9531,-5.9492,-5.9609,-5.9375,-5.9277,-5.9237,-5.908,-5.9117,-5.8762,-5.8228,-5.7874,-5.7793,-5.7141,-5.6766,-5.6745,-5.6606,-5.6606,-5.6606,-5.6606,-5.6604,-5.6604,-5.6604,-5.6604,-5.6604,-5.6604,-5.6604,-5.6604,-5.6604,-5.6604,-5.6604,-5.6604,-5.6604,-5.6604,-5.6604,-5.6604,-5.6604,-5.6604,-5.6606,-5.6608,-5.6616,-5.6605,-5.6612,-5.6617,-5.662,-5.6621,-5.6621,-5.6523,-5.6582,-5.6289,-5.6387,-5.6562,-5.6582,-5.6601,-5.6621,-5.6621,-5.6621,-5.6621,-5.6621,-5.6621,-5.6621,-5.6621,-5.6621,-5.6621,-5.6621,-5.6621,-5.6621,-5.6621,-5.6621,-5.6621,-5.6621,-5.6621,-5.6621,-5.6621,-5.6621,-5.6621,-5.6621,-5.6621,-5.6562,-5.6523,-5.6523,-5.6348,-5.5683,-5.5351,-5.5332,-5.4961,-5.4336,-5.4297,-5.457,-5.4433,-6.1699,-6.1699,-6.1699,-6.1699,-6.1699,-6.1699,-6.1699,-6.1699,-6.1714,-6.1709,-6.1705,-6.1709,-6.1701,-6.1701,-6.1709,-6.1713,-6.1618,-6.1449,-6.1358,-6.1342,-6.1168,-6.0623,-6.0351,-6.0742,-6.0996,-6.0957,-6.0879,-6.1055,-6.0976,-6.0371,-6.0078,-6.0058,-5.9588,-5.9274,-5.9078,-5.8936,-5.8775,-5.8653,-5.7908,-5.7493,-5.7389,-5.6899,-5.6604,-5.6604,-5.6604,-5.6604,-5.6604,-5.6604,-5.6604,-5.6604,-5.6604,-5.6604,-5.6604,-5.6604,-5.6604,-5.6604,-5.6604,-5.6604,-5.6604,-5.6604,-5.6604,-5.6604,-5.6604,-5.6608,-5.6616,-5.6619,-5.6609,-5.6615,-5.6618,-5.662,-5.6621,-5.6621,-5.6621,-5.6621,-5.6621,-5.6621,-5.6621,-5.6621,-5.6621,-5.6621,-5.6621,-5.6621,-5.6621,-5.6621,-5.6621,-5.6621,-5.6621,-5.6621,-5.6621,-5.6621,-5.6621,-5.6621,-5.6621,-5.6621,-5.6621,-5.6621,-5.6621,-5.6621,-5.6621,-5.6621,-5.6621,-5.6621,-5.6621,-5.6601,-5.6582,-5.6562,-5.6582,-5.6269,-5.623,-5.6055,-5.5918,-5.5508,-5.5762,-5.5996,-5.5527,-6.1699,-6.1699,-6.1699,-6.1699,-6.1699,-6.1699,-6.1699,-6.1699,-6.1716,-6.1712,-6.171,-6.1701,-6.1713,-6.1715,-6.1701,-6.1702,-6.1704,-6.171,-6.1695,-6.1697,-6.1659,-6.1367,-6.1152,-6.1543,-6.1699,-6.1699,-6.1699,-6.168,-6.1582,-6.1152,-6.0976,-6.0898,-6.0487,-6.027,-6.0288,-5.9817,-5.9639,-5.9499,-5.8794,-5.8341,-5.8273,-5.7551,-5.7176,-5.7016,-5.6821,-5.6604,-5.6604,-5.6604,-5.6604,-5.6604,-5.6604,-5.6604,-5.6604,-5.6604,-5.6604,-5.6604,-5.6604,-5.6604,-5.6604,-5.6604,-5.6604,-5.6604,-5.6604,-5.661,-5.6619,-5.6605,-5.6611,-5.6618,-5.662,-5.6621,-5.6621,-5.6621,-5.6621,-5.6621,-5.6621,-5.6621,-5.6621,-5.6621,-5.6621,-5.6621,-5.6621,-5.6621,-5.6621,-5.6621,-5.6621,-5.6621,-5.6621,-5.6621,-5.6621,-5.6621,-5.6621,-5.6621,-5.662,-5.6619,-5.6618,-5.6617,-5.6617,-5.6614,-5.6616,-5.6619,-5.6621,-5.6621,-5.6621,-5.6621,-5.6621,-5.6621,-5.6621,-5.6621,-5.6523,-5.6445,-5.6601,-5.6621,-5.6621,-5.6601,-5.6211,-6.1699,-6.1699,-6.1699,-6.1699,-6.1699,-6.1699,-6.1699,-6.1699,-6.1717,-6.1716,-6.1716,-6.1711,-6.1707,-6.1709,-6.1709,-6.171,-6.171,-6.1716,-6.1717,-6.1698,-6.1699,-6.1621,-6.1601,-6.1621,-6.1699,-6.1699,-6.1699,-6.1699,-6.168,-6.164,-6.166,-6.1562,-6.1561,-6.1638,-6.1304,-6.0834,-6.0559,-6.0383,-5.9679,-5.9266,-5.9083,-5.8435,-5.7983,-5.7855,-5.7445,-5.717,-5.7072,-5.6996,-5.7016,-5.6899,-5.6721,-5.6623,-5.6604,-5.6604,-5.6604,-5.6604,-5.6604,-5.6604,-5.6604,-5.6604,-5.6604,-5.6604,-5.6606,-5.669,-5.6798,-5.6883,-5.6967,-5.7205,-5.6894,-5.7109,-5.7129,-5.6992,-5.709,-5.7187,-5.7051,-5.6914,-5.6836,-5.6719,-5.6621,-5.6621,-5.6621,-5.6621,-5.6621,-5.6621,-5.6621,-5.6621,-5.6621,-5.6621,-5.6621,-5.6621,-5.662,-5.6618,-5.6618,-5.6617,-5.6614,-5.6611,-5.6612,-5.6612,-5.6615,-5.6621,-5.6621,-5.6621,-5.6621,-5.6621,-5.6621,-5.6621,-5.6621,-5.6621,-5.6621,-5.6621,-5.6621,-5.6621,-5.6621,-5.6621,-5.6387,-6.1699,-6.1699,-6.1699,-6.1699,-6.1699,-6.1699,-6.1699,-6.1699,-6.1718,-6.1717,-6.1716,-6.1712,-6.1709,-6.171,-6.1714,-6.1716,-6.1716,-6.1698,-6.1699,-6.1699,-6.1699,-6.1699,-6.1699,-6.1699,-6.1699,-6.1699,-6.1699,-6.1699,-6.1699,-6.1699,-6.1699,-6.1699,-6.1699,-6.1699,-6.164,-6.1484,-6.1405,-6.1267,-6.0544,-6.013,-5.9963,-5.9298,-5.8804,-5.8714,-5.8556,-5.8536,-5.8556,-5.8556,-5.8558,-5.8265,-5.7404,-5.6818,-5.6799,-5.676,-5.6779,-5.6801,-5.6721,-5.6682,-5.6643,-5.676,-5.6645,-5.6762,-5.6868,-5.6894,-5.7567,-5.7631,-5.7966,-5.8418,-5.8633,-5.8457,-5.8437,-5.8574,-5.8476,-5.8418,-5.8457,-5.8515,-5.8418,-5.7441,-5.6855,-5.668,-5.668,-5.6621,-5.6621,-5.6621,-5.6621,-5.6621,-5.6621,-5.6621,-5.662,-5.662,-5.6618,-5.6614,-5.6613,-5.6612,-5.6607,-5.6606,-5.6609,-5.6612,-5.6615,-5.6621,-5.6621,-5.6621,-5.6621,-5.6621,-5.6621,-5.6621,-5.6621,-5.6621,-5.6621,-5.6621,-5.6621,-5.6621,-5.6621,-5.6621,-5.6621,-6.1699,-6.1699,-6.1699,-6.1699,-6.1699,-6.1699,-6.1699,-6.1699,-6.1699,-6.1698,-6.1698,-6.1716,-6.1716,-6.1716,-6.1718,-6.1698,-6.1699,-6.1699,-6.1699,-6.1699,-6.1699,-6.1699,-6.1699,-6.1699,-6.1699,-6.1699,-6.1699,-6.1699,-6.1699,-6.1699,-6.1699,-6.1699,-6.1699,-6.1699,-6.1699,-6.1699,-6.168,-6.1621,-6.1288,-6.0993,-6.0885,-6.0181,-5.9433,-5.9185,-5.9122,-5.9122,-5.9063,-5.9083,-5.9083,-5.889,-5.8285,-5.7775,-5.7755,-5.7755,-5.7755,-5.7775,-5.7758,-5.7775,-5.7794,-5.7777,-5.7818,-5.7727,-5.7771,-5.8033,-5.8372,-5.8513,-5.867,-5.9062,-5.916,-5.918,-5.9199,-5.918,-5.9219,-5.9199,-5.9219,-5.9219,-5.9062,-5.8359,-5.7598,-5.7363,-5.7265,-5.6973,-5.6816,-5.6758,-5.6621,-5.6621,-5.6621,-5.662,-5.6619,-5.6618,-5.6613,-5.661,-5.6609,-5.6605,-5.6619,-5.6619,-5.6606,-5.6611,-5.6615,-5.6619,-5.6621,-5.6621,-5.6621,-5.6621,-5.6621,-5.6621,-5.6621,-5.6621,-5.6621,-5.6621,-5.6621,-5.6621,-5.6621,-5.6621,-5.6621,-6.1699,-6.1699,-6.1699,-6.1699,-6.1699,-6.1699,-6.1699,-6.1699,-6.1699,-6.1699,-6.1699,-6.1699,-6.1699,-6.1699,-6.1699,-6.1699,-6.1699,-6.1699,-6.1699,-6.1699,-6.1699,-6.1699,-6.1699,-6.1699,-6.1699,-6.1699,-6.1699,-6.1699,-6.1699,-6.1699,-6.1699,-6.1699,-6.1699,-6.1699,-6.1699,-6.1699,-6.1699,-6.168,-6.1621,-6.1581,-6.1535,-6.0907,-6.0295,-5.9887,-5.9766,-5.9766,-5.9785,-5.9727,-5.961,-5.9495,-5.9493,-5.9493,-5.9434,-5.9141,-5.9122,-5.9044,-5.8887,-5.8829,-5.879,-5.8909,-5.8953,-5.912,-5.9065,-5.9168,-5.9292,-5.9412,-5.955,-5.9668,-5.9824,-5.9805,-5.9609,-5.9805,-5.9765,-5.9707,-5.9629,-5.957,-5.957,-5.9551,-5.916,-5.8281,-5.8066,-5.7832,-5.7305,-5.7012,-5.6816,-5.664,-5.662,-5.6618,-5.6617,-5.6614,-5.6609,-5.6603,-5.6619,-5.6619,-5.6612,-5.6618,-5.6605,-5.6611,-5.6616,-5.662,-5.6621,-5.6621,-5.6621,-5.6621,-5.6621,-5.6621,-5.6621,-5.6621,-5.6621,-5.6621,-5.6621,-5.6621,-5.6621,-5.6621,-5.6621,-6.1699,-6.1699,-6.1699,-6.1699,-6.1699,-6.1699,-6.1699,-6.1699,-6.1699,-6.1699,-6.1699,-6.1699,-6.1699,-6.1699,-6.1699,-6.1699,-6.1699,-6.1699,-6.1699,-6.1699,-6.1699,-6.1699,-6.1699,-6.1699,-6.1699,-6.1699,-6.1699,-6.1699,-6.1699,-6.1699,-6.1699,-6.1699,-6.1699,-6.1699,-6.1699,-6.1699,-6.1699,-6.1699,-6.1699,-6.1699,-6.1634,-6.1493,-6.1291,-6.1,-6.0956,-6.1015,-6.1132,-6.121,-6.1269,-6.1269,-6.1269,-6.121,-6.0859,-5.9902,-5.9375,-5.9336,-5.9375,-5.9454,-5.9414,-5.9241,-5.9169,-5.912,-5.9284,-5.9622,-6.0017,-6.0234,-6.0469,-6.0898,-6.1094,-6.1191,-6.1269,-6.1035,-6.1211,-6.1211,-6.1094,-6.1113,-6.1113,-6.0976,-6.0527,-5.9414,-5.9062,-5.8574,-5.7871,-5.7285,-5.707,-5.6815,-5.6618,-5.6614,-5.661,-5.6606,-5.6619,-5.6614,-5.6608,-5.6608,-5.6606,-5.6616,-5.6605,-5.6611,-5.6616,-5.662,-5.6621,-5.6621,-5.6621,-5.6621,-5.6621,-5.6621,-5.6621,-5.6621,-5.6621,-5.6621,-5.6621,-5.6621,-5.6621,-5.662,-5.662,-6.1699,-6.1699,-6.1699,-6.1699,-6.1699,-6.1699,-6.1699,-6.1699,-6.1699,-6.1699,-6.1699,-6.1699,-6.1699,-6.1699,-6.1699,-6.1699,-6.1699,-6.1699,-6.1699,-6.1699,-6.1699,-6.1699,-6.1699,-6.1699,-6.1699,-6.1699,-6.1699,-6.1699,-6.1699,-6.1699,-6.1699,-6.1699,-6.1699,-6.1699,-6.1699,-6.1699,-6.1699,-6.1699,-6.1699,-6.1698,-6.1713,-6.1708,-6.1715,-6.1705,-6.1698,-6.1698,-6.1698,-6.1698,-6.1679,-6.1679,-6.1679,-6.1698,-6.1444,-6.1037,-6.0412,-6.0371,-6.0371,-6.041,-6.0432,-6.0456,-6.0505,-6.0493,-6.0402,-6.0602,-6.0936,-6.1113,-6.125,-6.1543,-6.1699,-6.1699,-6.164,-6.1699,-6.1699,-6.1699,-6.1699,-6.1699,-6.1699,-6.1699,-6.1152,-6.041,-6.0058,-5.9316,-5.8066,-5.7617,-5.7363,-5.7048,-5.6693,-5.661,-5.6621,-5.6616,-5.6612,-5.661,-5.6606,-5.6606,-5.6608,-5.6619,-5.6606,-5.6611,-5.6621,-5.6621,-5.6621,-5.6621,-5.6621,-5.6621,-5.6621,-5.6621,-5.6621,-5.6621,-5.6621,-5.6621,-5.6621,-5.6621,-5.6621,-5.6619,-5.6618,-6.1699,-6.1699,-6.1699,-6.1699,-6.1699,-6.1699,-6.1699,-6.1699,-6.1699,-6.1699,-6.1699,-6.1699,-6.1699,-6.1699,-6.1699,-6.1699,-6.1699,-6.1699,-6.1699,-6.1699,-6.1699,-6.1699,-6.1699,-6.1699,-6.1699,-6.1699,-6.1699,-6.1699,-6.1699,-6.1699,-6.1699,-6.1699,-6.1699,-6.1699,-6.1699,-6.1699,-6.1699,-6.1699,-6.1699,-6.1699,-6.1715,-6.1705,-6.1711,-6.1701,-6.1698,-6.1698,-6.1698,-6.1698,-6.1698,-6.1698,-6.1698,-6.1698,-6.1698,-6.1698,-6.1698,-6.1698,-6.1698,-6.1701,-6.1647,-6.1594,-6.1427,-6.1398,-6.1617,-6.1659,-6.164,-6.1562,-6.166,-6.1699,-6.1699,-6.1699,-6.1699,-6.1699,-6.1699,-6.1699,-6.1699,-6.1699,-6.1699,-6.1699,-6.1699,-6.1211,-6.0918,-6.0176,-5.9042,-5.8241,-5.8064,-5.7278,-5.6921,-5.6624,-5.6616,-5.6612,-5.6608,-5.6606,-5.6604,-5.6604,-5.6612,-5.6603,-5.6609,-5.6611,-5.6621,-5.6621,-5.6621,-5.6621,-5.6621,-5.6621,-5.6621,-5.6621,-5.6621,-5.6621,-5.6621,-5.6621,-5.6621,-5.6621,-5.662,-5.6617,-5.6613,-6.1699,-6.1699,-6.1699,-6.1699,-6.1699,-6.1699,-6.1699,-6.1699,-6.1699,-6.1699,-6.1699,-6.1699,-6.1699,-6.1699,-6.1699,-6.1699,-6.1719,-6.1836,-6.1855,-6.1875,-6.1933,-6.1992,-6.1816,-6.1699,-6.1992,-6.207,-6.1953,-6.1699,-6.1875,-6.1875,-6.1699,-6.1699,-6.1699,-6.1699,-6.1699,-6.1699,-6.1699,-6.1699,-6.1699,-6.1699,-6.1712,-6.1704,-6.1715,-6.1705,-6.1701,-6.1701,-6.1701,-6.1698,-6.1698,-6.1698,-6.1698,-6.1698,-6.1698,-6.1698,-6.1698,-6.1698,-6.1701,-6.1703,-6.1713,-6.1699,-6.1705,-6.1714,-6.1717,-6.1698,-6.1699,-6.1699,-6.1699,-6.1699,-6.1699,-6.1699,-6.1699,-6.1699,-6.1699,-6.1699,-6.1699,-6.1699,-6.1699,-6.1699,-6.1699,-6.168,-6.1289,-6.0936,-6.0193,-5.945,-5.8726,-5.7879,-5.7148,-5.6831,-5.6612,-5.6608,-5.6606,-5.6606,-5.6604,-5.6604,-5.661,-5.6605,-5.6649,-5.6632,-5.6621,-5.6621,-5.6621,-5.6621,-5.6621,-5.6621,-5.6621,-5.6621,-5.6621,-5.6621,-5.6621,-5.6621,-5.6621,-5.662,-5.6619,-5.6615,-5.6607,-6.1699,-6.1699,-6.1699,-6.1699,-6.1699,-6.1699,-6.1699,-6.1699,-6.1699,-6.1699,-6.1699,-6.1699,-6.1699,-6.1699,-6.1699,-6.1699,-6.1816,-6.2187,-6.2441,-6.2598,-6.2832,-6.3105,-6.3223,-6.3183,-6.3164,-6.3047,-6.3164,-6.3301,-6.293,-6.2168,-6.1719,-6.1777,-6.1738,-6.1699,-6.1894,-6.1738,-6.1699,-6.1699,-6.1699,-6.1699,-6.1715,-6.1711,-6.1705,-6.1711,-6.1711,-6.1707,-6.1701,-6.1698,-6.1698,-6.1698,-6.1698,-6.1703,-6.1707,-6.1711,-6.1711,-6.1699,-6.1699,-6.1699,-6.1699,-6.1746,-6.1751,-6.1735,-6.1737,-6.1699,-6.1699,-6.1777,-6.1777,-6.1699,-6.1699,-6.1738,-6.1758,-6.1699,-6.1699,-6.1699,-6.1699,-6.1698,-6.1718,-6.1716,-6.1699,-6.1699,-6.1675,-6.1322,-6.0833,-5.9913,-5.8974,-5.8071,-5.7301,-5.6807,-5.6647,-5.6606,-5.6606,-5.6604,-5.6604,-5.6604,-5.6612,-5.6623,-5.6708,-5.6711,-5.668,-5.666,-5.6621,-5.6621,-5.6621,-5.6621,-5.6621,-5.6621,-5.6621,-5.6621,-5.6621,-5.6621,-5.6621,-5.6619,-5.6618,-5.6611,-5.6605,-6.1699,-6.1699,-6.1699,-6.1699,-6.1699,-6.1699,-6.1699,-6.1699,-6.1699,-6.1699,-6.1699,-6.1699,-6.1699,-6.1699,-6.1738,-6.1855,-6.2109,-6.2715,-6.3105,-6.3515,-6.3906,-6.416,-6.4082,-6.418,-6.418,-6.4316,-6.4043,-6.4062,-6.3769,-6.3183,-6.2539,-6.2363,-6.2617,-6.25,-6.2402,-6.248,-6.25,-6.2129,-6.1836,-6.1719,-6.1717,-6.1716,-6.1711,-6.1705,-6.1701,-6.1717,-6.1709,-6.1709,-6.1709,-6.1709,-6.1709,-6.1793,-6.2052,-6.215,-6.2347,-6.2468,-6.2627,-6.2588,-6.249,-6.2357,-6.2068,-6.2069,-6.2305,-6.2598,-6.2519,-6.2344,-6.2363,-6.2558,-6.2539,-6.2383,-6.209,-6.207,-6.1933,-6.1855,-6.1716,-6.1716,-6.1715,-6.1712,-6.171,-6.1711,-6.171,-6.1705,-6.1097,-6.0155,-5.9236,-5.8297,-5.7549,-5.6879,-5.676,-5.676,-5.6977,-5.7094,-5.7463,-5.7484,-5.7469,-5.7322,-5.7174,-5.6907,-5.6893,-5.6738,-5.6719,-5.666,-5.6621,-5.6621,-5.6621,-5.6621,-5.6621,-5.6621,-5.6621,-5.6621,-5.662,-5.6619,-5.6615,-5.6609,-5.6605,-6.1699,-6.1699,-6.1699,-6.1699,-6.1699,-6.1699,-6.1699,-6.1699,-6.1699,-6.1699,-6.1699,-6.1699,-6.1699,-6.1699,-6.1777,-6.2129,-6.2851,-6.2969,-6.3535,-6.4023,-6.4297,-6.457,-6.4648,-6.4668,-6.4531,-6.4512,-6.4687,-6.4629,-6.4394,-6.4492,-6.4121,-6.4101,-6.3769,-6.3984,-6.3906,-6.3633,-6.3398,-6.291,-6.2402,-6.2031,-6.1991,-6.1951,-6.1949,-6.1886,-6.1786,-6.1708,-6.1746,-6.194,-6.2037,-6.2055,-6.2094,-6.2332,-6.2802,-6.2881,-6.3155,-6.3529,-6.3668,-6.3669,-6.3591,-6.3201,-6.2948,-6.3144,-6.3437,-6.375,-6.3652,-6.3945,-6.4043,-6.3808,-6.3613,-6.3457,-6.3143,-6.283,-6.2419,-6.2124,-6.1908,-6.171,-6.1709,-6.1708,-6.1705,-6.1707,-6.1704,-6.1717,-6.1618,-6.0733,-5.9716,-5.8779,-5.7606,-5.6938,-5.7094,-5.7172,-5.7543,-5.7875,-5.8478,-5.8714,-5.8814,-5.8609,-5.8153,-5.7767,-5.7596,-5.7207,-5.6875,-5.6777,-5.6621,-5.6621,-5.6621,-5.6621,-5.6621,-5.6621,-5.6621,-5.6621,-5.662,-5.6618,-5.6616,-5.6612,-5.661,-6.1699,-6.1699,-6.1699,-6.1699,-6.1699,-6.1699,-6.1699,-6.1699,-6.1699,-6.1699,-6.1699,-6.1699,-6.1699,-6.1719,-6.1758,-6.2187,-6.3008,-6.3633,-6.4316,-6.5078,-6.5547,-6.584,-6.5898,-6.5801,-6.5937,-6.582,-6.584,-6.5898,-6.5957,-6.5703,-6.5859,-6.5683,-6.4902,-6.4375,-6.4297,-6.4414,-6.4121,-6.3887,-6.3476,-6.3281,-6.33,-6.33,-6.33,-6.3297,-6.3297,-6.3294,-6.3331,-6.3311,-6.3311,-6.3252,-6.3214,-6.3451,-6.3687,-6.3765,-6.402,-6.4375,-6.4473,-6.4473,-6.4414,-6.4043,-6.3828,-6.3828,-6.4101,-6.4375,-6.4492,-6.4375,-6.4316,-6.4277,-6.4414,-6.4256,-6.3943,-6.3335,-6.2786,-6.2451,-6.2117,-6.1821,-6.1701,-6.1699,-6.1717,-6.1717,-6.1713,-6.1707,-6.1588,-6.1391,-6.0334,-5.9261,-5.807,-5.7172,-5.7445,-5.7777,-5.8207,-5.8636,-5.9222,-5.9395,-5.9475,-5.9276,-5.9034,-5.8686,-5.834,-5.7832,-5.7344,-5.6758,-5.664,-5.6621,-5.6621,-5.6621,-5.6621,-5.6621,-5.6621,-5.6621,-5.6621,-5.6618,-5.6616,-5.6614,-5.6615,-6.1699,-6.1699,-6.1699,-6.1699,-6.1699,-6.1699,-6.1699,-6.1699,-6.1699,-6.1699,-6.1699,-6.1699,-6.1699,-6.1738,-6.2051,-6.2598,-6.3496,-6.4316,-6.5176,-6.5879,-6.6484,-6.6875,-6.6894,-6.6816,-6.666,-6.6894,-6.6894,-6.6797,-6.6719,-6.6855,-6.6738,-6.6348,-6.5801,-6.5332,-6.5117,-6.4785,-6.4687,-6.4668,-6.4394,-6.4316,-6.4238,-6.4219,-6.4199,-6.4179,-6.412,-6.412,-6.4079,-6.4039,-6.4098,-6.4117,-6.4176,-6.4372,-6.4569,-6.4726,-6.4844,-6.4961,-6.5058,-6.5058,-6.5019,-6.4805,-6.4863,-6.5137,-6.5176,-6.5215,-6.5078,-6.5058,-6.5332,-6.5254,-6.5174,-6.4977,-6.4761,-6.4032,-6.3286,-6.2871,-6.2067,-6.1711,-6.1711,-6.1709,-6.1705,-6.1703,-6.1701,-6.1701,-6.1486,-6.133,-6.0705,-5.9749,-5.8909,-5.8207,-5.8285,-5.8636,-5.9085,-5.9495,-5.9924,-5.9981,-5.9944,-6.0096,-6.0166,-5.9623,-5.9199,-5.8515,-5.7949,-5.7305,-5.6719,-5.6621,-5.6621,-5.6621,-5.6621,-5.6621,-5.6621,-5.6621,-5.6621,-5.6621,-5.662,-5.6619,-5.6619,-6.1699,-6.1699,-6.1699,-6.1699,-6.1699,-6.1699,-6.1699,-6.1699,-6.1699,-6.1699,-6.1699,-6.1699,-6.1699,-6.1875,-6.2402,-6.3242,-6.4101,-6.5,-6.5879,-6.6562,-6.6777,-6.6894,-6.6894,-6.6894,-6.6894,-6.6894,-6.6894,-6.6894,-6.6894,-6.6894,-6.6894,-6.6894,-6.6562,-6.6465,-6.668,-6.5976,-6.5586,-6.5469,-6.4824,-6.4668,-6.4648,-6.4707,-6.4726,-6.4746,-6.4765,-6.4824,-6.4824,-6.4824,-6.4863,-6.4824,-6.4785,-6.5039,-6.5488,-6.5566,-6.5879,-6.6465,-6.6582,-6.666,-6.6699,-6.5996,-6.5976,-6.6348,-6.623,-6.6348,-6.6621,-6.668,-6.6504,-6.619,-6.6422,-6.6203,-6.5612,-6.4802,-6.4017,-6.3232,-6.2447,-6.18,-6.182,-6.1703,-6.1701,-6.1698,-6.1698,-6.1659,-6.1408,-6.1134,-6.0803,-6.0178,-5.9553,-5.9261,-5.9202,-5.9397,-5.9788,-6.0295,-6.0683,-6.0761,-6.0863,-6.127,-6.1259,-6.0676,-6.0,-5.9238,-5.8535,-5.7871,-5.7324,-5.6816,-5.6621,-5.6621,-5.6621,-5.6621,-5.6621,-5.6621,-5.6621,-5.6621,-5.6621,-5.6621,-5.6621,-6.1699,-6.1699,-6.1699,-6.1699,-6.1699,-6.1699,-6.1699,-6.1699,-6.1699,-6.1699,-6.1699,-6.1699,-6.1699,-6.1973,-6.2637,-6.3535,-6.4355,-6.5195,-6.6055,-6.6816,-6.6894,-6.6894,-6.6894,-6.6894,-6.6894,-6.6894,-6.6894,-6.6894,-6.6894,-6.6894,-6.6894,-6.6894,-6.6894,-6.6894,-6.6836,-6.6523,-6.6465,-6.6445,-6.6191,-6.6055,-6.6015,-6.5957,-6.5937,-6.5918,-6.5898,-6.5859,-6.582,-6.5781,-6.5781,-6.5801,-6.5801,-6.6015,-6.6328,-6.6367,-6.6543,-6.6875,-6.6894,-6.6894,-6.6875,-6.6582,-6.6601,-6.6816,-6.6894,-6.6894,-6.6894,-6.6894,-6.6894,-6.6892,-6.6889,-6.6629,-6.6309,-6.5596,-6.4828,-6.3989,-6.3186,-6.2345,-6.2032,-6.1818,-6.1698,-6.1698,-6.1698,-6.1698,-6.1542,-6.1425,-6.1115,-6.0725,-6.0156,-6.0002,-5.9944,-6.008,-6.0373,-6.0978,-6.1405,-6.1542,-6.1705,-6.1717,-6.1707,-6.1242,-6.0562,-5.9824,-5.9121,-5.8457,-5.7637,-5.6992,-5.6777,-5.6621,-5.6621,-5.6621,-5.6621,-5.6621,-5.6621,-5.6621,-5.6621,-5.6621,-5.6621,-6.1699,-6.1699,-6.1699,-6.1699,-6.1699,-6.1699,-6.1699,-6.1699,-6.1699,-6.1699,-6.1699,-6.1699,-6.1699,-6.2031,-6.291,-6.3633,-6.4433,-6.5566,-6.6172,-6.6894,-6.6894,-6.6894,-6.6894,-6.6894,-6.6894,-6.6894,-6.6894,-6.6894,-6.6894,-6.6894,-6.6894,-6.6894,-6.6894,-6.6894,-6.6875,-6.6836,-6.6816,-6.6777,-6.666,-6.6719,-6.6738,-6.6777,-6.6797,-6.6777,-6.6797,-6.6816,-6.6855,-6.6894,-6.6894,-6.6894,-6.6894,-6.6894,-6.6894,-6.6894,-6.6894,-6.6894,-6.6894,-6.6894,-6.6894,-6.6875,-6.6836,-6.6875,-6.6894,-6.6894,-6.6894,-6.6894,-6.6894,-6.689,-6.6884,-6.6838,-6.6672,-6.6017,-6.5292,-6.4433,-6.3574,-6.2696,-6.1974,-6.1757,-6.1698,-6.1698,-6.1698,-6.1698,-6.1698,-6.1679,-6.1542,-6.1152,-6.0781,-6.0705,-6.0666,-6.0764,-6.0861,-6.133,-6.1679,-6.1698,-6.1703,-6.1713,-6.1702,-6.1708,-6.1127,-6.0447,-5.9765,-5.9082,-5.8125,-5.7207,-5.6894,-5.668,-5.6621,-5.6621,-5.6621,-5.6621,-5.6621,-5.6621,-5.6621,-5.6621,-5.6621,-6.1699,-6.1699,-6.1699,-6.1699,-6.1699,-6.1699,-6.1699,-6.1699,-6.1699,-6.1699,-6.1699,-6.1699,-6.1699,-6.2051,-6.3476,-6.4219,-6.4629,-6.6055,-6.664,-6.6875,-6.6894,-6.6894,-6.6894,-6.6894,-6.6894,-6.6894,-6.6894,-6.6894,-6.6894,-6.6894,-6.6894,-6.6894,-6.6894,-6.6894,-6.6894,-6.6894,-6.6894,-6.6894,-6.6894,-6.6894,-6.6894,-6.6894,-6.6894,-6.6894,-6.6894,-6.6894,-6.6894,-6.6894,-6.6894,-6.6894,-6.6894,-6.6894,-6.6894,-6.6894,-6.6894,-6.6894,-6.6894,-6.6894,-6.6894,-6.6894,-6.6894,-6.6894,-6.6894,-6.6894,-6.6894,-6.6893,-6.689,-6.6866,-6.6857,-6.6828,-6.67,-6.6056,-6.539,-6.4531,-6.3672,-6.2813,-6.1974,-6.1698,-6.1698,-6.1698,-6.1698,-6.1698,-6.1698,-6.1698,-6.1698,-6.1542,-6.1269,-6.1288,-6.1271,-6.133,-6.1408,-6.1447,-6.1698,-6.1698,-6.1705,-6.1709,-6.1717,-6.1704,-6.1653,-6.1094,-6.043,-5.9648,-5.875,-5.7851,-5.707,-5.6719,-5.664,-5.6621,-5.6621,-5.6621,-5.6621,-5.6621,-5.6621,-5.6621,-5.6621,-6.1699,-6.1699,-6.1699,-6.1699,-6.1699,-6.1699,-6.1699,-6.1699,-6.1699,-6.1699,-6.1699,-6.1699,-6.1699,-6.1875,-6.3515,-6.4121,-6.4961,-6.5879,-6.664,-6.6894,-6.6894,-6.6894,-6.6894,-6.6894,-6.6894,-6.6894,-6.6894,-6.6894,-6.6894,-6.6894,-6.6894,-6.6894,-6.6894,-6.6894,-6.6894,-6.6894,-6.6894,-6.6894,-6.6894,-6.6894,-6.6894,-6.6894,-6.6894,-6.6894,-6.6894,-6.6894,-6.6894,-6.6894,-6.6894,-6.6894,-6.6894,-6.6894,-6.6894,-6.6894,-6.6894,-6.6894,-6.6894,-6.6894,-6.6894,-6.6894,-6.6894,-6.6894,-6.6894,-6.6894,-6.6894,-6.6892,-6.6868,-6.6841,-6.6832,-6.6805,-6.68,-6.6329,-6.5487,-6.4533,-6.377,-6.3145,-6.2306,-6.1698,-6.1698,-6.1698,-6.1698,-6.1698,-6.1698,-6.1698,-6.1698,-6.1698,-6.1698,-6.1698,-6.1698,-6.1698,-6.1698,-6.1698,-6.1698,-6.1698,-6.1698,-6.1703,-6.1711,-6.1699,-6.1669,-6.148,-6.0762,-5.998,-5.9258,-5.8398,-5.7402,-5.6894,-5.6621,-5.6621,-5.6621,-5.6621,-5.6621,-5.6621,-5.6621,-5.6621,-5.6621,-6.1699,-6.1699,-6.1699,-6.1699,-6.1699,-6.1699,-6.1699,-6.1699,-6.1699,-6.1699,-6.1699,-6.1699,-6.1719,-6.1914,-6.3105,-6.3945,-6.4433,-6.5605,-6.6465,-6.6894,-6.6894,-6.6894,-6.6894,-6.6894,-6.6894,-6.6894,-6.6894,-6.6894,-6.6894,-6.6894,-6.6894,-6.6894,-6.6894,-6.6894,-6.6894,-6.6894,-6.6894,-6.6894,-6.6894,-6.6894,-6.6894,-6.6894,-6.6894,-6.6894,-6.6894,-6.6894,-6.6894,-6.6894,-6.6894,-6.6894,-6.6894,-6.6894,-6.6894,-6.6894,-6.6894,-6.6894,-6.6894,-6.6894,-6.6894,-6.6894,-6.6894,-6.6894,-6.6894,-6.6893,-6.6891,-6.6888,-6.6863,-6.6836,-6.6809,-6.6805,-6.68,-6.6622,-6.5568,-6.4494,-6.3987,-6.3496,-6.2696,-6.1854,-6.1698,-6.1698,-6.1698,-6.1698,-6.1698,-6.1698,-6.1698,-6.1698,-6.1698,-6.1698,-6.1698,-6.1698,-6.1698,-6.1698,-6.1698,-6.1698,-6.1698,-6.1701,-6.1707,-6.1715,-6.1701,-6.1436,-6.0895,-6.0293,-5.957,-5.8613,-5.7578,-5.7187,-5.6836,-5.666,-5.6621,-5.6621,-5.6621,-5.6621,-5.6621,-5.6621,-5.6621,-6.1621,-6.1699,-6.1699,-6.1699,-6.1699,-6.1699,-6.1699,-6.1699,-6.1699,-6.1699,-6.1699,-6.1699,-6.1699,-6.1894,-6.2773,-6.3633,-6.4355,-6.5371,-6.6289,-6.6875,-6.6894,-6.6894,-6.6894,-6.6894,-6.6894,-6.6894,-6.6894,-6.6894,-6.6894,-6.6894,-6.6894,-6.6894,-6.6894,-6.6894,-6.6894,-6.6894,-6.6894,-6.6894,-6.6894,-6.6894,-6.6894,-6.6894,-6.6894,-6.6894,-6.6894,-6.6894,-6.6894,-6.6894,-6.6894,-6.6894,-6.6894,-6.6894,-6.6894,-6.6894,-6.6894,-6.6894,-6.6894,-6.6894,-6.6894,-6.6894,-6.6894,-6.6894,-6.6893,-6.689,-6.6888,-6.6884,-6.6838,-6.683,-6.6802,-6.68,-6.6798,-6.668,-6.5919,-6.4885,-6.4143,-6.3301,-6.2267,-6.1757,-6.1698,-6.1698,-6.1698,-6.1698,-6.1698,-6.1698,-6.1698,-6.1698,-6.1698,-6.1698,-6.1698,-6.1698,-6.1698,-6.1698,-6.1698,-6.1698,-6.1698,-6.1701,-6.1705,-6.1711,-6.1715,-6.1663,-6.1339,-6.064,-5.9844,-5.9023,-5.8223,-5.7519,-5.7109,-5.6875,-5.666,-5.6621,-5.6621,-5.6621,-5.6621,-5.6621,-5.6621,-6.1113,-6.168,-6.1699,-6.1699,-6.1699,-6.1699,-6.1699,-6.1699,-6.1699,-6.1699,-6.1699,-6.1699,-6.1699,-6.1836,-6.2519,-6.3379,-6.4336,-6.5058,-6.6055,-6.666,-6.6894,-6.6894,-6.6894,-6.6894,-6.6894,-6.6894,-6.6894,-6.6894,-6.6894,-6.6894,-6.6894,-6.6894,-6.6894,-6.6894,-6.6894,-6.6894,-6.6894,-6.6894,-6.6894,-6.6894,-6.6894,-6.6894,-6.6894,-6.6894,-6.6894,-6.6894,-6.6894,-6.6894,-6.6894,-6.6894,-6.6894,-6.6894,-6.6894,-6.6894,-6.6894,-6.6894,-6.6894,-6.6894,-6.6894,-6.6894,-6.6894,-6.6894,-6.6893,-6.689,-6.6885,-6.6859,-6.6832,-6.6805,-6.68,-6.6798,-6.6759,-6.6602,-6.6209,-6.5197,-6.424,-6.3086,-6.1913,-6.1776,-6.1718,-6.1698,-6.1698,-6.1698,-6.1698,-6.1698,-6.1698,-6.1698,-6.1698,-6.1698,-6.1698,-6.1698,-6.1698,-6.1698,-6.1698,-6.1698,-6.1698,-6.1701,-6.1703,-6.1707,-6.1711,-6.1699,-6.1704,-6.1066,-6.0327,-5.9701,-5.9004,-5.816,-5.7418,-5.6933,-5.6758,-5.6657,-5.6618,-5.6618,-5.6618,-5.6621,-5.6621,-6.0683,-6.1152,-6.1543,-6.1699,-6.1699,-6.1699,-6.1699,-6.1699,-6.1699,-6.1699,-6.1699,-6.1699,-6.1699,-6.1699,-6.2246,-6.3223,-6.414,-6.4746,-6.5781,-6.6543,-6.6875,-6.6894,-6.6894,-6.6894,-6.6894,-6.6894,-6.6894,-6.6894,-6.6894,-6.6894,-6.6894,-6.6894,-6.6894,-6.6894,-6.6894,-6.6894,-6.6894,-6.6894,-6.6894,-6.6894,-6.6894,-6.6894,-6.6894,-6.6894,-6.6894,-6.6894,-6.6894,-6.6894,-6.6894,-6.6894,-6.6894,-6.6894,-6.6894,-6.6894,-6.6894,-6.6894,-6.6894,-6.6894,-6.6894,-6.6894,-6.6894,-6.6894,-6.6891,-6.6905,-6.6839,-6.6811,-6.6826,-6.6798,-6.6798,-6.6798,-6.6798,-6.67,-6.5841,-6.4865,-6.426,-6.3438,-6.2384,-6.1737,-6.1698,-6.1698,-6.1698,-6.1698,-6.1698,-6.1698,-6.1698,-6.1698,-6.1698,-6.1698,-6.1698,-6.1698,-6.1698,-6.1698,-6.1698,-6.1698,-6.1698,-6.1698,-6.1701,-6.1703,-6.1707,-6.1713,-6.166,-6.1315,-6.083,-6.0224,-5.9482,-5.8547,-5.7844,-5.7274,-5.6807,-5.6634,-5.6614,-5.6613,-5.6611,-5.6609,-5.6611,-6.0371,-6.0664,-6.1387,-6.1699,-6.1699,-6.1699,-6.1699,-6.1699,-6.1699,-6.1699,-6.1699,-6.1699,-6.1699,-6.1699,-6.1777,-6.289,-6.3789,-6.4336,-6.539,-6.6328,-6.6816,-6.6875,-6.6894,-6.6894,-6.6894,-6.6894,-6.6894,-6.6894,-6.6894,-6.6894,-6.6894,-6.6894,-6.6894,-6.6894,-6.6894,-6.6894,-6.6894,-6.6894,-6.6894,-6.6894,-6.6894,-6.6894,-6.6894,-6.6894,-6.6894,-6.6894,-6.6894,-6.6894,-6.6894,-6.6894,-6.6894,-6.6894,-6.6894,-6.6894,-6.6894,-6.6894,-6.6894,-6.6894,-6.6894,-6.6894,-6.6893,-6.6891,-6.6887,-6.686,-6.6811,-6.6805,-6.6798,-6.6798,-6.6798,-6.6798,-6.6798,-6.6622,-6.5685,-6.455,-6.4062,-6.3516,-6.252,-6.1698,-6.1698,-6.1698,-6.1698,-6.1698,-6.1698,-6.1698,-6.1718,-6.1718,-6.1737,-6.1718,-6.1698,-6.1698,-6.1698,-6.1698,-6.1698,-6.1698,-6.1698,-6.1698,-6.1698,-6.1701,-6.1703,-6.1707,-6.1653,-6.1444,-6.1174,-6.0746,-5.9966,-5.9087,-5.8248,-5.7581,-5.7154,-5.6667,-5.6606,-5.6605,-5.6605,-5.6621,-5.6619,-6.0234,-6.1465,-6.1659,-6.1717,-6.1717,-6.1714,-6.1712,-6.1712,-6.1712,-6.1712,-6.1714,-6.1717,-6.1699,-6.1699,-6.1699,-6.2422,-6.3359,-6.3945,-6.4805,-6.5742,-6.6621,-6.6836,-6.6894,-6.6894,-6.6894,-6.6894,-6.6894,-6.6894,-6.6894,-6.6894,-6.6894,-6.6894,-6.6894,-6.6894,-6.6894,-6.6894,-6.6894,-6.6894,-6.6894,-6.6894,-6.6894,-6.6894,-6.6894,-6.6894,-6.6894,-6.6894,-6.6894,-6.6894,-6.6894,-6.6894,-6.6894,-6.6894,-6.6894,-6.6894,-6.6894,-6.6894,-6.6894,-6.6894,-6.6894,-6.6893,-6.6891,-6.6887,-6.686,-6.6836,-6.6809,-6.6802,-6.6798,-6.6798,-6.6798,-6.6798,-6.6798,-6.6798,-6.6114,-6.4433,-6.3457,-6.2735,-6.1874,-6.1698,-6.1698,-6.1698,-6.1698,-6.1698,-6.1698,-6.1737,-6.1776,-6.1796,-6.1893,-6.1913,-6.2149,-6.1974,-6.1815,-6.1796,-6.1815,-6.1698,-6.1698,-6.1698,-6.1698,-6.1698,-6.1701,-6.1703,-6.1705,-6.1703,-6.1414,-6.1106,-6.056,-5.9777,-5.8937,-5.7906,-5.726,-5.6811,-5.6671,-5.661,-5.6612,-5.6614,-5.6612]},{"header":{"parameterUnit":"m.s-1","parameterCategory":1,"la1":31.0,"la2":29.5877,"lo1":-88.7671,"lo2":-86.6584,"dy":0.0162,"dx":0.0185,"nx":115,"ny":88,"refTime":"2023-04-02T06:00:00:Z","depth":0,"parameterNumber":3,"parameterNumberName":"V-component_of_WINDS"},"data":[0.0,0.0,0.0,0.0,0.0,0.0,0.0,0.0,0.0,0.0,0.0,0.0,0.0,0.0,0.0,0.0,0.0,0.0,0.0,0.0,0.0,0.0,0.0,0.0,0.0,0.0,0.0,0.0,0.0,0.0,0.0,0.0,0.0,0.0,0.0,0.0,0.0,0.0,0.0,0.0,0.0,0.0,0.0,0.0,0.0,0.0,0.0,0.0,0.0,0.0,0.0,0.0,0.0,0.0,0.0,0.0,0.0,0.0,0.0,0.0,0.0,0.0,0.0,0.0,0.0,0.0,0.0,0.0,0.0,0.0,0.0,0.0,0.0,0.0,0.0,0.0,0.0,0.0,0.0,0.0,0.0,0.0,0.0,0.0,0.0,0.0,0.0,0.0,0.0,0.0,0.0,0.0,0.0,0.0,0.0,0.0,0.0,0.0,0.0,0.0,0.0,0.0,0.0,0.0,0.0,0.0,0.0,0.0,0.0,0.0,0.0,0.0,0.0,0.0,0.0,0.0,0.0,0.0,0.0,0.0,0.0,0.0,0.0,0.0,0.0,0.0,0.0,0.0,0.0,0.0,0.0,0.0,0.0,0.0,0.0,0.0,0.0,0.0,0.0,0.0,0.0,0.0,0.0,0.0,0.0,0.0,0.0,0.0,0.0,0.0,0.0,0.0,0.0,0.0,0.0,0.0,0.0,0.0,0.0,0.0,0.0,0.0,0.0,0.0,0.0,0.0,0.0,0.0,0.0,0.0,0.0,0.0,0.0,0.0,0.0,0.0,0.0,0.0,0.0,0.0,0.0,0.0,0.0,0.0,0.0,0.0,0.0,0.0,0.0,0.0,0.0,0.0,0.0,0.0,0.0,0.0,0.0,0.0,0.0,0.0,0.0,0.0,0.0,0.0,0.0,0.0,0.0,0.0,0.0,0.0,0.0,0.0,0.0,0.0,0.0,0.0,0.0,0.0,0.0,0.0,0.0,0.0,0.0,0.0,0.0,0.0,0.0,0.0,0.0,0.0,0.0,0.0,0.0,0.0,0.0,0.0,0.0,0.0,0.0,0.0,0.0,0.0,0.0,0.0,0.0,0.0,0.0,0.0,0.0,0.0,0.0,0.0,0.0,0.0,0.0,0.0,0.0,0.0,0.0,0.0,0.0,0.0,0.0,0.0,0.0,0.0,0.0,0.0,0.0,0.0,0.0,0.0,0.0,0.0,0.0,0.0,0.0,0.0,0.0,0.0,0.0,0.0,0.0,0.0,0.0,0.0,0.0,0.0,0.0,0.0,0.0,0.0,0.0,0.0,0.0,0.0,0.0,0.0,0.0,0.0,0.0,0.0,0.0,0.0,0.0,0.0,0.0,0.0,0.0,0.0,0.0,0.0,0.0,0.0,0.0,0.0,0.0,0.0,0.0,0.0,0.0,0.0,0.0,0.0,0.0,0.0,0.0,0.0,0.0,0.0,0.0,0.0,0.0,0.0,0.0,0.0,0.0,0.0,0.0,0.0,0.0,0.0,0.0,0.0,0.0,0.0,0.0,0.0,0.0,0.0,0.0,0.0,0.0,0.0,0.0,0.0,0.0,0.0,0.0,0.0,0.0,0.0,0.0,0.0,0.0,0.0,0.0,0.0,0.0,0.0,0.0,0.0,0.0,0.0,0.0,0.0,0.0,0.0,0.0,0.0,0.0,0.0,0.0,0.0,0.0,0.0,0.0,0.0,0.0,0.0,0.0,0.0,0.0,0.0,0.0,0.0,0.0,0.0,0.0,0.0,0.0,0.0,0.0,0.0,0.0,0.0,0.0,0.0,0.0,0.0,0.0,0.0,0.0,0.0,0.0,0.0,0.0,0.0,0.0,0.0,0.0,0.0,0.0,0.0,0.0,0.0,0.0,0.0,0.0,0.0,0.0,0.0,0.0,0.0,0.0,0.0,0.0,0.0,0.0,0.0,0.0,0.0,0.0,0.0,0.0,0.0,0.0,0.0,0.0,0.0,0.0,0.0,0.0,0.0,0.0,0.0,0.0,0.0,0.0,0.0,0.0,0.0,0.0,0.0,0.0,0.0,0.0,0.0,0.0,0.0,0.0,0.0,0.0,0.0,0.0,0.0,0.0,0.0,0.0,0.0,0.0,0.0,0.0,0.0,0.0,0.0,0.0,0.0,0.0,0.0,0.0,0.0,0.0,0.0,0.0,0.0,0.0,0.0,0.0,0.0,0.0,0.0,0.0,0.0,0.0,0.0,0.0,0.0,0.0,0.0,0.0,0.0,0.0,0.0,0.0,0.0,0.0,0.0,0.0,0.0,0.0,0.0,0.0,0.0,0.0,0.0,0.0,0.0,0.0,0.0,0.0,0.0,0.0,0.0,0.0,0.0,0.0,0.0,0.0,0.0,0.0,0.0,0.0,0.0,0.0,0.0,0.0,0.0,0.0,0.0,0.0,0.0,0.0,0.0,0.0,0.0,0.0,0.0,0.0,0.0,0.0,0.0,0.0,0.0,0.0,0.0,0.0,0.0,0.0,0.0,0.0,0.0,0.0,0.0,0.0,0.0,0.0,0.0,0.0,0.0,0.0,0.0,0.0,0.0,0.0,0.0,0.0,0.0,0.0,0.0,0.0,0.0,0.0,0.0,0.0,0.0,0.0,0.0,0.0,0.0,0.0,0.0,0.0,0.0,0.0,0.0,0.0,0.0,0.0,0.0,0.0,0.0,0.0,0.0,0.0,0.0,0.0,0.0,0.0,0.0,0.0,0.0,0.0,0.0,0.0,0.0,0.0,0.0,0.0,0.0,0.0,0.0,0.0,0.0,0.0,0.0,0.0,0.0,0.0,0.0,0.0,0.0,0.0,0.0,0.0,0.0,0.0,0.0,0.0,0.0,0.0,0.0,0.0,0.0,0.0,0.0,0.0,0.0,0.0,0.0,0.0,0.0,0.0,0.0,0.0,0.0,0.0,0.0,0.0,0.0,0.0,0.0,0.0,0.0,0.0,0.0,0.0,0.0,0.0,0.0,0.0,0.0,0.0,0.0,0.0,0.0,0.0,0.0,0.0,0.0,0.0,0.0,0.0,0.0,0.0,0.0,0.0,0.0,0.0,0.0,0.0,0.0,0.0,0.0,0.0,0.0,0.0,0.0,0.0,0.0,0.0,0.0,0.0,0.0,0.0,0.0,0.0,0.0,0.0,0.0,0.0,0.0,0.0,0.0,0.0,0.0,0.0,0.0,0.0,0.0,0.0,0.0,0.0,0.0,0.0,0.0,0.0,0.0,0.0,0.0,0.0,0.0,0.0,0.0,0.0,0.0,0.0,0.0,0.0,0.0,0.0,0.0,0.0,0.0,0.0,0.0,0.0,0.0,0.0,0.0,0.0,0.0,0.0,0.0,0.0,0.0,0.0,0.0,0.0,0.0,0.0,0.0,0.0,0.0,0.0,0.0,0.0,0.0,0.0,0.0,0.0,0.0,0.0,0.0,0.0,0.0,0.0,0.0,0.0,0.0,0.0,0.0,0.0,0.0,0.0,0.0,0.0,0.0,0.0,0.0,0.0,0.0,0.0,0.0,0.0,0.0,0.0,0.0,0.0,0.0,0.0,0.0,0.0,0.0,0.0,0.0,0.0,0.0,0.0,0.0,0.0,0.0,0.0,0.0,0.0,0.0,0.0,0.0,0.0,0.0,0.0,0.0,0.0,0.0,0.0,0.0,0.0,0.0,0.0,0.0,0.0,0.0,0.0,0.0,0.0,0.0,0.0,0.0,0.0,0.0,0.0,0.0,0.0,0.0,0.0,0.0,0.0,0.0,0.0,0.0,0.0,0.0,0.0,0.0,0.0,0.0,0.0,0.0,0.0,0.0,0.0,0.0,0.0,0.0,0.0,0.0,0.0,0.0,0.0,0.0,0.0,0.0,0.0,0.0,0.0,0.0,0.0,0.0,0.0,0.0,0.0,0.0,0.0,0.0,0.0,0.0,0.0,0.0,0.0,0.0,0.0,0.0,0.0,0.0,0.0,0.0,0.0,0.0,0.0,0.0,0.0,0.0,0.0,0.0,0.0,0.0,0.0,0.0,0.0,0.0,0.0,0.0,0.0,0.0,0.0,0.0,0.0,0.0,0.0,0.0,0.0,0.0,0.0,0.0,0.0,0.0,0.0,0.0,0.0,0.0,0.0,0.0,0.0,0.0,0.0,0.0,0.0,0.0,0.0,0.0,0.0,0.0,0.0,0.0,0.0,0.0,0.0,0.0,0.0,0.0,0.0,0.0,0.0,0.0,0.0,0.0,0.0,0.0,0.0,0.0,0.0,0.0,0.0,0.0,0.0,0.0,0.0,0.0,0.0,0.0,0.0,0.0,0.0,0.0,0.0,0.0,0.0,0.0,0.0,0.0,0.0,0.0,0.0,0.0,0.0,0.0,0.0,0.0,0.0,0.0,0.0,0.0,0.0,0.0,0.0,0.0,0.0,0.0,0.0,0.0,0.0,0.0,0.0,0.0,0.0,0.0,0.0,0.0,0.0,0.0,0.0,0.0,0.0,0.0,0.0,0.0,0.0,0.0,0.0,0.0,0.0,0.0,0.0,0.0,0.0,0.0,0.0,0.0,0.0,0.0,0.0,0.0,0.0,0.0,0.0,0.0,0.0,0.0,0.0,0.0,0.0,0.0,0.0,0.0,0.0,0.0,0.0,0.0,0.0,0.0,0.0,0.0,0.0,0.0,0.0,0.0,0.0,0.0,0.0,0.0,0.0,0.0,0.0,0.0,0.0,0.0,0.0,0.1329,0.1035,0.0893,0.0606,0.0228,0.0,0.0,0.0,0.0,0.0,0.0,0.0,0.0,0.0,0.0,0.0,0.0,0.0,0.0,0.0,0.0,0.0,0.0,0.0,0.0,0.0,0.0,0.0,0.0,0.0,0.0,0.0,0.0,0.0,0.0,0.0,0.0,0.0,0.0,0.0,0.0,0.0,0.0,0.0,0.0,0.0,0.0,0.0,0.0,0.0,0.0,0.0,0.0,0.0,0.0,0.0,0.0,0.0,0.0,0.0,0.0,0.0,0.0,0.0,0.0,0.0,0.0,0.0,0.0,0.0,0.0,0.0,0.0,0.0,0.0,0.0,0.0,0.0,0.0,0.0,0.0,0.0,0.0,0.0,0.0,0.0,0.0,0.0,0.0,0.0,0.0,0.0,0.0,0.0,0.0,0.0,0.0,0.0,0.0,0.0,0.0,0.0,0.0,0.0,0.0,0.0,0.0,0.0,0.0,0.0,0.0,0.0,0.0,0.0,0.0,0.0,0.0,0.096,0.0664,0.0324,0.0,0.0,0.0,0.0,0.0,0.0,0.0,0.0,0.0,0.0,0.0,0.0,0.0,0.0,0.0,0.0,0.0,0.0,0.0,0.0,0.0,0.0,0.0,0.0,0.0,0.0,0.0,0.0,0.0,0.0,0.0,0.0,0.0,0.0,0.0,0.0,0.0,0.0,0.0,0.0,0.0,0.0,0.0,0.0,0.0,0.0,0.0,0.0,0.0,0.0,0.0,0.0,0.0,0.0,0.0,0.0,0.0,0.0,0.0,0.0,0.0,0.0,0.0,0.0,0.0,0.0,0.0,0.0,0.0,0.0,0.0,0.0,0.0,0.0,0.0,0.0,0.0,0.0,0.0,0.0,0.0,0.0,0.0,0.0,0.0,0.0,0.0,0.0,0.0,0.0,0.0,0.0,0.0,0.0,0.0,0.0,0.0,0.0,0.0,0.0,0.0,0.0,0.0,0.0,0.0,0.0,0.0,0.0,0.0,0.0,0.1446,0.1225,0.093,0.0,0.0093,0.0,0.0,0.0,0.0,0.0,0.0,0.0,0.0,0.0,0.0,0.0,0.0,0.0,0.0,0.0,0.0,0.0,0.0,0.0,0.0,0.0,0.0,0.0,0.0,0.0,0.0,0.0,0.0,0.0,0.0,0.0,0.0,0.0,0.0,0.0,0.0,0.0,0.0,0.0,0.0,0.0,0.0,0.0,0.0,0.0,0.0,0.0,0.0,0.0,0.0,0.0,0.0,0.0,0.0,0.0,0.0,0.0,0.0,0.0,0.0,0.0,0.0,0.0,0.0,0.0,0.0,0.0,0.0,0.0,0.0,0.0,0.0,0.0,0.0,0.0,0.0,0.0,0.0,0.0,0.0,0.0,0.0,0.0,0.0,0.0,0.0,0.0,0.0,0.0,0.0,0.0,0.0,0.0,0.0,0.0,0.0,0.0,0.0,0.0,0.0,0.0,0.0,0.0,0.0,0.0,0.0,0.0,0.0,0.0,0.0,0.1561,0.1449,0.1037,0.0533,0.0,0.0,0.0,0.0,0.0,0.0,0.0,0.0,0.0,0.0,0.0,0.0,0.0,0.0,0.0,0.0,0.0,0.0,0.0,0.0,0.0,0.0,0.0,0.0,0.0,0.0,0.0,0.0,0.0,0.0,0.0,0.0,0.0,0.0,0.0,0.0,0.0,0.0,0.0,0.0,0.0,0.0,0.0,0.0,0.0,0.0,0.0,0.0,0.0,0.0,0.0,0.0,0.0,0.0,0.0,0.0,0.0,0.0,0.0,0.0,0.0,0.0,0.0,0.0,0.0,0.0,0.0,0.0,0.0,0.0,0.0,0.0,0.0,0.0,0.0,0.0,0.0,0.0,0.0,0.0,0.0,0.0,0.0,0.0,0.0,0.0,0.0,0.0,0.0,0.0,0.0,0.0,0.0,0.0,0.0,0.0,0.0,0.0,0.0,0.0,0.0,0.0,0.0,0.0,0.0,0.0,0.0,0.0,0.0,0.0,0.1617,0.1516,0.1363,0.0992,0.0535,0.0,0.0,0.0,0.0,0.0,0.0,0.0,0.0,0.0,0.0,0.0,0.0,0.0,0.0,0.0,0.0,0.0,0.0,0.0,0.0,0.0,0.0,0.0,0.0,0.0,0.0,0.0,0.0,0.0,0.0,0.0,0.0,0.0,0.0,0.0,0.0,0.0,0.0,0.0,0.0,0.0,0.0,0.0,0.0,0.0,0.0,0.0,0.0,0.0,0.0,0.0,0.0,0.0,0.0,0.0,0.0,0.0,0.0,0.0,0.0,0.0,0.0,0.0,0.0,0.0,0.0,0.0,0.0,0.0,0.0,0.0,0.0,0.0,0.0,0.0,0.0,0.0,0.0,0.0,0.0,0.0,0.0,0.0,0.0,0.0,0.0,0.0,0.0,0.0,0.0,0.0,0.0,0.0,0.0,0.0,0.0,0.0,0.0,0.0,0.0,0.0,0.0,0.0,0.0,0.0,0.0,0.0,0.0,0.0,0.1971,0.1718,0.1364,0.0858,0.0843,0.0535,0.0,0.0,0.0,0.0,0.0,0.0,0.0,0.0,0.0,0.0,0.0,0.0,0.0,0.0,0.0,0.0,0.0,0.0,0.0,0.0,0.0,0.0,0.0,0.0,0.0,0.0,0.0,0.0,0.0,0.0,0.0,0.0,0.0,0.0,0.0,0.0,0.0,0.0,0.0,0.0,0.0,0.0,0.0,0.0,0.0,0.0,0.0,0.0,0.0,0.0,0.0,0.0,0.0,0.0,0.0,0.0,0.0,0.0,0.0,0.0,0.0,0.0,0.0,0.0,0.0,0.0,0.0,0.0,0.0,0.0,0.0,0.0,0.0,0.0,0.0,0.0,0.0,0.0,0.0,0.0,0.0,0.0,0.0,0.0,0.0,0.0,0.0,0.0,0.0,0.0,0.0,0.0,0.0,0.0,0.0,0.0,0.0,0.0,0.0,0.0,0.0,0.0,0.0,0.0,0.0,0.0,0.0,0.0,0.0,0.2022,0.1718,0.1364,0.0808,0.0803,0.0542,0.0,0.0,0.0,0.0,0.0,0.0,0.0,0.0,0.0,0.0,0.0,0.0,0.0,0.0,0.0,0.0,0.0,0.0,0.0,0.0,0.0,0.0,0.0,0.0,0.0,0.0,0.0,0.0,0.0,0.0,0.0,0.0,0.0,0.0,0.0,0.0,0.0,0.0,0.0,0.0,0.0,0.0,0.0,0.0,0.0,0.0,0.0,0.0,0.0,0.0,0.0,0.0,0.0,0.0,0.0,0.0,0.0,0.0,0.0,0.0,0.0,0.0,0.0,0.0,0.0,0.0,0.0,0.0,0.0,0.0,0.0,0.0,0.0,0.0,0.0,0.0,0.0,0.0,0.0,0.0,0.0,0.0,0.0,0.0,0.0,0.0,0.0,0.0,0.0,0.0,0.0,0.0,0.0,0.0,0.0,0.0,0.0,0.0,0.0,0.0,0.0,0.0,0.0,0.0,0.0,0.0,0.0,0.0,0.0,0.1869,0.0,0.1364,0.0808,0.0808,0.0546,0.0,0.0,0.0,0.0,0.0,0.0,0.0,0.0,0.0,0.0,0.0,0.0,0.0,0.0,0.0,0.0,0.0,0.0,0.0,0.0,0.0,0.0,0.0,0.0,0.0,0.0,0.0,0.0,0.0,0.0,0.0,0.0,0.0,0.0,0.0,0.0,0.0,0.0,0.0,0.0,0.0,0.0,0.0,0.0,0.0,0.0,0.0,0.0,0.0,0.0,0.0,0.0,0.0,0.0,0.0,0.0,0.0,0.0,0.0,0.0,0.0,0.0,0.0,0.0,0.0,0.0,0.0,0.0,0.0,0.0,0.0,0.0,0.0,0.0,0.0,0.0,0.0,0.0,0.0,0.0,0.0,0.0,0.0,0.0,0.0,0.0,0.0,0.0,0.0,0.0,0.0,0.0,0.0,0.0,0.0,0.0,0.0,0.0,0.0,0.0,0.0,0.0,0.0,0.0,0.0,0.0,0.0,0.0,0.1869,0.1617,0.1617,0.1313,0.0808,0.0808,0.0546,0.0,0.0,0.0,0.0,0.0,0.0,0.0,0.0,0.0,0.0,0.0,0.0,0.0,0.0,0.0,0.0,0.0,0.0,0.0,0.0,0.0,0.0,0.0,0.0,0.0,0.0,0.0,0.0,0.0,0.0,0.0,0.0,0.0,0.0,0.0,0.0,0.0,0.0,0.0,0.0,0.0,0.0,0.0,0.0,0.0,0.0,0.0,0.0,0.0,0.0,0.0,0.0,0.0,0.0,0.0,0.0,0.0,0.0,0.0,0.0,0.0,0.0,0.0,0.0,0.0,0.0,0.0,0.0,0.0,0.0,0.0,0.0,0.0,0.0,0.0,0.0,0.0,0.0,0.0,0.0,0.0,0.0,0.0,0.0,0.0,0.0,0.0,0.0,0.0,0.0,0.0,0.0,0.0,0.0,0.0,0.0,0.0,0.0,0.0,0.0,0.0,0.0,0.0,0.0,0.0,0.0,0.0,0.0,0.0,0.1617,0.1566,0.1364,0.0808,0.0808,0.0549,0.0,0.0,0.0,0.0,0.0,0.0,0.0,0.0,0.0,0.0,0.0,0.0,0.0,0.0,0.0,0.0,0.0,0.0,0.0,0.0,0.0,0.0,0.0,0.0,0.0,0.0,0.0,0.0,0.0,0.0,0.0,0.0,0.0,0.0,0.0,0.0,0.0,0.0,0.0,0.0,0.0,0.0,0.0,0.0,0.0,0.0,0.0,0.0,0.0,0.0,0.0,0.0,0.0,0.0,0.0,0.0,0.0,0.0,0.0,0.0,0.0,0.0,0.0,0.0,0.0,0.0,0.0,0.0,0.0,0.0,0.0,0.0,0.0,0.0,0.0,0.0,0.0,0.0,0.0,0.0,0.0,0.0,0.0,0.0,0.0,0.0,0.0,0.0,0.0,0.0,0.0,0.0,0.0,0.0,0.0,0.0,0.0,0.0,0.0,0.0,0.0,0.0,0.0,0.0,0.0,0.0,0.0,0.0,0.0,0.1566,0.1566,0.1364,0.096,0.0859,0.0601,0.0147,0.0,0.0,0.0,0.0,0.0,0.0,0.0,0.0,0.0,0.0,0.0,0.0,0.0,0.0,0.0,0.0,0.0,0.0,0.0,0.0,0.0,0.0,0.0,0.0,0.0,0.0,0.0,0.0,0.0,0.0,0.0,0.0,0.0,0.0,0.0,0.0,0.0,0.0,0.0,0.0,0.0,0.0,0.0,0.0,0.0,0.0,0.0,0.0,0.0,0.0,0.0,0.0,0.0,0.0,0.0,0.0,0.0,0.0,0.0,0.0,0.0,0.0,0.0,0.0,0.0,0.0,0.0,0.0,0.0,0.0,0.0,0.0,0.0,0.0,0.0,0.0,0.0,0.0,0.0,0.0,0.0,0.0,0.0,0.0,0.0,0.0,0.0,0.0,0.0,0.0,0.0,0.0,0.0,0.0,0.0,0.0,0.0,0.0,0.0,0.0,0.0,0.0,0.0,0.0,0.0,0.0,0.0,0.0,0.1566,0.1566,0.1465,0.1212,0.096,0.0651,0.0,0.0,0.0,0.0,0.0,0.0,0.0,0.0,0.0,0.0,0.0,0.0,0.0,0.0,0.0,0.0,0.0,0.0,0.0,0.0,0.0,0.0,0.0,0.0,0.0,0.0,0.0,0.0,0.0,0.0,0.0,0.0,0.0,0.0,0.0,0.0,0.0,0.0,0.0,0.0,0.0,0.0,0.0,0.0,0.0,0.0,0.0,0.0,0.0,0.0,0.0,0.0,0.0,0.0,0.0,0.0,0.0,0.0,0.0,0.0,0.0,0.0,0.0,0.0,0.0,0.0,0.0,0.0,0.0,0.0,0.0,0.0,0.0,0.0,0.0,0.0,0.0,0.0,0.0,0.0,0.0,0.0,0.0,0.0,0.0,0.0,0.0,0.0,0.0,0.0,0.0,0.0,0.0,0.0,0.0,0.0,0.0,0.0,0.0,0.0,0.0,0.0,0.0,0.0,0.0,0.0,0.0,0.0,0.0,0.1566,0.1566,0.1465,0.1212,0.096,0.0705,0.0,0.0,0.0,0.0,0.0,0.0,0.0,0.0,0.0,0.0,0.0,0.0,0.0,0.0,0.0,0.0,0.0,0.0,0.0,0.0,0.0,0.0,0.0,0.0,0.0,0.0,0.0,0.0,0.0,0.0,0.0,0.0,0.0,0.0,0.0,0.0,0.0,0.0,0.0,0.0,0.0,0.0,0.0,0.0,0.0,0.0,0.0,0.0,0.0,0.0,0.0,0.0,0.0,0.0,0.0,0.0,0.0,0.0,0.0,0.0,0.0,0.0,0.0,0.0,0.0,0.0,0.0,0.0,0.0,0.0,0.0,0.0,0.0,0.0,0.0,0.0,0.0,0.0,0.0,0.0,0.0,0.0,0.0,0.0,0.0,0.0,0.0,0.0,0.0,0.0,0.0,0.0,0.0,0.0,0.0,0.0,0.0,0.0,0.0,0.0,0.0,0.0,0.0,0.0,0.0,0.0,0.0,0.0,0.1566,0.1566,0.1566,0.1516,0.1364,0.1111,0.0859,0.0,0.0,0.0,0.0,0.0,0.0,0.0,0.0,0.0,0.0,0.0,0.0,0.0,0.0,0.0,0.0,0.0,0.0,0.0,0.0,0.0,0.0,0.0,0.0,0.0,0.0,0.0,0.0,0.0,0.0,0.0,0.0,0.0,0.0,0.0,0.0,0.0,0.0,0.0,0.0,0.0,0.0,0.0,0.0,0.0,0.0,0.0,0.0,0.0,0.0,0.0,0.0,0.0,0.0,0.0,0.0,0.0,0.0,0.0,0.0,0.0,0.0,0.0,0.0,0.0,0.0,0.0,0.0,0.0,0.0,0.0,0.0,0.0,0.0,0.0,0.0,0.0,0.0,0.0,0.0,0.0,0.0,0.0,0.0,0.0,0.0,0.0,0.0,0.0,0.0,0.0,0.0,0.0,0.0,0.0,0.0,0.0,0.0,0.0,0.0,0.0,0.0,0.0,0.0,0.0,0.0,0.0,0.0,0.1566,0.1566,0.1566,0.1566,0.1566,0.1364,0.1111,0.0,0.0,0.0,0.0,0.0,0.0,0.0,0.0,0.0,0.0,0.0,0.0,0.0,0.0,0.0,0.0,0.0,0.0,0.0,0.0,0.0,0.0,0.0,0.0,0.0,0.0,0.0,0.0,0.0,0.0,0.0,0.0,0.0,0.0,0.0,0.0,0.0,0.0,0.0,0.0,0.0,0.0,0.0,0.0,0.0,0.0,0.0,0.0,0.0,0.0,0.0,0.0,0.0,0.0,0.0,0.0,0.0,0.0,0.0,0.0,0.0,0.0,0.0,0.0,0.0,0.0,0.0,0.0,0.0,0.0,0.0,0.0,0.0,0.0,0.0,0.0,0.0,0.0,0.0,0.0,0.0,0.0,0.0,0.0,0.0,0.0,0.0,0.0,0.0,0.0,0.0,0.0,0.0,0.0,0.0,0.0,0.0,0.0,0.0,0.0,0.0,0.0,0.0,0.0,0.0,0.0,0.0,0.0,0.1566,0.1566,0.1566,0.1566,0.1566,0.1313,0.1162,0.0,0.0,0.0,0.0,0.0,0.0,0.0,0.0,0.0,0.0,0.0,0.0,0.0,0.0,0.0,0.0,0.0,0.0,0.0,0.0,0.0,0.0,0.0,0.0,0.0,0.0,0.0,0.0,0.0,0.0,0.0,0.0,0.0,0.0,0.0,0.0,0.0,0.0,0.0,0.0,0.0,0.0,0.0,0.0,0.0,0.0,0.0,0.0,0.0,0.0,0.0,0.0,0.0,0.0,0.0,0.0,0.0,0.0,0.0,0.0,0.0,0.0,0.0,0.0,0.0,0.0,0.0,0.0,0.0,0.0,0.0,0.0,0.0,0.0,0.0,0.0,0.0,0.0,0.0,0.0,0.0,0.0,0.0,0.0,0.0,0.0,0.0,0.0,0.0,0.0,0.0,0.0,0.0,0.0,0.0,0.0,0.0,0.0,0.0,0.0,0.0,0.0,0.0,0.0,0.0,0.0,0.0,0.0,0.1624,0.1638,0.1638,0.1638,0.1639,0.1484,0.1376,0.0,0.0,0.0,0.0,0.0,0.0,0.0,0.0,0.0,0.0,0.0,0.0,0.0,0.0,0.0,0.0,0.0,0.0,0.0,0.0,0.0,0.0,0.0,0.0,0.0,0.0,0.0,0.0,0.0,0.0,0.0,0.0,0.0,0.0,0.0,0.0,0.0,0.0,0.0,0.0,0.0,0.0,0.0,0.0,0.0,0.0,0.0,0.0,0.0,0.0,0.0,0.0,0.0,0.0,0.0,0.0,0.0,0.0,0.0,0.0,0.0,0.0,0.0,0.0,0.0,0.0,0.0,0.0,0.0,0.0,0.0,0.0,0.0,0.0,0.0,0.0,0.0,0.0,0.0,0.0,0.0,0.0,0.0,0.0,0.0,0.0,0.0,0.0,0.0,0.0,0.0,0.0,0.0,0.0,0.0,0.0,0.0,0.0,0.0,0.0,0.0,0.0,0.0,0.0,0.0,0.0,0.0,0.1622,0.1636,0.1713,0.1719,0.1721,0.1721,0.1717,0.1546,0.1269,0.0,0.0,0.0,0.0,0.0,0.0,0.0,0.0,0.0,0.0,0.0,0.0,0.0,0.0,0.0,0.0,0.0,0.0,0.0,0.0,0.0,0.0,0.0,0.0,0.0,0.0,0.0,0.0,0.0,0.0,0.0,0.0,0.0,0.0,0.0,0.0,0.0,0.0,0.0905,0.0938,0.0,0.0,0.0,0.0,0.0,0.0,0.0,0.0,0.0,0.0,0.0,0.0,0.0,0.0,0.0,0.0,0.0,0.0,0.0,0.0,0.0,0.0,0.0,0.0,0.0,0.0,0.0,0.0,0.0,0.0,0.0,0.0,0.0,0.0,0.0,0.0,0.0,0.0,0.0,0.0,0.0,0.0,0.0,0.0,0.0,0.0,0.0,0.0,0.0,0.0,0.0,0.0,0.0,0.0,0.0,0.0,0.0,0.0,0.0,0.0,0.0,0.0,0.0,0.0,0.0,0.1566,0.1642,0.1658,0.1714,0.1686,0.1697,0.1697,0.1726,0.166,0.1603,0.0,0.0,0.0,0.0,0.0,0.0,0.0,0.0,0.0,0.0,0.0,0.0,0.0,0.0,0.0,0.0,0.0,0.0,0.0,0.0,0.0,0.0,0.0,0.0,0.0,0.0,0.0,0.0,0.0,0.0,0.0,0.0,0.0,0.0,0.0,0.0,0.0,0.0,0.0,0.0748,0.0759,0.0,0.0,0.0,0.0,0.0,0.0,0.0,0.0,0.0,0.0,0.0,0.0,0.0,0.0,0.0,0.0,0.0,0.0,0.0,0.0,0.0,0.0,0.0,0.0,0.0,0.0,0.0,0.0,0.0,0.0,0.0,0.0,0.0,0.0,0.0,0.0,0.0,0.0,0.0,0.0,0.0,0.0,0.0,0.0,0.0,0.0,0.0,0.0,0.0,0.0,0.0,0.0,0.0,0.0,0.0,0.0,0.0,0.0,0.0,0.0,0.0,0.0,0.0,0.0,0.1618,0.1646,0.1721,0.1684,0.1766,0.1727,0.1728,0.1768,0.1746,0.0,0.0,0.0,0.0,0.0,0.0,0.0,0.0,0.0,0.0,0.0,0.0,0.0,0.0,0.0,0.0,0.0,0.0,0.0,0.0,0.0,0.0,0.0,0.0,0.0,0.0,0.0,0.0,0.0,0.0,0.0,0.0,0.0,0.0,0.0,0.0,0.0,0.0,0.0,0.0,0.0669,0.0718,0.0718,0.0,0.0,0.0,0.0,0.0,0.0,0.009,0.0,0.0,0.0,0.0,0.0,0.0,0.0,0.0,0.0,0.0,0.0,0.0,0.0,0.0,0.0,0.0,0.0,0.0,0.0,0.0,0.0,0.0,0.0,0.0,0.0,0.0,0.0,0.0,0.0,0.0,0.0,0.0,0.0,0.0,0.0,0.0,0.0,0.0,0.0,0.0,0.0,0.0,0.0,0.0,0.0,0.0,0.0,0.0,0.0,0.0,0.0,0.0,0.0,0.0,0.0,0.0,0.1627,0.1656,0.1684,0.1713,0.1743,0.1814,0.1814,0.1807,0.1781,0.0,0.0,0.0,0.0,0.0,0.0,0.0,0.0,0.0,0.0,0.0,0.0,0.0,0.0,0.0,0.0,0.0,0.0,0.0,0.0,0.0,0.0,0.0,0.0,0.0,0.0,0.0,0.0,0.0,0.0,0.0,0.0,0.0,0.0,0.0,0.0,0.0,0.0,0.0,0.0,0.0,0.0628,0.0718,0.0762,0.0,0.0,0.0,0.0,0.0404,0.018,0.0,0.0,0.0,0.0,0.0,0.0,0.0,0.0,0.0,0.0,0.0,0.0,0.0,0.0,0.0,0.0,0.0,0.0,0.0,0.0,0.0,0.0,0.0,0.0,0.0,0.0,0.0,0.0,0.0,0.0,0.0,0.0,0.0,0.0,0.0,0.0,0.0,0.0,0.0,0.0,0.0,0.0,0.0,0.0,0.0,0.0,0.0,0.0,0.0,0.0,0.0,0.0,0.0,0.0,0.0,0.0,0.1656,0.1685,0.1714,0.1798,0.1774,0.1789,0.1789,0.1818,0.1802,0.0,0.0,0.0,0.0,0.0,0.0,0.0,0.0,0.0,0.0,0.0,0.0,0.0,0.0,0.0,0.0,0.0,0.0,0.0,0.0,0.0,0.0,0.0,0.0,0.0,0.0,0.0,0.0,0.0,0.0,0.0,0.0,0.0,0.0,0.0,0.0,0.0,0.0,0.0,0.0,0.0,0.0493,0.0673,0.0897,0.1031,0.0,0.0,0.0628,0.0448,0.018,0.0,0.0,0.0,0.0,0.0,0.0,0.0,0.0,0.0,0.0,0.0,0.0,0.0,0.0,0.0,0.0,0.0,0.0,0.0,0.0,0.0,0.0,0.0,0.0,0.0,0.0,0.0,0.0,0.0,0.0,0.0,0.0,0.0,0.0,0.0,0.0,0.0,0.0,0.0,0.0,0.0,0.0,0.0,0.0,0.0,0.0,0.0,0.0,0.0,0.0,0.0,0.0,0.0,0.0,0.0,0.1701,0.1715,0.176,0.179,0.1804,0.1779,0.1795,0.1795,0.1782,0.1822,0.0,0.0,0.0,0.0,0.0,0.0,0.0,0.0,0.0,0.0,0.0,0.0,0.0,0.0,0.0,0.0,0.0,0.0,0.0,0.0,0.0,0.0,0.0,0.0,0.0,0.0,0.0,0.0,0.0,0.0,0.0,0.0,0.0,0.0,0.0,0.0,0.0,0.0,0.0,0.0,0.0,0.0,0.0494,0.0718,0.0,0.0,0.0,0.0685,0.0639,0.0,0.0,0.0,0.0,0.0,0.0,0.0,0.0,0.0,0.0,0.0,0.0,0.0,0.0,0.0,0.0,0.0,0.0,0.0,0.0,0.0,0.0,0.0,0.0,0.0,0.0,0.0,0.0,0.0,0.0,0.0,0.0,0.0,0.0,0.0,0.0,0.0,0.0,0.0,0.0,0.0,0.0,0.0,0.0,0.0,0.0,0.0,0.0,0.0,0.0,0.0,0.0,0.0,0.0,0.0,0.0,0.0,0.1737,0.1781,0.1808,0.1816,0.1782,0.1795,0.1795,0.1795,0.0,0.0,0.0,0.0,0.0,0.0,0.0,0.0,0.0,0.0,0.0,0.0,0.0,0.0,0.0,0.0,0.0,0.0,0.0,0.0,0.0,0.0,0.0,0.0,0.0,0.0,0.0,0.0,0.0,0.0,0.0,0.0,0.0,0.0,0.0,0.0,0.0,0.0,0.0,0.0,0.0,0.0,0.0092,0.0362,0.0542,0.0728,0.0,0.0,0.0653,0.0699,0.028,0.0,0.0,0.0,0.0,0.0,0.0,0.0,0.0,0.0,0.0,0.0,0.0,0.0,0.0,0.0,0.0,0.0,0.0,0.0,0.0,0.0,0.0,0.0,0.0,0.0,0.0,0.0,0.0,0.0,0.0,0.0,0.0,0.0,0.0,0.0,0.0,0.0,0.0,0.0,0.0,0.0,0.0,0.0,0.0,0.0,0.0,0.0,0.0,0.0,0.0,0.0,0.0,0.0,0.0,0.0,0.1743,0.1796,0.1802,0.1818,0.1791,0.1793,0.1795,0.1795,0.1795,0.1794,0.0,0.0,0.0,0.0,0.0,0.0,0.0,0.0,0.0,0.0,0.0,0.0,0.0,0.0,0.0,0.0,0.0,0.0,0.0,0.0,0.0,0.0,0.0,0.0,0.0,0.0,0.0,0.0,0.0,0.0,0.0,0.0,0.0,0.0,0.0,0.0,0.0,0.0,0.0,0.0,0.0,0.0093,0.0369,0.0416,0.0511,0.0,0.0571,0.0428,0.0428,0.019,0.0,0.0,0.0,0.0,0.0,0.0,0.0,0.0,0.0,0.0,0.0,0.0,0.0,0.0,0.0,0.0,0.0,0.0,0.0,0.0,0.0,0.0,0.0,0.0,0.0,0.0,0.0,0.0,0.0,0.0,0.0,0.0,0.0,0.0,0.0,0.0,0.0,0.0,0.0,0.0,0.0,0.0,0.0,0.0,0.0,0.0,0.0,0.0,0.0,0.0,0.0,0.0,0.0,0.0,0.0,0.1781,0.1804,0.1823,0.1783,0.1794,0.1795,0.1795,0.1795,0.1795,0.1795,0.0,0.0,0.0,0.0,0.0,0.0,0.0,0.0,0.0,0.0,0.0,0.0,0.0,0.0,0.0,0.0,0.0,0.0,0.0,0.0,0.0,0.0,0.0,0.0,0.0,0.0,0.0,0.0,0.0,-0.0048,-0.0242,0.0,0.0,0.0,0.0,0.0,0.0,0.0,0.0,0.0,0.0,0.0048,0.0142,0.0283,0.0,0.0,0.0437,0.0388,0.0388,0.0194,0.0,0.0,0.0,0.0,0.0,0.0,0.0,0.0,0.0,0.0,0.0,0.0,0.0,0.0,0.0,0.0,0.0,0.0,0.0,0.0,0.0,0.0,0.0,0.0,0.0,0.0,0.0,0.0,0.0,0.0,0.0,0.0,0.0,0.0,0.0,0.0,0.0,0.0,0.0,0.0,0.0,0.0,0.0,0.0,0.0,0.0,0.0,0.0,0.0,0.0,0.0,0.0,0.0,0.0,0.0,0.1809,0.1818,0.1784,0.1795,0.1795,0.1795,0.1795,0.1795,0.1795,0.1795,0.0,0.0,0.0,0.0,0.0,0.0,0.0,0.0,0.0,0.0,0.0,0.0,0.0,0.0,0.0,0.0,0.0,0.0,0.0,0.0,0.0,0.0,0.0,0.0,0.0,0.0,0.0,0.0,-0.0193,-0.0293,-0.0494,0.0,0.0,0.0,0.0,0.0,0.0,0.0,0.0,0.0,0.0,0.0,0.0,0.0192,0.0291,0.0296,0.0297,0.0297,0.0297,0.0149,0.0,0.0,0.0,0.0,0.0,0.0,0.0,0.0,0.0,0.0,0.0,0.0,0.0,0.0,0.0,0.0,0.0,0.0,0.0,0.0,0.0,0.0,0.0,0.0,0.0,0.0,0.0,0.0,0.0,-0.1161,0.0,0.0,-0.0353,0.0,0.0,0.0,0.0,0.0,0.0,0.0,0.0,0.0,0.0,0.0,0.0,0.0,0.0,0.0,0.0,0.0,0.0,0.0,0.0,0.0,0.0,0.182,0.1793,0.1794,0.1795,0.1795,0.1795,0.1795,0.1795,0.1795,0.1795,0.1795,0.0,0.0,0.0,0.0,0.0,0.0,0.0,0.0,0.0,0.0,0.0,0.0,0.0,0.0,0.0,0.0,0.0,0.0,0.0,0.0,0.0,0.0,0.0,0.0,0.0,0.0,-0.0343,-0.0599,-0.0756,0.0,0.0,0.0,0.0,0.0,0.0,0.0,0.0,0.0,0.0,0.0,0.0,0.0,0.0,0.0,0.0,0.0,0.0,0.0,0.0,0.0,0.0,0.0,0.0,0.0,0.0,0.0,0.0,0.0,0.0,0.0,0.0,0.0,0.0,0.0,0.0,0.0,0.0,0.0,0.0,0.0,0.0,0.0,0.0,0.0,0.0,0.0,0.0,-0.1258,-0.0891,0.0,0.0,0.0,0.0,0.0,0.0,0.0,0.0,0.0,0.0,0.0,0.1566,0.1566,0.0,0.0,0.0,0.0,0.0,0.0,0.0,0.0,0.0,0.0,0.0,0.0,0.1785,0.1794,0.1795,0.1795,0.1795,0.1795,0.1795,0.1795,0.1795,0.1795,0.1795,0.0,0.0,0.0,0.0,0.0,0.0,0.0,0.0,0.0,0.0,0.0,0.0,0.0,0.0,0.0,0.0,0.0,0.0,0.0,0.0,0.0,0.0,0.0,0.0,0.0,-0.0392,0.0,0.0,0.0,0.0,0.0,0.0,0.0,0.0,0.0,0.0,0.0,0.0,0.0,0.0,0.0,0.0,0.0,0.0,0.0,0.0,0.0,0.0,0.0,0.0,0.0,0.0,0.0,0.0,0.0,0.0,0.0,0.0,0.0,0.0,0.0,0.0,0.0,0.0,0.0,0.0,0.0,0.0,0.0,0.0,0.0,0.0,0.0,0.0,0.0,0.0,0.0,-0.096,0.0,-0.048,0.0,0.0,0.0,0.0,0.0,0.0,0.0,0.0,0.1643,0.1647,0.1647,0.1647,0.1658,0.0,0.174,0.1745,0.0,0.0,0.0,0.0,0.0,0.0,0.0,0.0,0.1795,0.1795,0.1795,0.1795,0.1795,0.1795,0.1795,0.1795,0.1795,0.1795,0.1795,0.1795,0.1795,0.0,0.0,0.0,0.0,0.0,0.0,0.0,0.0,0.0,0.0,0.0,0.0,0.0,0.0,0.0,0.0,0.0,0.0,0.0,0.0,0.0,0.0,0.0,-0.0448,0.0,0.0,0.0,0.0,0.0,0.0,0.0,0.0,0.0,-0.005,0.0,0.0,0.0,0.0,0.0,0.0,0.0,0.0,0.0,0.0,0.0,0.0,0.0,0.0,0.0,0.0,0.0,0.0,0.0,0.0,0.0,0.0,0.0,0.0,0.0,0.0,0.0,0.0,0.0,0.0,0.0404,0.0808,0.0,0.0,0.0,0.0,0.0,0.0,0.0,0.0,-0.0802,-0.0642,0.0,-0.0374,0.0,0.0,0.0,0.0,0.0,0.1715,0.0,0.0,0.169,0.1704,0.1703,0.1703,0.1704,0.1707,0.1789,0.1804,0.1805,0.1806,0.0,0.0,0.0,0.0,0.0,0.0,0.1795,0.1795,0.1795,0.1795,0.1795,0.1795,0.1795,0.1795,0.1795,0.1795,0.1795,0.1795,0.1795,0.1795,0.1794,0.0,0.0,0.0,0.0,0.0,0.0,0.0,0.0,0.0,0.0,0.0,0.0,0.0,0.0,0.0,0.0,0.0,0.0,0.0,0.0,-0.0252,0.0,0.0,0.0,0.0,0.0,0.0,0.0,0.0,0.0,0.0,-0.005,0.0,0.0,0.0,0.0,0.0,0.0,0.0,0.0,0.0,0.0,0.0,0.0,0.0,0.0,0.0,0.0,0.0,0.0,0.0,0.0,0.0,0.0,0.0,0.0,0.0,0.0,0.0,0.0,0.0,0.0,0.0404,0.0808,-0.0115,0.0,0.0,0.0,0.0,-0.0779,-0.0777,-0.0498,-0.0498,-0.0387,-0.0111,-0.0111,0.0,0.0,0.0,0.0,0.0,0.0,0.1692,0.1692,0.17,0.1704,0.1704,0.1704,0.1715,0.1791,0.18,0.1816,0.1781,0.1782,0.1787,0.1795,0.0,0.0,0.0,0.0,0.1795,0.1795,0.1795,0.1795,0.1795,0.1795,0.1795,0.1795,0.1795,0.1795,0.1795,0.1795,0.1795,0.1795,0.1795,0.0,0.0,0.0,0.0,0.0,0.0,0.0,0.0,0.0,0.0,0.0,0.0,0.0,0.0,0.0,0.0,0.0,0.0,0.0,-0.0252,-0.0353,-0.0505,0.0,0.0,0.0,0.0,0.0,0.0,0.0,0.0,0.0,0.0,0.0,0.0,0.0,0.0,0.0,0.0,0.0,0.0,0.0,0.0,0.0,0.0,0.0,0.0,0.0,0.0,0.0,0.0,0.0,0.0,0.0,0.0,0.0,0.0,0.0,0.0,0.0,0.0,0.0,0.0,0.0404,0.0808,0.0,0.0,-0.0172,-0.0228,-0.0283,-0.0453,-0.0451,-0.0224,-0.0224,-0.0168,0.0,0.0,0.0223,0.0608,0.1042,0.0,0.0,0.0,0.1722,0.1722,0.1734,0.174,0.174,0.174,0.1749,0.1823,0.1823,0.1777,0.1795,0.1795,0.1795,0.1795,0.0,0.0,0.1795,0.1795,0.1795,0.1795,0.1795,0.1795,0.1795,0.1795,0.1795,0.1795,0.1795,0.1795,0.1795,0.1795,0.1795,0.1795,0.1795,0.1795,0.0,0.0,0.0,0.0,0.0,0.0,0.0,0.0,0.0,0.0,0.0,0.0,0.0,0.0,0.0,0.0,0.0,-0.005,-0.0202,-0.0252,0.0,0.0,0.0,0.0,0.0,0.0,0.0,0.0,0.0,0.0,0.0,0.0,0.0,0.0,0.0,0.0,0.0,0.0,0.0,0.0,0.0,0.0,0.0,0.0,0.0,0.0,0.0,0.0,0.0,0.0,0.0,0.0,0.0,0.0,0.0,0.0,0.0,0.0,0.0,0.0,0.0,0.0404,0.0808,0.0,0.0,0.0,0.0,0.0,0.0,0.0,0.0,0.0,0.0,0.0,0.0,0.0336,0.0896,0.149,0.0,0.1753,0.1809,0.1808,0.1809,0.1782,0.1795,0.1795,0.1794,0.1795,0.1795,0.1795,0.1795,0.1795,0.1795,0.1795,0.1739,0.1739,0.1739,0.1795,0.1795,0.1795,0.1795,0.1795,0.1795,0.1799,0.1799,0.1798,0.1799,0.1796,0.1795,0.1795,0.1795,0.1795,0.1795,0.1795,0.1795,0.1795,0.0,0.0,0.0,0.0,0.0,0.0,0.0,0.0,0.0,0.0,0.0,0.0,0.0,0.0,0.0,0.0,0.0,0.0,0.0,0.0,0.0,0.0,0.0,0.0,0.0,0.0,0.0,0.0,0.0,0.0,0.0,0.0,0.0,0.0,0.0,0.0,0.0,0.0,0.0,0.0,0.0,0.0,0.0,0.0,0.0,0.0,0.0,0.0,0.0,0.0,0.0,0.0,0.0,0.0,0.0,0.0,0.0,0.0,0.0,0.0,0.0404,0.0758,0.0,0.0,0.0,0.0,0.0,0.0,0.0,0.0,0.0,0.0,0.0,0.0,0.0168,0.0561,0.1173,0.1449,0.1394,0.1673,0.1784,0.1785,0.1791,0.1795,0.1795,0.1795,0.1795,0.1795,0.1795,0.1795,0.1795,0.157,0.1402,0.1402,0.1234,0.1346,0.1795,0.1795,0.1795,0.1795,0.1795,0.1806,0.1828,0.1772,0.1772,0.1772,0.1807,0.1795,0.1795,0.1795,0.1795,0.1795,0.1795,0.1795,0.1795,0.1795,0.0,0.0,0.0,0.0,0.0,0.0,0.0,0.0,0.0,0.0212,0.0,0.0,0.0,0.0,0.0,0.0,0.0,0.0,0.0,0.0,0.0,0.0,0.0,0.0,0.0,0.0,0.0,0.0,0.0,0.0,0.0,0.0,0.0,0.0,0.0,0.0,0.0,0.0,0.0,0.0,0.0,0.0,0.0,0.0,0.0,0.0,0.0,0.0,0.0,0.0,0.0,0.0,0.0,0.0,0.0,0.0,0.0,0.0,0.0,0.0252,0.0556,0.0,0.0,0.0,0.0,0.0,0.0,0.0,0.0,0.0,0.0,0.0,0.0114,0.0282,0.0449,0.0897,0.1121,0.1121,0.129,0.1458,0.157,0.157,0.1683,0.1795,0.1795,0.1795,0.1795,0.1627,0.157,0.157,0.129,0.1121,0.1121,0.0953,0.1065,0.1402,0.1413,0.1474,0.1645,0.1771,0.1844,0.1859,0.186,0.1861,0.1859,0.1831,0.1815,0.1815,0.1802,0.1795,0.1795,0.1795,0.1795,0.1795,0.1795,0.1795,0.0,0.0,0.0,0.0,0.0,0.0,0.0,0.0,0.0,0.0,0.0,0.0,0.0,0.0,0.0,0.0,0.0,0.0,0.0,0.0,0.0,0.0,0.0,0.0,0.0,0.0,0.0,0.0,0.0,0.0,0.0,0.0,0.0,0.0,0.0,0.0,0.0,0.0,0.0,0.0,0.0,0.0,0.0,0.0,0.0,0.0,0.0,0.0,0.0,0.0,0.0,0.0,0.0,0.0,0.0,0.0,0.0,0.0,0.0202,0.0455,0.0,0.0,0.0,0.0,0.0,0.0,0.0,0.0,0.0,0.0,0.0,0.0232,0.0343,0.0395,0.0677,0.0847,0.0847,0.0903,0.1016,0.1242,0.1242,0.1411,0.1693,0.1693,0.1693,0.1693,0.1411,0.124,0.1238,0.0956,0.0843,0.0841,0.0785,0.0786,0.0788,0.0801,0.0981,0.1327,0.1641,0.1832,0.1832,0.1892,0.1892,0.189,0.1858,0.1783,0.1782,0.1811,0.1795,0.1795,0.1795,0.1795,0.1795,0.1795,0.1795,0.0,0.1795,0.0,0.0,0.0,0.0,0.0,0.0,0.0,0.0,0.0,0.0,0.0,0.0,0.0,0.0,0.0,0.0,0.0,0.0,0.0,0.0,0.0,0.0,0.0,0.0,0.0,0.0,0.0,0.0,0.0,0.0,0.0,0.0,0.0,0.0,0.0,0.0,0.0,0.0,0.0,0.0,0.0,0.0,0.0,0.0,0.0,0.0,0.0,0.0,0.0,0.0,0.0,0.0,0.0,0.0,0.0,0.0,0.0151,0.0353,0.0,0.0,0.0,0.0,0.0,0.0,0.0,0.0,0.0,0.0,0.0,0.0059,0.0117,0.0117,0.035,0.0467,0.0525,0.0759,0.0934,0.0992,0.0992,0.0992,0.1051,0.1051,0.1051,0.1051,0.0992,0.0985,0.0973,0.0629,0.0511,0.0505,0.028,0.0169,0.0172,0.0,0.0,0.0,0.1311,0.1502,0.1502,0.1742,0.1863,0.1921,0.1811,0.0,0.1782,0.1812,0.1795,0.1795,0.1795,0.0,0.0,0.0,0.0,0.0,0.0,0.0,0.0,0.0,0.0,0.0,0.0559,0.0279,0.0,0.0,0.0,0.0,0.0,0.0,0.0,0.0,0.0,0.0,0.0,0.0,0.0,0.0,0.0,0.0,0.0,0.0,0.0,0.0,0.0,0.0,0.0,0.0,0.0,0.0,0.0,0.0,0.0,0.0,0.0,0.0,0.0,0.0,0.0,0.0,0.0,0.0,0.0,0.0,0.0,0.0,0.0,0.0,0.0,0.0,0.0,0.0,0.0,0.0,0.0151,0.0,0.0,0.0,0.0,0.0,0.0,0.0,0.0,0.0,0.0,0.0,0.0,0.0,0.0,0.0118,0.0177,0.0177,0.0353,0.053,0.0648,0.0648,0.0707,0.0884,0.0884,0.0884,0.0884,0.0766,0.0645,0.064,0.0349,0.0174,0.023,0.0057,0.0,0.0,0.0,0.0239,0.0724,0.1033,0.1282,0.1465,0.1648,0.177,0.1953,0.1909,0.0,0.0,0.0,0.0,0.0,0.0,0.0,0.0,0.1795,0.0,0.1795,0.1795,0.1795,0.1795,0.1458,0.1177,0.0897,0.0448,0.0168,0.0,0.0,0.0,0.0,0.0,0.0,0.0,0.0,0.0,0.0,0.0,0.0,0.0,0.0,0.0,0.0,0.0,0.0,0.0,0.0,0.0,0.0,0.0,0.0,0.0,0.0,0.0,0.0,0.0,0.0,0.0,0.0,0.0,0.0,0.0,0.0,0.0,0.0,0.0,0.0,0.0,0.0,0.0,0.0,0.0,0.0,0.0,0.0,0.0,0.0,0.0,0.0,0.0,0.0,0.0,0.0,0.0,0.0,0.0,0.0,0.0,0.0,0.0,0.0,0.0,0.0,0.0,0.0,0.0,0.0119,0.0297,0.0297,0.0475,0.0772,0.0713,0.0772,0.0713,0.0475,0.0297,0.0296,0.0118,0.0,0.0,0.0,0.0,0.0,0.0,0.0122,0.0432,0.0741,0.105,0.1297,0.142,0.1606,0.1915,0.1886,0.1917,0.1887,0.1857,0.1826,0.1797,0.1795,0.1795,0.1795,0.1795,0.1795,0.1795,0.1795,0.1795,0.1795,0.1458,0.1065,0.0729,0.028,0.0,0.0,0.0,0.0,0.0,0.0,0.0,0.0,0.0,0.0,0.0,0.0,0.0,0.0,0.0,0.0,0.0,0.0,0.0,0.0,0.0,0.0,0.0,0.0,0.0,0.0,0.0,0.0,0.0,0.0,0.0,0.0,0.0,0.0,0.0,0.0,0.0,0.0,0.0,0.0,0.0,0.0,0.0,0.0,0.0,0.0,0.0,0.0,0.0,0.0,0.0,0.0,0.0,0.0,0.0,0.0,0.0,0.0,0.0,0.0,0.0,0.0,0.0,0.0,0.0,0.0,0.0,0.0,0.0,0.0,0.0,0.0061,0.0061,0.0061,0.0123,0.0123,0.0123,0.0123,0.0,0.0061,0.0,0.0,0.0,0.0,0.0,0.0,0.0,0.0,0.0,0.0062,0.0371,0.0618,0.0679,0.1173,0.1483,0.1543,0.1764,0.1917,0.1886,0.1857,0.1826,0.1797,0.1795,0.1795,0.1795,0.1795,0.1795,0.1795,0.1795,0.1795,0.1795,0.129,0.0729,0.0168,0.0056,0.0,0.0,0.0,0.0,0.0,0.0,0.0,0.0,0.0,0.0,0.0,0.0,0.0,0.0,0.0,0.0,0.0,0.0,0.0,0.0,0.0,0.0,0.0,0.0,0.0,0.0,0.0,0.0,0.0,0.0,0.0,0.0,0.0,0.0,0.0,0.0,0.0,0.0,0.0,0.0,0.0,0.0,0.0,0.0,0.0,0.0,0.0,0.0,0.0,0.0,0.0,0.0,0.0,0.0,0.0,0.0,0.0,0.0,0.0,0.0,0.0,0.0,0.0,0.0,0.0,0.0,0.0,0.0,0.0,0.0,0.0,0.0,0.0,0.0,0.0,0.0,0.0,0.0,0.0,0.0,0.0,0.0,0.0,0.0,0.0,0.0,0.0,0.0,0.0,0.0,0.0124,0.0309,0.0494,0.0803,0.105,0.1235,0.1533,0.1691,0.1651,0.1755,0.1843,0.1797,0.1795,0.1795,0.1795,0.1795,0.1795,0.1795,0.1795,0.1739,0.1514,0.0953,0.0448,0.0,0.0,0.0,0.0,0.0,0.0,0.0,0.0,0.0,0.0,0.0,0.0,0.0,0.0,0.0,0.0,0.0,0.0,0.0,0.0,0.0,0.0,0.0,0.0,0.0,0.0,0.0,0.0,0.0,0.0,0.0,0.0,0.0,0.0,0.0,0.0,0.0,0.0,0.0,0.0,0.0,0.0,0.0,0.0,0.0,0.0,0.0,0.0,0.0,0.0,0.0,0.0,0.0,0.0,0.0,0.0,0.0,0.0,0.0,0.0,0.0,0.0,0.0,0.0,0.0,0.0,0.0,0.0,-0.0062,0.0,-0.0124,-0.0185,0.0,-0.0247,-0.0124,-0.0124,-0.0124,-0.0062,0.0,0.0,0.0,0.0,0.0,0.0,0.0,0.0,0.0,0.0,0.0,0.0,0.0,0.0,0.0,0.0124,0.0371,0.0432,0.0618,0.0864,0.1292,0.1456,0.1417,0.1703,0.1851,0.18,0.1795,0.1795,0.1795,0.1795,0.1795,0.1795,0.1795,0.1627,0.1234,0.0729,0.028,0.0,0.0,0.0,0.0,0.0,0.0,0.0,0.0,0.0,0.0,0.0,0.0,0.0,0.0,0.0,0.0,0.0,0.0,0.0,0.0,0.0,0.0,0.0,0.0,0.0,0.0,0.0,0.0,0.0,0.0,0.0,0.0,0.0,0.0,0.0,0.0,0.0,0.0,0.0,0.0,0.0,0.0,0.0,0.0,0.0,0.0,0.0,0.0,0.0,0.0,0.0,0.0,0.0,0.0,0.0,0.0,0.0,0.0,0.0,0.0,0.0,0.0,0.0,0.0,0.0,0.0,0.0,0.0,-0.0309,-0.0432,-0.0494,-0.0741,-0.0865,-0.0865,-0.0618,-0.0432,-0.0371,-0.0124,0.0,0.0,0.0,0.0,0.0,0.0,0.0,0.0,0.0,0.0,0.0,0.0,0.0,0.0,0.0,0.0,0.0062,0.0371,0.0494,0.0555,0.1097,0.138,0.1356,0.1685,0.1829,0.1799,0.1795,0.1795,0.1795,0.1795,0.1795,0.1795,0.1795,0.157,0.1009,0.0617,0.028,0.0,0.0,0.0,0.0,0.0,0.0,0.0,0.0,0.0,0.0,0.0,0.0,0.0,0.0,0.0,0.0,0.0,0.0,0.0,0.0,0.0,0.0,0.0,0.0,0.0,0.0,0.0,0.0,0.0,0.0,0.0,0.0,0.0,0.0,0.0,0.0,0.0,0.0,0.0,0.0,0.0,0.0,0.0,0.0,0.0,0.0,0.0,0.0,0.0,0.0,0.0,0.0,0.0,0.0,0.0,0.0,0.0,0.0,0.0,0.0,0.0,0.0,0.0,0.0,0.0,-0.0247,-0.0309,-0.0309,-0.0432,-0.0618,-0.0803,-0.0926,-0.0988,-0.0988,-0.0679,-0.0494,-0.0494,-0.0124,0.0,0.0,0.0,0.0,0.0,0.0,0.0,0.0,0.0,0.0,0.0,0.0,0.0,0.0,0.0,0.0,0.0,0.0124,0.0185,0.0247,0.0614,0.0967,0.1122,0.1405,0.1672,0.18,0.1795,0.1795,0.1795,0.1795,0.1795,0.1795,0.1458,0.1177,0.0897,0.0448,0.0112,0.0,0.0,0.0,0.0,0.0,0.0,0.0,0.0,0.0,0.0,0.0,0.0,0.0,0.0,0.0,0.0,0.0,0.0,0.0,0.0,0.0,0.0,0.0,0.0,0.0,0.0,0.0,0.0,0.0,0.0,0.0,0.0,0.0,0.0,0.0,0.0,0.0,0.0,0.0,0.0,0.0,0.0,0.0,0.0,0.0,0.0,0.0,0.0,0.0,0.0,0.0,0.0,0.0,0.0,0.0,0.0,0.0,0.0,0.0,0.0,0.0,0.0,0.0,-0.0063,-0.0188,-0.0375,-0.0624,-0.0745,-0.0804,-0.0926,-0.1112,-0.1235,-0.1297,-0.1235,-0.0926,-0.0741,-0.0618,-0.0309,-0.0062,0.0,0.0,0.0,0.0,0.0,0.0,0.0,0.0,0.0,0.0,0.0,0.0,0.0,0.0,0.0,0.0,0.0,0.0,0.0,0.0369,0.0728,0.0891,0.1299,0.1629,0.181,0.1808,0.1804,0.1795,0.1795,0.1795,0.1739,0.129,0.1009,0.1009,0.0561,0.0224,0.0224,0.0168,0.0112,0.0112,0.0056,0.0,0.0,0.0,0.0,0.0,0.0,0.0,0.0,0.0,0.0,0.0,0.0,0.0,0.0,0.0,0.0,0.0,0.0,0.0,0.0,0.0,0.0,0.0,0.0,0.0,0.0,0.0,0.0,0.0,0.0,0.0,0.0,0.0,0.0,0.0,0.0,0.0,0.0,0.0,0.0,0.0,0.0,0.0,0.0,0.0,0.0,0.0,0.0,0.0,0.0,0.0,0.0,0.0,0.0,0.0,0.0,0.0,0.0,-0.0193,-0.045,-0.0515,-0.083,-0.1385,-0.1431,-0.1483,-0.1544,-0.1791,-0.1915,-0.1853,-0.1544,-0.1297,-0.0988,-0.0618,-0.0309,0.0,0.0,0.0,0.0,0.0,0.0,0.0,0.0,0.0,0.0,0.0,0.0,0.0,0.0,0.0,0.0,0.0,0.0,0.0,0.0548,0.0846,0.0962,0.1544,0.1871,0.1782,0.1781,0.1826,0.1801,0.1798,0.1799,0.1742,0.1461,0.1292,0.1236,0.1012,0.0843,0.0786,0.0563,0.0393,0.0394,0.0225,0.0,0.0,0.0,0.0,0.0,0.0,0.0,0.0,0.0,0.0,0.0,0.0,0.0,0.0,0.0,0.0,0.0,0.0,0.0,0.0,0.0,0.0,0.0,0.0,0.0,0.0,0.0,0.0,0.0,0.0,0.0,0.0,0.0,0.0,0.0,0.0,0.0,0.0,0.0,0.0,0.0,0.0,0.0,0.0,0.0,0.0,0.0,0.0,0.0,0.0,0.0,0.0,0.0,0.0,0.0,0.0,0.0,0.0,-0.0194,-0.0517,-0.071,-0.1093,-0.1534,-0.1764,-0.1806,-0.1854,-0.1915,-0.2038,-0.1977,-0.1668,-0.1297,-0.0988,-0.0679,-0.0309,0.0,0.0,0.0,0.0,0.0,0.0,0.0,0.0,0.0,0.0,0.0,0.0,0.0,0.0,0.0,0.0,0.0185,0.0309,0.0309,0.0553,0.0792,0.1207,0.144,0.1663,0.187,0.1869,0.1864,0.1855,0.1853,0.1853,0.1853,0.1563,0.139,0.1332,0.11,0.0984,0.0984,0.0868,0.0752,0.0753,0.0695,0.0579,0.0405,0.0347,0.0232,0.0,0.0,0.0,0.0,0.0,0.0,0.0,0.0,0.0,0.0,0.0,0.0,0.0,0.0,0.0,0.0,0.0,0.0,0.0,0.0,0.0,0.0,0.0,0.0,0.0,0.0,0.0,0.0,0.0,0.0,0.0,0.0,0.0,0.0,0.0,0.0,0.0,0.0,0.0,0.0,0.0,0.0,0.0,0.0,0.0,0.0,0.0,0.0,0.0,0.0,0.0,0.0,0.0,-0.0131,-0.0327,-0.072,-0.1046,-0.1435,-0.1752,-0.1928,-0.2032,-0.2066,-0.1987,-0.2038,-0.1977,-0.1668,-0.1297,-0.0988,-0.0679,-0.0309,0.0,0.0,0.0,0.0,0.0,0.0,0.0,0.0,0.0,0.0,0.0124,0.0124,0.0185,0.0247,0.0,0.0371,0.0556,0.0741,0.0803,0.0803,0.0983,0.1399,0.152,0.169,0.1846,0.19,0.1896,0.1887,0.1885,0.1885,0.1885,0.1708,0.1531,0.1531,0.1355,0.1295,0.1296,0.1178,0.1119,0.1119,0.106,0.0824,0.0589,0.0471,0.0353,0.0,0.0,0.0,0.0,0.0,0.0,0.0,0.0,0.0,0.0,0.0,0.0,0.0,0.0,0.0,0.0,0.0,0.0,0.0,0.0,0.0,0.0,0.0,0.0,0.0,0.0,0.0,0.0,0.0,0.0,0.0,0.0,0.0,0.0,0.0,0.0,0.0,0.0,0.0,0.0,0.0,0.0,0.0,0.0,0.0,0.0,0.0,0.0,0.0,0.0,0.0,0.0,0.0,-0.0336,-0.067,-0.1071,-0.141,-0.1731,-0.2047,-0.2101,-0.2089,-0.212,-0.2009,-0.1984,-0.1981,-0.1669,-0.136,-0.099,-0.0681,-0.031,0.0,0.0,0.0,0.0,0.0,0.0,0.0,0.0,0.0,0.0,0.0371,0.0494,0.0556,0.0741,0.0926,0.0988,0.0988,0.1112,0.1359,0.142,0.1481,0.1542,0.1789,0.196,0.1936,0.1931,0.1917,0.1898,0.1894,0.189,0.1894,0.189,0.1889,0.189,0.1834,0.1777,0.1778,0.1595,0.1422,0.1423,0.1244,0.0947,0.0652,0.0533,0.0414,0.0,0.0,0.0,0.0,0.0,0.0,0.0,0.0,0.0,0.0,0.0,0.0,0.0,0.0,0.0,0.0,0.0,0.0,0.0,0.0,0.0,0.0,0.0,0.0,0.0,0.0,0.0,0.0,0.0,0.0,0.0,0.0,0.0,0.0,0.0,0.0,0.0,0.0,0.0,0.0,0.0,0.0,0.0,0.0,0.0,0.0,0.0,0.0,0.0,0.0,0.0,0.0,0.0,-0.0337,-0.0741,-0.1077,-0.1481,-0.1813,-0.207,-0.2119,-0.2104,-0.2092,-0.2054,-0.2026,-0.1943,-0.1676,-0.1305,-0.1002,-0.0627,-0.0315,0.0,0.0,0.0,0.0,0.0,0.0,0.0,0.0248,0.0309,0.0371,0.0679,0.0865,0.0865,0.0926,0.0988,0.105,0.1235,0.142,0.1483,0.173,0.1853,0.1853,0.1915,0.1973,0.1962,0.1962,0.1958,0.1949,0.1948,0.2009,0.2009,0.1948,0.1949,0.1948,0.1947,0.1946,0.1947,0.1887,0.1826,0.1826,0.1703,0.1398,0.0973,0.0852,0.0608,0.0,0.0,0.0,0.0,0.0,0.0,0.0,0.0,0.0,0.0,0.0,0.0,0.0,0.0,0.0,0.0,0.0,0.0,0.0,0.0,0.0,0.0,0.0,0.0,0.0,0.0,0.0,0.0,0.0,0.0,0.0,0.0,0.0,0.0,0.0,0.0,0.0,0.0,0.0,0.0,0.0,0.0,0.0,0.0,0.0,0.0,0.0,0.0,0.0,0.0,0.0,0.0,0.0,-0.0539,-0.0875,-0.1144,-0.1616,-0.1953,-0.2151,-0.2134,-0.2126,-0.2123,-0.2029,-0.1876,-0.1794,-0.1453,-0.1137,-0.0827,-0.0446,-0.0192,0.0,0.0,0.0,0.0,0.0,0.0,0.0,0.0378,0.0565,0.0752,0.0998,0.1182,0.1182,0.1301,0.1359,0.142,0.1544,0.1668,0.173,0.1915,0.1977,0.2038,0.2038,0.2038,0.2038,0.2038,0.2038,0.2038,0.2038,0.2038,0.2038,0.2038,0.2038,0.2038,0.2035,0.2038,0.2038,0.2038,0.2038,0.1976,0.1915,0.1544,0.1112,0.0864,0.0618,0.0,0.0,0.0,0.0,0.0,0.0,0.0,0.0,0.0,0.0,0.0,0.0,0.0,0.0,0.0,0.0,0.0,0.0,0.0,0.0,0.0,0.0,0.0,0.0,0.0,0.0,0.0,0.0,0.0,0.0,0.0,0.0,0.0,0.0,0.0,0.0,0.0,0.0,0.0,0.0,0.0,0.0,0.0,0.0,0.0,0.0,0.0,0.0,0.0,0.0,0.0,0.0,0.0,-0.0741,-0.1077,-0.1279,-0.1818,-0.2155,-0.2222,-0.2151,-0.2083,-0.2082,-0.1727,-0.1517,-0.1379,-0.1106,-0.0776,-0.0452,-0.0194,0.0,0.0,0.0,0.0,0.0,0.0,0.0194,0.0388,0.0451,0.0645,0.0962,0.1271,0.1389,0.1513,0.1746,0.1858,0.192,0.1977,0.1977,0.1977,0.1977,0.2038,0.2038,0.2038,0.2038,0.2038,0.2038,0.2038,0.2038,0.2038,0.2038,0.2038,0.2038,0.2038,0.2038,0.2038,0.2038,0.2038,0.2038,0.1977,0.1915,0.1668,0.1359,0.0988,0.0679,0.0371,0.0,0.0,0.0,0.0,0.0,0.0,0.0,0.0,0.0,0.0,0.0,0.0,0.0,0.0,0.0,0.0,0.0,0.0,0.0,0.0,0.0,0.0,0.0,0.0,0.0,0.0,0.0,0.0,0.0,0.0,0.0,0.0,0.0,0.0,0.0,0.0,0.0,0.0,0.0,0.0,0.0,0.0,0.0,0.0,0.0,0.0,0.0,0.0,0.0,0.0,0.0,0.0,0.0,-0.0741,-0.1077,-0.1279,-0.1885,-0.2155,-0.2155,-0.1885,-0.1751,-0.1681,-0.1408,-0.1071,-0.0803,-0.0667,-0.0463,-0.0197,0.0,0.0,0.0,0.0,0.0,0.0,0.0,0.0,0.0131,0.039,0.0582,0.0709,0.1029,0.1282,0.1472,0.158,0.1757,0.1941,0.1987,0.2038,0.2038,0.2038,0.2038,0.2038,0.2038,0.2038,0.2038,0.2038,0.2038,0.2038,0.2038,0.2038,0.2038,0.2038,0.2038,0.2038,0.2038,0.2038,0.2038,0.2038,0.1915,0.1668,0.1544,0.1173,0.0803,0.0556,0.0371,0.0,0.0,0.0,0.0,0.0,0.0,0.0,0.0,0.0,0.0,0.0,0.0,0.0,0.0,0.0,0.0,0.0,0.0,0.0,0.0,0.0,0.0,0.0,0.0,0.0,0.0,0.0,0.0,0.0,0.0,0.0,0.0,0.0,0.0,0.0,0.0,0.0,0.0,0.0,0.0,0.0,0.0,0.0,0.0,0.0,0.0,0.0,0.0,0.0,0.0,0.0,0.0,0.0,-0.0606,-0.0875,-0.101,-0.1481,-0.1751,-0.1683,-0.1481,-0.1414,-0.1346,-0.101,-0.074,-0.0538,-0.0336,-0.0201,0.0,0.0,0.0,0.0,0.0,0.0,0.0,0.0,0.0,0.0266,0.0396,0.0592,0.0789,0.0914,0.1041,0.1233,0.1283,0.1464,0.178,0.1758,0.1872,0.1991,0.1984,0.2038,0.2038,0.2038,0.2038,0.2038,0.2038,0.2038,0.2038,0.2038,0.2038,0.2038,0.2038,0.2038,0.2038,0.2038,0.2038,0.2038,0.2038,0.1853,0.1544,0.1359,0.105,0.0618,0.0371,0.0185,0.0,0.0,0.0,0.0,0.0,0.0,0.0,0.0,0.0,0.0,0.0,0.0,0.0,0.0,0.0,0.0,0.0,0.0,0.0,0.0,0.0062,0.0185,0.0247,0.0432,0.0618,0.0679,0.0679,0.0865,0.0741,0.0432,0.0,0.0,0.0,0.0,0.0,0.0,0.0,0.0,0.0,0.0,0.0,0.0,0.0,0.0,0.0,0.0,0.0,0.0,0.0,0.0,0.0,0.0,0.0,-0.0404,-0.0539,-0.0606,-0.0943,-0.1212,-0.1077,-0.1077,-0.101,-0.101,-0.0606,-0.0471,-0.0337,0.0,0.0,0.0,0.0,0.0,0.0,0.0,0.0,0.0,0.0,0.0,0.0269,0.0403,0.0605,0.0736,0.0863,0.0925,0.0922,0.0977,0.1164,0.1483,0.1594,0.1708,0.202,0.2006,0.2059,0.2055,0.199,0.1991,0.1987,0.2043,0.2039,0.2038,0.2038,0.2038,0.2038,0.2038,0.2038,0.2038,0.2038,0.2038,0.2038,0.1977,0.1794,0.1425,0.1117,0.0808,0.0437,0.0186,0.0,0.0,0.0,0.0,0.0,0.0,0.0,0.0,0.0,0.0,0.0,0.0,0.0,0.0,0.0,0.0,0.0,0.0,0.0,0.0,0.0,0.0309,0.0556,0.0618,0.0679,0.0865,0.105,0.0988,0.0988,0.0803,0.0,0.0,0.0,0.0,0.0,0.0,0.0,0.0,0.0,0.0,0.0,0.0,0.0,0.0,0.0,0.0,0.0,0.0,0.0,0.0,0.0,0.0,0.0,0.0,-0.0337,-0.0471,-0.0539,-0.0875,-0.1077,-0.101,-0.0741,-0.0606,-0.0606,-0.0269,-0.0135,-0.0067,-0.0067,0.0,0.0,0.0,0.0,0.0,0.0,0.0,0.0,0.0,0.0,0.0,0.0,0.0,0.0,0.0,0.0335,0.0535,0.0594,0.0918,0.1439,0.1488,0.1668,0.205,0.2109,0.2108,0.2109,0.2109,0.2045,0.2035,0.2067,0.2046,0.2046,0.2044,0.2045,0.1984,0.2043,0.2041,0.204,0.2044,0.1978,0.1982,0.1737,0.149,0.113,0.0817,0.0506,0.0191,0.0,0.0,0.0,0.0,0.0,0.0,0.0,0.0,0.0,0.0,0.0,0.0,0.0,0.0,0.0,0.0,0.0,0.0,0.0,0.0,0.0247,0.0371,0.0618,0.0865,0.0926,0.0988,0.1235,0.1297,0.1173,0.0988,0.0803,0.0,0.0,0.0,0.0,0.0,0.0,0.0,0.0,0.0,0.0,0.0,0.0,0.0,0.0,0.0,0.0,0.0,0.0,0.0,0.0,0.0,0.0,0.0,0.0,-0.0202,-0.0269,-0.0337,-0.0539,-0.0606,-0.0539,-0.0337,-0.0269,-0.0202,0.0,0.0,0.0,0.0,0.0,0.0,0.0,0.0,0.0,0.0,0.0,0.0,0.0,0.0,0.0,0.0,0.0,0.0,0.0,0.0,0.0202,0.0267,0.0599,0.1262,0.1313,0.1556,0.2002,0.2129,0.2129,0.2127,0.2128,0.2128,0.2056,0.2035,0.2081,0.208,0.208,0.208,0.2081,0.2017,0.2081,0.2081,0.2018,0.1956,0.1764,0.1576,0.1266,0.0892,0.0574,0.0384,0.0,0.0,0.0,0.0,0.0,0.0,0.0,0.0,0.0,0.0,0.0,0.0,0.0,0.0,0.0,0.0,0.0,0.0,0.0,0.0,0.0309,0.0432,0.0618,0.0926,0.1112,0.1173,0.1359,0.1544,0.1544,0.1297,0.105,0.0803,0.0494,0.0,0.0,0.0,0.0,0.0,0.0,0.0,0.0,0.0,0.0,0.0,0.0,0.0,0.0,0.0,0.0,0.0,0.0,0.0,0.0,0.0,0.0,0.0,0.0,0.0,0.0,0.0,0.0,0.0,0.0,0.0,0.0,0.0,0.0,0.0,0.0,0.0,0.0,0.0,0.0,0.0,0.0,0.0,0.0,0.0,0.0,0.0,0.0,0.0,0.0,0.0,0.0,0.0,0.0,0.0403,0.1007,0.113,0.1447,0.2026,0.2152,0.2152,0.2153,0.2151,0.2147,0.2078,0.2143,0.2143,0.214,0.213,0.2129,0.2126,0.2121,0.2119,0.2117,0.2057,0.193,0.1548,0.1418,0.1162,0.0711,0.0454,0.026,0.0,0.0,0.0,0.0,0.0,0.0,0.0,0.0,0.0,0.0,0.0,0.0,0.0,0.0,0.0,0.0,0.0,0.0,0.0124,0.0371,0.0556,0.0679,0.0865,0.1173,0.142,0.1544,0.1544,0.1791,0.1606,0.1359,0.105,0.0741,0.0371,0.0,0.0,0.0,0.0,0.0,0.0,0.0,0.0,0.0,0.0,0.0,0.0,0.0,0.0,0.0,0.0,0.0,0.0,0.0,0.0,0.0,0.0,0.0,0.0,0.0,0.0,0.0,0.0,0.0,0.0,0.0,0.0,0.0,0.0,0.0,0.0,0.0,0.0,0.0,0.0,0.0,0.0,0.0,0.0,0.0,0.0,0.0,0.0,0.0,0.0,0.0,0.0,0.0,0.0,0.0,0.0874,0.114,0.1471,0.2064,0.2195,0.2197,0.2202,0.2204,0.2206,0.2206,0.2206,0.2204,0.2192,0.2157,0.2138,0.2137,0.2138,0.2141,0.214,0.2069,0.1872,0.1548,0.1229,0.0911,0.0524,0.0,0.0,0.0,0.0,0.0,0.0,0.0,0.0,0.0,0.0,0.0,0.0,0.0,0.0,0.0,0.0,0.0,0.0,0.0,0.0,0.031,0.0556,0.0865,0.1112,0.1297,0.1544,0.173,0.1915,0.1915,0.1977,0.1668,0.1359,0.105,0.0741,0.0371,0.0,0.0,0.0,0.0,0.0,0.0,0.0,0.0,0.0,0.0,0.0,0.0,0.0,-0.0247,-0.0371,0.0,0.0,0.0,0.0,0.0,0.0,0.0,0.0,0.0,0.0,0.0,0.0,0.0,0.0,0.0,0.0,0.0,0.0,0.0,0.0,0.0,0.0,0.0,0.0,0.0,0.0,0.0,0.0,0.0,0.0,0.0,0.0,0.0,0.0,0.0,0.0,0.0,0.0,0.0,0.0269,0.0808,0.1144,0.1683,0.202,0.2222,0.2222,0.2222,0.2222,0.2221,0.2221,0.2221,0.2222,0.2213,0.2131,0.211,0.2174,0.2174,0.2176,0.211,0.1979,0.165,0.132,0.0988,0.0595,0.0332,0.0,0.0,0.0,0.0,0.0,0.0,0.0,0.0,0.0,0.0,0.0,0.0,0.0,0.0,0.0,0.0,0.0,0.0,0.0,0.0,0.056,0.0804,0.1112,0.1483,0.1668,0.1791,0.1853,0.1977,0.1977,0.1915,0.1544,0.1297,0.105,0.0,0.0,0.0,0.0,0.0,0.0,0.0,0.0,0.0,0.0,0.0,0.0,0.0,0.0,0.0,-0.0432,-0.0618,0.0,0.0,0.0,0.0,0.0,0.0,0.0,0.0,0.0,0.0,0.0,0.0,0.0,0.0,0.0,0.0,0.0,0.0,0.0,0.0,0.0,0.0,0.0,0.0,0.0,0.0,0.0,0.0,0.0,0.0,0.0,0.0,0.0,0.0,0.0,0.0,0.0,0.0,0.0,0.0,0.0673,0.1279,0.1818,0.2155,0.2222,0.2222,0.2222,0.2222,0.2222,0.2222,0.2222,0.2222,0.2222,0.2222,0.2222,0.2222,0.2222,0.2155,0.2018,0.1815,0.1474,0.1005,0.0672,0.0336,0.0,0.0,0.0,0.0,0.0,0.0,0.0,0.0,0.0,0.0,0.0,0.0,0.0,0.0,0.0,0.0,0.0,0.0131,0.0258,0.0318,0.0507,0.0875,0.118,0.1359,0.1668,0.1791,0.1915,0.1977,0.2038,0.2038,0.1791,0.142,0.1173,0.105,0.0,0.0,0.0,0.0,0.0,0.0,0.0,0.0,0.0,0.0,0.0,0.0,0.0,-0.0185,-0.0371,-0.0679,-0.0926,0.0,0.0,0.0,0.0,0.0,0.0,0.0,0.0,0.0,0.0,0.0,0.0,0.0,0.0,0.0,0.0,0.0,0.0,0.0,0.0,0.0,0.0,0.0,0.0,0.0,0.0,0.0,0.0,0.0,0.0,0.0,0.0,0.0,0.0,0.0,0.0,0.0,0.0,0.0,0.0,0.0875,0.1346,0.1683,0.202,0.2155,0.2155,0.2155,0.2222,0.2222,0.2222,0.2222,0.2222,0.2222,0.2222,0.2222,0.2222,0.2155,0.2087,0.1751,0.1548,0.1279,0.0741,0.0471,0.0337,0.0,0.0,0.0,0.0,0.0,0.0,0.0,0.0,0.0,0.0,0.0,0.0,0.0,0.0,0.0,0.0,0.0,0.0465,0.0525,0.0584,0.0705,0.1137,0.1496,0.1674,0.1791,0.1915,0.1977,0.1977,0.2038,0.2038,0.1853,0.1359,0.1112,0.0989,0.0,0.0,0.0,0.0,0.0,0.0,0.0,0.0,0.0,0.0,0.0,0.0,0.0,-0.0309,-0.0432,-0.0803,-0.1235,0.0,0.0,0.0,0.0,0.0,0.0,0.0,0.0,0.0,0.0,0.0,0.0,0.0,0.0,0.0,0.0,0.0,0.0,0.0,0.0,0.0,0.0,0.0,0.0,0.0,0.0,0.0,0.0,0.0,0.0,0.0,0.0,0.0,0.0,0.0,0.0,0.0,0.0,0.0,0.0,0.0673,0.0943,0.1279,0.1818,0.1818,0.1953,0.2155,0.2222,0.2222,0.2222,0.2222,0.2087,0.1953,0.1818,0.1818,0.1548,0.1548,0.1548,0.1548,0.1213,0.0876,0.0606,0.0337,0.0135,0.0,0.0,0.0,0.0,0.0,0.0,0.0,0.0,0.0,0.0,0.0,0.0269,0.0337,0.0606,0.0,0.0,0.074,0.087,0.0929,0.1046,0.1094,0.133,0.1626,0.1798,0.1916,0.1977,0.1977,0.2038,0.2038,0.2038,0.1791,0.1421,0.1114,0.0928,0.0,0.0,0.0,0.0,0.0,0.0,0.0,0.0,0.0,0.0,0.0,0.0,0.0,-0.0432,-0.0618,-0.105,-0.1359,0.0,0.0,0.0,0.0,0.0,0.0,0.0,0.0,0.0,0.0,0.0,0.0,0.0,0.0,0.0,0.0,0.0,0.0,0.0,0.0,0.0,0.0,0.0,0.0,0.0,0.0,0.0,0.0,0.0,0.0,0.0,0.0,0.0,0.0,0.0,0.0,0.0,0.0,0.0,0.0,0.0471,0.0539,0.0943,0.1279,0.1481,0.1616,0.1885,0.1885,0.1885,0.1885,0.1885,0.1686,0.1489,0.1492,0.1428,0.1227,0.1093,0.1092,0.1091,0.0884,0.0542,0.0339,0.0,0.0,0.0,0.0,0.0,0.0,0.0,0.0,0.0,0.0,0.0,0.0,0.0539,0.0606,0.0673,0.0875,0.101,0.0943,0.101,0.1279,0.14,0.1575,0.1616,0.1654,0.1821,0.1986,0.2044,0.2044,0.199,0.1994,0.2069,0.2007,0.1881,0.1564,0.1248,0.0869,0.0372,0.0,0.0,0.0,0.0,0.0,0.0,0.0,0.0,0.0,0.0,0.0,-0.0247,-0.0494,-0.0803,-0.1173,-0.1359,0.0,0.0,0.0,0.0,0.0,0.0,0.0,0.0,0.0,0.0,0.0,0.0,0.0,0.0,0.0,0.0,0.0,0.0,0.0,0.0,0.0,0.0,0.0,0.0,0.0,0.0,0.0,0.0,0.0,0.0,0.0,0.0,0.0,0.0,0.0,0.0,0.0,0.0,0.0,0.0,0.0338,0.0473,0.0676,0.1013,0.1146,0.1144,0.1213,0.1284,0.1286,0.1354,0.1355,0.1224,0.1165,0.1098,0.1033,0.0901,0.0695,0.0625,0.0555,0.0552,0.0343,0.0138,0.0,0.0,0.0,0.0,0.0,0.0,0.0,0.0,0.0344,0.048,0.0613,0.0745,0.0878,0.101,0.1077,0.1144,0.1279,0.1212,0.1346,0.1616,0.1681,0.1856,0.189,0.186,0.1886,0.1988,0.1994,0.1996,0.2009,0.2021,0.2106,0.205,0.199,0.1663,0.1142,0.0819,0.0377,0.0,0.0,0.0,0.0,0.0,0.0,0.0,0.0,0.0,0.0,0.0,-0.0247,-0.0556,-0.0741,-0.0988,-0.1112,0.0,0.0,0.0,0.0,0.0,0.0,0.0,0.0,0.0,0.0,0.0,0.0,0.0,0.0,0.0,0.0,0.0,0.0,0.0,0.0,0.0,0.0,0.0,0.0,0.0,0.0,0.0,0.0,0.0,0.0,0.0,0.0,0.0,0.0,0.0,0.0,0.0,0.0,0.0,0.0,0.0138,0.0207,0.0345,0.069,0.069,0.0898,0.1036,0.1105,0.1105,0.1104,0.1034,0.09,0.0764,0.0765,0.0629,0.0,0.0,0.0,0.0,0.0,0.0139,0.0,0.0,0.0,0.0,0.0,0.0,0.0,0.0211,0.0421,0.0558,0.076,0.0959,0.109,0.122,0.1349,0.1481,0.1548,0.1616,0.1616,0.1751,0.1953,0.2016,0.2077,0.2107,0.2069,0.2028,0.1996,0.2006,0.2018,0.2033,0.2048,0.2068,0.2139,0.2077,0.1552,0.103,0.0768,0.0,0.0,0.0,0.0,0.0,0.0,0.0,0.0,0.0,0.0,0.0,0.0,0.0,-0.0556,-0.0741,-0.0865,-0.0803,0.0,0.0,0.0,0.0,0.0,0.0,0.0,0.0,0.0,0.0,0.0,0.0,0.0,0.0,0.0,0.0,0.0,0.0,0.0,0.0,0.0,0.0,0.0,0.0,0.0,0.0,0.0,0.0,0.0,0.0,0.0,0.0,0.0,0.0,0.0,0.0,0.0,0.0,0.0,0.0,0.0,0.0,0.0,0.035,0.035,0.042,0.0629,0.0699,0.0699,0.0699,0.07,0.0562,0.0423,0.0282,0.0,0.0,0.0,0.0,0.0,0.0,0.0,0.0,0.0,0.0,0.0,0.0,0.0,0.0,0.0427,0.0638,0.0777,0.1188,0.1381,0.1578,0.1693,0.1818,0.1818,0.1885,0.202,0.2087,0.2155,0.2155,0.2147,0.2142,0.212,0.2086,0.2057,0.2033,0.2035,0.2048,0.2063,0.2078,0.2093,0.216,0.2093,0.1574,0.105,0.0846,0.0,0.0,0.0,0.0,0.0,0.0,0.0,0.0,0.0,0.0,0.0,0.0,0.0,0.0,-0.0371,-0.0432,-0.0432,0.0,0.0,0.0,0.0,0.0,0.0,0.0,0.0,0.0,0.0,0.0,0.0,0.0,0.0,0.0,0.0,0.0,0.0,0.0,0.0,0.0,0.0,0.0,0.0,0.0,0.0,0.0,0.0,0.0,0.0,0.0,0.0,0.0,0.0,0.0,0.0,0.0,0.0,0.0,0.0,0.0,0.0,0.0,0.0,0.0,0.0,0.0,0.0,0.0,0.0,0.0,0.0,0.0,0.0,0.0,0.0,0.0,0.0,0.0,0.0,0.0,0.0,0.0,0.0,0.0,0.0,0.0,0.0361,0.0652,0.1011,0.1288,0.1697,0.1816,0.1932,0.2044,0.2091,0.2091,0.2087,0.2155,0.2222,0.2222,0.2221,0.2144,0.2135,0.2123,0.2101,0.208,0.2069,0.2067,0.2074,0.2088,0.2106,0.2185,0.2188,0.2059,0.1538,0.1136,0.0927,0.0,0.0,0.0,0.0,0.0,0.0,0.0,0.0,0.0,0.0,0.0,0.0,0.0,0.0,0.0,0.0,0.0,0.0,0.0,0.0,0.0,0.0,0.0,0.0,0.0,0.0,0.0,0.0,0.0,0.0,0.0,0.0,0.0,0.0,0.0,0.0,0.0,0.0,0.0,0.0,0.0,0.0,0.0,0.0,0.0,0.0,0.0,0.0,0.0,0.0,0.0,0.0,0.0,0.0,0.0,0.0,0.0,0.0,0.0,0.0,0.0,0.0,0.0,0.0,0.0,0.0,0.0,0.0,0.0,0.0,0.0,0.0,0.0,0.0,0.0,0.0,0.0,0.0,0.0,0.0,0.0,0.0,0.0,0.0,0.0584,0.0876,0.1236,0.1592,0.1933,0.2122,0.2095,0.2138,0.2177,0.2166,0.2159,0.2222,0.2222,0.2222,0.2222,0.2216,0.2212,0.2134,0.2121,0.2166,0.2095,0.2093,0.2098,0.2108,0.2129,0.2211,0.2216,0.202,0.1616,0.1212,0.1002,0.0727,0.0,0.0,0.0,0.0,0.0,0.0,0.0,0.0,0.0,0.0,0.0,0.0,0.0,0.0,0.0,0.0,0.0,0.0,0.0,0.0,0.0,0.0,0.0,0.0,0.0,0.0,0.0,0.0,0.0,0.0,0.0,0.0,0.0,0.0,0.0,0.0,0.0,0.0,0.0,0.0,0.0,0.0,0.0,0.0,0.0,0.0,0.0,0.0,0.0,0.0,0.0,0.0,0.0,0.0,0.0,0.0,0.0,0.0,0.0,0.0,0.0,0.0,0.0,0.0,0.0,0.0,0.0,0.0,0.0,0.0,0.0,0.0,0.0,0.0,0.0,0.0,0.0,0.0,0.0,0.0,0.0,0.0,0.0,0.0803,0.1167,0.1531,0.1891,0.2233,0.228,0.225,0.222,0.2189,0.2164,0.2224,0.2222,0.2222,0.2222,0.2222,0.2222,0.2221,0.2216,0.2202,0.2189,0.212,0.2119,0.2122,0.2125,0.2142,0.2221,0.2222,0.2087,0.1751,0.1414,0.1144,0.08,0.0462,0.0,0.0,0.0,0.0,0.0,0.0,0.0,0.0,0.0,0.0,0.0,0.0,0.0,0.0,0.0,0.0,0.0,0.0,0.0,0.0,0.0,0.0,0.0,0.0,0.0,0.0,0.0,0.0,0.0,0.0,0.0,0.0,0.0,0.0,0.0,0.0,0.0,0.0,0.0,0.0,0.0,0.0,0.0,0.0,0.0,0.0,0.0,0.0,0.0,0.0,0.0,0.0,0.0,0.0,0.0,0.0,0.0,0.0,0.0,0.0,0.0,0.0,0.0,0.0,0.0,0.0,0.0,0.0,0.0,0.0,0.0,0.0,0.0,0.0,0.0,0.0,0.0,0.0,0.0,0.0,0.0365,0.073,0.1094,0.1532,0.1896,0.2256,0.2235,0.2283,0.2253,0.2223,0.2193,0.2164,0.2222,0.2222,0.2222,0.2222,0.2222,0.2222,0.2222,0.2222,0.2216,0.2206,0.2207,0.214,0.2142,0.2144,0.2146,0.2222,0.2222,0.202,0.1885,0.1616,0.1346,0.0942,0.0,0.0,0.0,0.0,0.0,0.0,0.0,0.0,0.0,0.0,0.0,0.0,0.0,0.0,0.0,0.0,0.0,0.0,0.0,0.0,0.0,0.0,0.0,0.0,0.0,0.0,0.0,0.0,0.0,0.0,0.0,0.0,0.0,0.0,0.0,0.0,0.0,0.0,0.0,0.0,0.0,0.0,0.0,0.0,0.0,0.0,0.0,0.0,0.0,0.0,0.0,0.0,0.0,0.0,0.0,0.0,0.0,0.0,0.0,0.0,0.0,0.0,0.0,0.0,0.0,0.0,0.0,0.0,0.0,0.0,0.0,0.0,0.0,0.0,0.0,0.0,0.0,0.0,0.0,0.0,0.0,0.0584,0.0948,0.1386,0.175,0.2041,0.2187,0.2244,0.2287,0.2183,0.2227,0.2205,0.2176,0.2222,0.2222,0.2222,0.2222,0.2222,0.2222,0.2222,0.2222,0.2222,0.2222,0.2222,0.2222,0.2222,0.2222,0.2222,0.2222,0.2222,0.2222,0.2087,0.1818,0.1548,0.1144,0.0738,0.0,0.0,0.0,0.0,0.0,0.0,0.0,0.0,0.0,0.0,0.0,0.0,0.0,0.0,0.0,0.0,0.0,0.0,0.0,0.0,0.0,0.0,0.0,0.0,0.0,0.0,0.0,0.0,0.0,0.0,0.0,0.0,0.0,0.0,0.0,0.0,0.0,0.0,0.0,0.0,0.0,0.0,0.0,0.0,0.0,0.0,0.0,0.0,0.0,0.0,0.0,0.0,0.0,0.0,0.0,0.0,0.0,0.0,0.0,0.0,0.0,0.0,0.0,0.0,0.0,0.0,0.0,0.0,0.0,0.0,0.0,0.0,0.0,0.0,0.0,0.0,0.0,0.0146,0.0438,0.0657,0.0949,0.124,0.1604,0.1895,0.2041,0.2187,0.2254,0.2218,0.2182,0.2165,0.2217,0.2189,0.2228,0.2222,0.2222,0.2222,0.2222,0.2222,0.2222,0.2222,0.2222,0.2222,0.2222,0.2222,0.2222,0.2222,0.2222,0.2222,0.2222,0.2222,0.2155,0.1953,0.1683,0.1481,0.1072,0.0664,0.0,0.0,0.0,0.0,0.0,0.0,0.0,0.0,0.0,0.0,0.0,0.0,0.0,0.0,0.0,0.0,0.0,0.0,0.0,0.0,0.0,0.0,0.0,0.0,0.0,0.0,0.0,0.0,0.0,0.0,0.0,0.0,0.0,0.0,0.0,0.0,0.0,0.0,0.0,0.0,0.0,0.0,0.0,0.0,0.0,0.0,0.0,0.0,0.0,0.0,0.0,0.0,0.0,0.0,0.0,0.0,0.0,0.0,0.0,0.0,0.0,0.0,0.0,0.0,0.0,0.0,0.0,0.0,0.0,0.0,0.0,0.0,0.0,0.0,0.0,0.0,0.0365,0.073,0.0949,0.1167,0.1531,0.1823,0.2114,0.2187,0.226,0.2256,0.223,0.2195,0.217,0.2211,0.2174,0.2224,0.2222,0.2222,0.2222,0.2222,0.2222,0.2222,0.2222,0.2222,0.2222,0.2222,0.2222,0.2222,0.2222,0.2222,0.2222,0.2222,0.2222,0.2155,0.202,0.1818,0.1683,0.1413,0.1004,0.0728,0.0,0.0,0.0,0.0,0.0,0.0,0.0,0.0,0.0,0.0,0.0,0.0,0.0,0.0,0.0,0.0,0.0,0.0,0.0,0.0,0.0,0.0,0.0,0.0,0.0,0.0,0.0,0.0,0.0,0.0,0.0,0.0,0.0,0.0,0.0,0.0,0.0,0.0,0.0,0.0,0.0,0.0,0.0,0.0,0.0,0.0,0.0,0.0,0.0,0.0,0.0,0.0,0.0,0.0,0.0,0.0,0.0,0.0,0.0,0.0,0.0,0.0,0.0,0.0,0.0,0.0,0.0,0.0,0.0,0.0,0.0,0.0,0.0,0.0,0.0,0.0365,0.0803,0.1095,0.1459,0.175,0.2041,0.2187,0.226,0.2258,0.2253,0.2312,0.2206,0.2173,0.2203,0.223,0.2225,0.2223,0.2222,0.2222,0.2222,0.2222,0.2222,0.2222,0.2222,0.2222,0.2222,0.2222,0.2222,0.2222,0.2222,0.2222,0.2222,0.2222,0.2155,0.2087,0.1953,0.1818,0.1548,0.1346,0.0999,0.079,0.0847,0.0,0.0634,0.0626,0.0,0.0,0.0618,0.0618,0.0556,0.0618,0.0,0.0,0.0,0.0,0.0,0.0,0.0,0.0,0.0,0.0,0.0,0.0,0.0,0.0,0.0,0.0,0.0,0.0,0.0,0.0,0.0,0.0,0.0,0.0,0.0,0.0,0.0,0.0,0.0,0.0,0.0,0.0,0.0,0.0,0.0,0.0,0.0,0.0,0.0,0.0,0.0,0.0,0.0,0.0,0.0,0.0,0.0,0.0,0.0,0.0,0.0,0.0,0.0,0.0,0.0,0.0,0.0,0.0,0.0,0.0,0.0,0.0,0.0146,0.0292,0.0657,0.1095,0.1458,0.1822,0.1969,0.226,0.226,0.226,0.226,0.2256,0.2227,0.2194,0.2174,0.2215,0.2178,0.2223,0.2222,0.2222,0.2222,0.2222,0.2222,0.2222,0.2222,0.2222,0.2222,0.2222,0.2222,0.2222,0.2222,0.2222,0.2222,0.2222,0.2222,0.2222,0.2155,0.2087,0.1953,0.1751,0.1547,0.1271,0.1062,0.1117,0.1103,0.0958,0.0947,0.1125,0.1054,0.0865,0.0865,0.0926,0.105,0.1173,0.105,0.0,0.0,0.0,0.0,0.0,0.0,0.0,0.0,0.0,0.0,0.0,0.0,-0.0067,0.0,0.0,0.0,0.0,0.0,0.0,0.0,0.0,0.0,0.0,0.0,0.0,0.0,0.0,0.0,0.0,0.0,0.0,0.0,0.0,0.0,0.0,0.0,0.0,0.0,0.0,0.0,0.0,0.0,0.0,0.0,0.0,0.0,0.0,0.0,0.0,0.0,0.0,0.0,0.0,0.0,0.0,0.0,0.0,0.0,0.0,0.0,0.0365,0.0657,0.1022,0.1386,0.1822,0.2041,0.226,0.226,0.226,0.226,0.226,0.2254,0.2222,0.2254,0.2237,0.2218,0.2183,0.2222,0.2222,0.2222,0.2222,0.2222,0.2222,0.2222,0.2223,0.2223,0.2223,0.2223,0.2222,0.2222,0.2222,0.2222,0.2222,0.2222,0.2222,0.2222,0.2222,0.2155,0.2087,0.1953,0.1816,0.1609,0.1468,0.1392,0.1308,0.1289,0.1271,0.1382,0.1247,0.1175,0.1297,0.1359,0.1359,0.1483,0.1544,0.0,0.0,-0.0269,-0.0404,-0.0471,-0.0741,-0.0875,-0.0875,-0.0875,-0.0875,-0.0741,-0.0471,0.0,0.0,0.0,0.0,0.0,0.0,0.0,0.0,0.0,0.0,0.0,0.0,0.0,0.0,0.0,0.0,0.0,0.0,0.0,0.0,0.0,0.0,0.0,0.0,0.0,0.0,0.0,0.0,0.0,0.0,0.0,0.0,0.0,0.0,0.0,0.0,0.0,0.0,0.0,0.0,0.0,0.0,0.0,0.0,0.0,0.0,0.0292,0.0438,0.0657,0.1022,0.1386,0.1604,0.1895,0.2114,0.226,0.226,0.226,0.226,0.226,0.226,0.2237,0.225,0.2216,0.2191,0.2228,0.2222,0.2222,0.2222,0.2222,0.2222,0.2222,0.2223,0.2225,0.2225,0.2229,0.223,0.217,0.2164,0.2226,0.2225,0.2226,0.2222,0.2222,0.2222,0.2222,0.2222,0.2155,0.2087,0.202,0.2087,0.1943,0.18,0.1784,0.1826,0.1801,0.1643,0.1687,0.1674,0.1793,0.1853,0.1791,0.173,0.1791]}]]